<?xml version="1.0" encoding="UTF-8" standalone="no" ?>
<gpx xmlns="http://www.topografix.com/GPX/1/1" xmlns:xsi="http://www.w3.org/2001/XMLSchema-instance" xsi:schemaLocation="http://www.topografix.com/GPX/1/1 http://www.topografix.com/GPX/1/1/gpx.xsd" version="1.1" creator="VisuGPX - https://www.visugpx.com">
  <metadata>
    <name>ST_RAD_21km v1  -700m</name>
    <desc><![CDATA[21km  700m]]></desc>
  </metadata>
  <trk>
    <name><![CDATA[st RA 20km]]></name>
    <trkseg>
      <trkpt lat="44.33568" lon="2.62934">
        <ele>649.0270996</ele>
        <time>2014-05-07T08:07:55Z</time>
      </trkpt>
      <trkpt lat="44.33567" lon="2.62939">
        <ele>648.065918</ele>
        <time>2014-05-07T08:07:56Z</time>
      </trkpt>
      <trkpt lat="44.33564" lon="2.62957">
        <ele>644.2207031</ele>
        <time>2014-05-07T08:08:00Z</time>
      </trkpt>
      <trkpt lat="44.33563" lon="2.62969">
        <ele>642.7788086</ele>
        <time>2014-05-07T08:08:03Z</time>
      </trkpt>
      <trkpt lat="44.33567" lon="2.62986">
        <ele>642.2980957</ele>
        <time>2014-05-07T08:08:07Z</time>
      </trkpt>
      <trkpt lat="44.33572" lon="2.63001">
        <ele>640.3754883</ele>
        <time>2014-05-07T08:08:11Z</time>
      </trkpt>
      <trkpt lat="44.33573" lon="2.63021">
        <ele>638.4528809</ele>
        <time>2014-05-07T08:08:16Z</time>
      </trkpt>
      <trkpt lat="44.33573" lon="2.63033">
        <ele>637.4914551</ele>
        <time>2014-05-07T08:08:20Z</time>
      </trkpt>
      <trkpt lat="44.33563" lon="2.63044">
        <ele>636.0495605</ele>
        <time>2014-05-07T08:08:24Z</time>
      </trkpt>
      <trkpt lat="44.33561" lon="2.63052">
        <ele>635.0881348</ele>
        <time>2014-05-07T08:08:26Z</time>
      </trkpt>
      <trkpt lat="44.33559" lon="2.63076">
        <ele>632.2041016</ele>
        <time>2014-05-07T08:08:32Z</time>
      </trkpt>
      <trkpt lat="44.33556" lon="2.63092">
        <ele>631.7233887</ele>
        <time>2014-05-07T08:08:36Z</time>
      </trkpt>
      <trkpt lat="44.33553" lon="2.63108">
        <ele>632.2041016</ele>
        <time>2014-05-07T08:08:40Z</time>
      </trkpt>
      <trkpt lat="44.33548" lon="2.63127">
        <ele>633.6459961</ele>
        <time>2014-05-07T08:08:45Z</time>
      </trkpt>
      <trkpt lat="44.33541" lon="2.63141">
        <ele>635.5686035</ele>
        <time>2014-05-07T08:08:49Z</time>
      </trkpt>
      <trkpt lat="44.33534" lon="2.63161">
        <ele>640.855957</ele>
        <time>2014-05-07T08:08:55Z</time>
      </trkpt>
      <trkpt lat="44.33533" lon="2.63164">
        <ele>641.3366699</ele>
        <time>2014-05-07T08:08:56Z</time>
      </trkpt>
      <trkpt lat="44.33527" lon="2.6319">
        <ele>642.2980957</ele>
        <time>2014-05-07T08:09:03Z</time>
      </trkpt>
      <trkpt lat="44.33522" lon="2.63218">
        <ele>643.7399902</ele>
        <time>2014-05-07T08:09:10Z</time>
      </trkpt>
      <trkpt lat="44.33517" lon="2.63241">
        <ele>643.2592773</ele>
        <time>2014-05-07T08:09:16Z</time>
      </trkpt>
      <trkpt lat="44.33508" lon="2.63263">
        <ele>640.855957</ele>
        <time>2014-05-07T08:09:22Z</time>
      </trkpt>
      <trkpt lat="44.33502" lon="2.63281">
        <ele>639.4140625</ele>
        <time>2014-05-07T08:09:27Z</time>
      </trkpt>
      <trkpt lat="44.33501" lon="2.63284">
        <ele>638.4528809</ele>
        <time>2014-05-07T08:09:28Z</time>
      </trkpt>
      <trkpt lat="44.33497" lon="2.63302">
        <ele>637.972168</ele>
        <time>2014-05-07T08:09:33Z</time>
      </trkpt>
      <trkpt lat="44.33492" lon="2.63321">
        <ele>637.0107422</ele>
        <time>2014-05-07T08:09:38Z</time>
      </trkpt>
      <trkpt lat="44.33488" lon="2.63346">
        <ele>635.0881348</ele>
        <time>2014-05-07T08:09:44Z</time>
      </trkpt>
      <trkpt lat="44.33484" lon="2.63364">
        <ele>634.6074219</ele>
        <time>2014-05-07T08:09:49Z</time>
      </trkpt>
      <trkpt lat="44.33482" lon="2.63387">
        <ele>634.126709</ele>
        <time>2014-05-07T08:09:55Z</time>
      </trkpt>
      <trkpt lat="44.3348" lon="2.63408">
        <ele>635.0881348</ele>
        <time>2014-05-07T08:10:00Z</time>
      </trkpt>
      <trkpt lat="44.33479" lon="2.63428">
        <ele>634.126709</ele>
        <time>2014-05-07T08:10:05Z</time>
      </trkpt>
      <trkpt lat="44.33475" lon="2.6345">
        <ele>634.126709</ele>
        <time>2014-05-07T08:10:11Z</time>
      </trkpt>
      <trkpt lat="44.33471" lon="2.63465">
        <ele>635.0881348</ele>
        <time>2014-05-07T08:10:15Z</time>
      </trkpt>
      <trkpt lat="44.33465" lon="2.63487">
        <ele>635.5686035</ele>
        <time>2014-05-07T08:10:21Z</time>
      </trkpt>
      <trkpt lat="44.33458" lon="2.63508">
        <ele>636.0495605</ele>
        <time>2014-05-07T08:10:27Z</time>
      </trkpt>
      <trkpt lat="44.33452" lon="2.63527">
        <ele>635.5686035</ele>
        <time>2014-05-07T08:10:32Z</time>
      </trkpt>
      <trkpt lat="44.33451" lon="2.63547">
        <ele>634.126709</ele>
        <time>2014-05-07T08:10:37Z</time>
      </trkpt>
      <trkpt lat="44.33447" lon="2.6357">
        <ele>633.1652832</ele>
        <time>2014-05-07T08:10:43Z</time>
      </trkpt>
      <trkpt lat="44.33437" lon="2.63584">
        <ele>632.6848145</ele>
        <time>2014-05-07T08:10:48Z</time>
      </trkpt>
      <trkpt lat="44.33426" lon="2.63598">
        <ele>633.1652832</ele>
        <time>2014-05-07T08:10:54Z</time>
      </trkpt>
      <trkpt lat="44.33414" lon="2.63613">
        <ele>634.126709</ele>
        <time>2014-05-07T08:11:01Z</time>
      </trkpt>
      <trkpt lat="44.33404" lon="2.63626">
        <ele>636.0495605</ele>
        <time>2014-05-07T08:11:08Z</time>
      </trkpt>
      <trkpt lat="44.33397" lon="2.63634">
        <ele>637.0107422</ele>
        <time>2014-05-07T08:11:13Z</time>
      </trkpt>
      <trkpt lat="44.33388" lon="2.63649">
        <ele>637.972168</ele>
        <time>2014-05-07T08:11:21Z</time>
      </trkpt>
      <trkpt lat="44.33381" lon="2.63659">
        <ele>638.4528809</ele>
        <time>2014-05-07T08:11:26Z</time>
      </trkpt>
      <trkpt lat="44.33371" lon="2.63673">
        <ele>638.9335938</ele>
        <time>2014-05-07T08:11:33Z</time>
      </trkpt>
      <trkpt lat="44.33364" lon="2.63688">
        <ele>640.855957</ele>
        <time>2014-05-07T08:11:39Z</time>
      </trkpt>
      <trkpt lat="44.33361" lon="2.63697">
        <ele>642.7788086</ele>
        <time>2014-05-07T08:11:42Z</time>
      </trkpt>
      <trkpt lat="44.33356" lon="2.63711">
        <ele>645.1818848</ele>
        <time>2014-05-07T08:11:48Z</time>
      </trkpt>
      <trkpt lat="44.33351" lon="2.6373">
        <ele>647.5852051</ele>
        <time>2014-05-07T08:11:54Z</time>
      </trkpt>
      <trkpt lat="44.33348" lon="2.63744">
        <ele>649.0270996</ele>
        <time>2014-05-07T08:11:59Z</time>
      </trkpt>
      <trkpt lat="44.33344" lon="2.63757">
        <ele>649.9885254</ele>
        <time>2014-05-07T08:12:04Z</time>
      </trkpt>
      <trkpt lat="44.33339" lon="2.63777">
        <ele>652.3918457</ele>
        <time>2014-05-07T08:12:11Z</time>
      </trkpt>
      <trkpt lat="44.33336" lon="2.63791">
        <ele>653.8339844</ele>
        <time>2014-05-07T08:12:16Z</time>
      </trkpt>
      <trkpt lat="44.3333" lon="2.6381">
        <ele>654.795166</ele>
        <time>2014-05-07T08:12:23Z</time>
      </trkpt>
      <trkpt lat="44.33324" lon="2.63826">
        <ele>656.2370605</ele>
        <time>2014-05-07T08:12:29Z</time>
      </trkpt>
      <trkpt lat="44.33321" lon="2.63843">
        <ele>657.1984863</ele>
        <time>2014-05-07T08:12:35Z</time>
      </trkpt>
      <trkpt lat="44.33319" lon="2.63858">
        <ele>658.1599121</ele>
        <time>2014-05-07T08:12:40Z</time>
      </trkpt>
      <trkpt lat="44.33313" lon="2.6388">
        <ele>659.1210938</ele>
        <time>2014-05-07T08:12:47Z</time>
      </trkpt>
      <trkpt lat="44.33309" lon="2.63898">
        <ele>660.0822754</ele>
        <time>2014-05-07T08:12:53Z</time>
      </trkpt>
      <trkpt lat="44.33304" lon="2.63916">
        <ele>661.5244141</ele>
        <time>2014-05-07T08:12:59Z</time>
      </trkpt>
      <trkpt lat="44.333" lon="2.63938">
        <ele>662.4855957</ele>
        <time>2014-05-07T08:13:06Z</time>
      </trkpt>
      <trkpt lat="44.33298" lon="2.63954">
        <ele>663.9274902</ele>
        <time>2014-05-07T08:13:11Z</time>
      </trkpt>
      <trkpt lat="44.33297" lon="2.63974">
        <ele>664.888916</ele>
        <time>2014-05-07T08:13:17Z</time>
      </trkpt>
      <trkpt lat="44.33292" lon="2.63994">
        <ele>665.8503418</ele>
        <time>2014-05-07T08:13:23Z</time>
      </trkpt>
      <trkpt lat="44.33288" lon="2.6401">
        <ele>666.8115234</ele>
        <time>2014-05-07T08:13:28Z</time>
      </trkpt>
      <trkpt lat="44.33283" lon="2.6403">
        <ele>665.8503418</ele>
        <time>2014-05-07T08:13:34Z</time>
      </trkpt>
      <trkpt lat="44.3328" lon="2.64046">
        <ele>666.3308105</ele>
        <time>2014-05-07T08:13:39Z</time>
      </trkpt>
      <trkpt lat="44.3328" lon="2.64063">
        <ele>666.3308105</ele>
        <time>2014-05-07T08:13:44Z</time>
      </trkpt>
      <trkpt lat="44.33278" lon="2.64082">
        <ele>666.3308105</ele>
        <time>2014-05-07T08:13:49Z</time>
      </trkpt>
      <trkpt lat="44.33275" lon="2.64101">
        <ele>666.8115234</ele>
        <time>2014-05-07T08:13:54Z</time>
      </trkpt>
      <trkpt lat="44.33268" lon="2.64128">
        <ele>668.734375</ele>
        <time>2014-05-07T08:14:02Z</time>
      </trkpt>
      <trkpt lat="44.33264" lon="2.64147">
        <ele>669.6958008</ele>
        <time>2014-05-07T08:14:08Z</time>
      </trkpt>
      <trkpt lat="44.3326" lon="2.64167">
        <ele>671.1376953</ele>
        <time>2014-05-07T08:14:14Z</time>
      </trkpt>
      <trkpt lat="44.33255" lon="2.64187">
        <ele>672.098877</ele>
        <time>2014-05-07T08:14:20Z</time>
      </trkpt>
      <trkpt lat="44.3325" lon="2.64203">
        <ele>673.0603027</ele>
        <time>2014-05-07T08:14:25Z</time>
      </trkpt>
      <trkpt lat="44.33242" lon="2.64222">
        <ele>673.5410156</ele>
        <time>2014-05-07T08:14:31Z</time>
      </trkpt>
      <trkpt lat="44.33235" lon="2.64242">
        <ele>674.0214844</ele>
        <time>2014-05-07T08:14:37Z</time>
      </trkpt>
      <trkpt lat="44.33227" lon="2.64266">
        <ele>674.5021973</ele>
        <time>2014-05-07T08:14:45Z</time>
      </trkpt>
      <trkpt lat="44.33221" lon="2.64282">
        <ele>675.4633789</ele>
        <time>2014-05-07T08:14:50Z</time>
      </trkpt>
      <trkpt lat="44.33214" lon="2.64297">
        <ele>675.4633789</ele>
        <time>2014-05-07T08:14:55Z</time>
      </trkpt>
      <trkpt lat="44.33207" lon="2.64313">
        <ele>675.9440918</ele>
        <time>2014-05-07T08:15:00Z</time>
      </trkpt>
      <trkpt lat="44.33198" lon="2.64332">
        <ele>675.4633789</ele>
        <time>2014-05-07T08:15:06Z</time>
      </trkpt>
      <trkpt lat="44.3319" lon="2.64353">
        <ele>676.4248047</ele>
        <time>2014-05-07T08:15:13Z</time>
      </trkpt>
      <trkpt lat="44.33182" lon="2.64377">
        <ele>676.4248047</ele>
        <time>2014-05-07T08:15:21Z</time>
      </trkpt>
      <trkpt lat="44.33174" lon="2.64401">
        <ele>677.3862305</ele>
        <time>2014-05-07T08:15:28Z</time>
      </trkpt>
      <trkpt lat="44.33169" lon="2.64421">
        <ele>677.8666992</ele>
        <time>2014-05-07T08:15:34Z</time>
      </trkpt>
      <trkpt lat="44.33165" lon="2.64442">
        <ele>678.3474121</ele>
        <time>2014-05-07T08:15:40Z</time>
      </trkpt>
      <trkpt lat="44.33161" lon="2.64458">
        <ele>677.8666992</ele>
        <time>2014-05-07T08:15:45Z</time>
      </trkpt>
      <trkpt lat="44.33155" lon="2.64474">
        <ele>677.8666992</ele>
        <time>2014-05-07T08:15:50Z</time>
      </trkpt>
      <trkpt lat="44.33147" lon="2.64495">
        <ele>678.828125</ele>
        <time>2014-05-07T08:15:57Z</time>
      </trkpt>
      <trkpt lat="44.33141" lon="2.6451">
        <ele>678.828125</ele>
        <time>2014-05-07T08:16:02Z</time>
      </trkpt>
      <trkpt lat="44.33136" lon="2.64525">
        <ele>678.828125</ele>
        <time>2014-05-07T08:16:07Z</time>
      </trkpt>
      <trkpt lat="44.33131" lon="2.64543">
        <ele>680.2700195</ele>
        <time>2014-05-07T08:16:12Z</time>
      </trkpt>
      <trkpt lat="44.33124" lon="2.64561">
        <ele>679.7893066</ele>
        <time>2014-05-07T08:16:18Z</time>
      </trkpt>
      <trkpt lat="44.33117" lon="2.64576">
        <ele>679.7893066</ele>
        <time>2014-05-07T08:16:23Z</time>
      </trkpt>
      <trkpt lat="44.33111" lon="2.64589">
        <ele>678.828125</ele>
        <time>2014-05-07T08:16:27Z</time>
      </trkpt>
      <trkpt lat="44.33108" lon="2.64607">
        <ele>678.3474121</ele>
        <time>2014-05-07T08:16:32Z</time>
      </trkpt>
      <trkpt lat="44.33106" lon="2.64626">
        <ele>679.3085938</ele>
        <time>2014-05-07T08:16:37Z</time>
      </trkpt>
      <trkpt lat="44.33103" lon="2.64642">
        <ele>679.3085938</ele>
        <time>2014-05-07T08:16:41Z</time>
      </trkpt>
      <trkpt lat="44.33099" lon="2.6466">
        <ele>678.828125</ele>
        <time>2014-05-07T08:16:46Z</time>
      </trkpt>
      <trkpt lat="44.33097" lon="2.6468">
        <ele>678.3474121</ele>
        <time>2014-05-07T08:16:51Z</time>
      </trkpt>
      <trkpt lat="44.33093" lon="2.64702">
        <ele>678.828125</ele>
        <time>2014-05-07T08:16:57Z</time>
      </trkpt>
      <trkpt lat="44.33086" lon="2.64724">
        <ele>678.828125</ele>
        <time>2014-05-07T08:17:03Z</time>
      </trkpt>
      <trkpt lat="44.33081" lon="2.64746">
        <ele>677.8666992</ele>
        <time>2014-05-07T08:17:09Z</time>
      </trkpt>
      <trkpt lat="44.33077" lon="2.64765">
        <ele>677.3862305</ele>
        <time>2014-05-07T08:17:14Z</time>
      </trkpt>
      <trkpt lat="44.33075" lon="2.64784">
        <ele>675.4633789</ele>
        <time>2014-05-07T08:17:19Z</time>
      </trkpt>
      <trkpt lat="44.33073" lon="2.64803">
        <ele>673.5410156</ele>
        <time>2014-05-07T08:17:24Z</time>
      </trkpt>
      <trkpt lat="44.33072" lon="2.64819">
        <ele>672.098877</ele>
        <time>2014-05-07T08:17:28Z</time>
      </trkpt>
      <trkpt lat="44.33069" lon="2.64836">
        <ele>670.6569824</ele>
        <time>2014-05-07T08:17:32Z</time>
      </trkpt>
      <trkpt lat="44.33064" lon="2.64847">
        <ele>669.2150879</ele>
        <time>2014-05-07T08:17:35Z</time>
      </trkpt>
      <trkpt lat="44.33045" lon="2.64849">
        <ele>665.3696289</ele>
        <time>2014-05-07T08:17:41Z</time>
      </trkpt>
      <trkpt lat="44.33031" lon="2.64845">
        <ele>663.9274902</ele>
        <time>2014-05-07T08:17:46Z</time>
      </trkpt>
      <trkpt lat="44.33017" lon="2.64841">
        <ele>663.4470215</ele>
        <time>2014-05-07T08:17:51Z</time>
      </trkpt>
      <trkpt lat="44.33003" lon="2.64839">
        <ele>662.9663086</ele>
        <time>2014-05-07T08:17:56Z</time>
      </trkpt>
      <trkpt lat="44.32988" lon="2.64835">
        <ele>661.5244141</ele>
        <time>2014-05-07T08:18:02Z</time>
      </trkpt>
      <trkpt lat="44.32979" lon="2.64831">
        <ele>660.5629883</ele>
        <time>2014-05-07T08:18:06Z</time>
      </trkpt>
      <trkpt lat="44.32961" lon="2.64825">
        <ele>658.6403809</ele>
        <time>2014-05-07T08:18:12Z</time>
      </trkpt>
      <trkpt lat="44.32953" lon="2.64822">
        <ele>658.6403809</ele>
        <time>2014-05-07T08:18:15Z</time>
      </trkpt>
      <trkpt lat="44.32937" lon="2.64821">
        <ele>658.1599121</ele>
        <time>2014-05-07T08:18:21Z</time>
      </trkpt>
      <trkpt lat="44.32926" lon="2.64819">
        <ele>657.6791992</ele>
        <time>2014-05-07T08:18:25Z</time>
      </trkpt>
      <trkpt lat="44.32914" lon="2.64816">
        <ele>657.1984863</ele>
        <time>2014-05-07T08:18:29Z</time>
      </trkpt>
      <trkpt lat="44.32904" lon="2.64814">
        <ele>657.1984863</ele>
        <time>2014-05-07T08:18:33Z</time>
      </trkpt>
      <trkpt lat="44.32896" lon="2.64813">
        <ele>656.7177734</ele>
        <time>2014-05-07T08:18:36Z</time>
      </trkpt>
      <trkpt lat="44.32881" lon="2.64809">
        <ele>655.7565918</ele>
        <time>2014-05-07T08:18:41Z</time>
      </trkpt>
      <trkpt lat="44.32879" lon="2.64809">
        <ele>655.2758789</ele>
        <time>2014-05-07T08:18:42Z</time>
      </trkpt>
      <trkpt lat="44.32873" lon="2.6481">
        <ele>655.2758789</ele>
        <time>2014-05-07T08:18:44Z</time>
      </trkpt>
      <trkpt lat="44.32858" lon="2.6481">
        <ele>654.795166</ele>
        <time>2014-05-07T08:18:49Z</time>
      </trkpt>
      <trkpt lat="44.32846" lon="2.64807">
        <ele>653.8339844</ele>
        <time>2014-05-07T08:18:53Z</time>
      </trkpt>
      <trkpt lat="44.32832" lon="2.64807">
        <ele>652.8725586</ele>
        <time>2014-05-07T08:18:58Z</time>
      </trkpt>
      <trkpt lat="44.32815" lon="2.64801">
        <ele>651.9111328</ele>
        <time>2014-05-07T08:19:04Z</time>
      </trkpt>
      <trkpt lat="44.32801" lon="2.64795">
        <ele>649.9885254</ele>
        <time>2014-05-07T08:19:09Z</time>
      </trkpt>
      <trkpt lat="44.32784" lon="2.64789">
        <ele>647.5852051</ele>
        <time>2014-05-07T08:19:14Z</time>
      </trkpt>
      <trkpt lat="44.32772" lon="2.64787">
        <ele>646.1433105</ele>
        <time>2014-05-07T08:19:18Z</time>
      </trkpt>
      <trkpt lat="44.32753" lon="2.64786">
        <ele>644.2207031</ele>
        <time>2014-05-07T08:19:24Z</time>
      </trkpt>
      <trkpt lat="44.32735" lon="2.64781">
        <ele>640.855957</ele>
        <time>2014-05-07T08:19:30Z</time>
      </trkpt>
      <trkpt lat="44.32723" lon="2.64784">
        <ele>640.855957</ele>
        <time>2014-05-07T08:19:34Z</time>
      </trkpt>
      <trkpt lat="44.32713" lon="2.64782">
        <ele>640.855957</ele>
        <time>2014-05-07T08:19:38Z</time>
      </trkpt>
      <trkpt lat="44.32702" lon="2.64781">
        <ele>641.3366699</ele>
        <time>2014-05-07T08:19:42Z</time>
      </trkpt>
      <trkpt lat="44.32696" lon="2.6478">
        <ele>641.3366699</ele>
        <time>2014-05-07T08:19:44Z</time>
      </trkpt>
      <trkpt lat="44.32683" lon="2.6478">
        <ele>640.855957</ele>
        <time>2014-05-07T08:19:50Z</time>
      </trkpt>
      <trkpt lat="44.3267" lon="2.64781">
        <ele>640.3754883</ele>
        <time>2014-05-07T08:19:55Z</time>
      </trkpt>
      <trkpt lat="44.32654" lon="2.64781">
        <ele>640.3754883</ele>
        <time>2014-05-07T08:20:01Z</time>
      </trkpt>
      <trkpt lat="44.32641" lon="2.64785">
        <ele>641.3366699</ele>
        <time>2014-05-07T08:20:06Z</time>
      </trkpt>
      <trkpt lat="44.32628" lon="2.64792">
        <ele>640.855957</ele>
        <time>2014-05-07T08:20:12Z</time>
      </trkpt>
      <trkpt lat="44.32617" lon="2.64796">
        <ele>641.8173828</ele>
        <time>2014-05-07T08:20:17Z</time>
      </trkpt>
      <trkpt lat="44.32612" lon="2.64799">
        <ele>641.3366699</ele>
        <time>2014-05-07T08:20:19Z</time>
      </trkpt>
      <trkpt lat="44.32598" lon="2.64798">
        <ele>641.8173828</ele>
        <time>2014-05-07T08:20:25Z</time>
      </trkpt>
      <trkpt lat="44.32595" lon="2.64796">
        <ele>641.3366699</ele>
        <time>2014-05-07T08:20:27Z</time>
      </trkpt>
      <trkpt lat="44.32584" lon="2.64799">
        <ele>642.2980957</ele>
        <time>2014-05-07T08:20:32Z</time>
      </trkpt>
      <trkpt lat="44.3257" lon="2.648">
        <ele>645.1818848</ele>
        <time>2014-05-07T08:20:38Z</time>
      </trkpt>
      <trkpt lat="44.32553" lon="2.648">
        <ele>648.065918</ele>
        <time>2014-05-07T08:20:45Z</time>
      </trkpt>
      <trkpt lat="44.32549" lon="2.64799">
        <ele>648.5463867</ele>
        <time>2014-05-07T08:20:48Z</time>
      </trkpt>
      <trkpt lat="44.32541" lon="2.648">
        <ele>649.9885254</ele>
        <time>2014-05-07T08:20:53Z</time>
      </trkpt>
      <trkpt lat="44.32538" lon="2.64801">
        <ele>650.4692383</ele>
        <time>2014-05-07T08:20:54Z</time>
      </trkpt>
      <trkpt lat="44.32524" lon="2.648">
        <ele>650.949707</ele>
        <time>2014-05-07T08:21:00Z</time>
      </trkpt>
      <trkpt lat="44.32513" lon="2.64797">
        <ele>652.3918457</ele>
        <time>2014-05-07T08:21:05Z</time>
      </trkpt>
      <trkpt lat="44.32496" lon="2.64794">
        <ele>654.3146973</ele>
        <time>2014-05-07T08:21:12Z</time>
      </trkpt>
      <trkpt lat="44.32487" lon="2.64791">
        <ele>655.7565918</ele>
        <time>2014-05-07T08:21:17Z</time>
      </trkpt>
      <trkpt lat="44.32485" lon="2.64791">
        <ele>655.2758789</ele>
        <time>2014-05-07T08:21:18Z</time>
      </trkpt>
      <trkpt lat="44.32472" lon="2.64782">
        <ele>658.1599121</ele>
        <time>2014-05-07T08:21:24Z</time>
      </trkpt>
      <trkpt lat="44.32462" lon="2.64778">
        <ele>659.6018066</ele>
        <time>2014-05-07T08:21:28Z</time>
      </trkpt>
      <trkpt lat="44.32455" lon="2.64775">
        <ele>660.5629883</ele>
        <time>2014-05-07T08:21:32Z</time>
      </trkpt>
      <trkpt lat="44.32437" lon="2.64767">
        <ele>661.0437012</ele>
        <time>2014-05-07T08:21:40Z</time>
      </trkpt>
      <trkpt lat="44.32424" lon="2.6476">
        <ele>662.005127</ele>
        <time>2014-05-07T08:21:46Z</time>
      </trkpt>
      <trkpt lat="44.32413" lon="2.64754">
        <ele>662.4855957</ele>
        <time>2014-05-07T08:21:51Z</time>
      </trkpt>
      <trkpt lat="44.32401" lon="2.64748">
        <ele>663.4470215</ele>
        <time>2014-05-07T08:21:56Z</time>
      </trkpt>
      <trkpt lat="44.32388" lon="2.64743">
        <ele>663.9274902</ele>
        <time>2014-05-07T08:22:02Z</time>
      </trkpt>
      <trkpt lat="44.32373" lon="2.64742">
        <ele>663.9274902</ele>
        <time>2014-05-07T08:22:08Z</time>
      </trkpt>
      <trkpt lat="44.32359" lon="2.64744">
        <ele>664.4082031</ele>
        <time>2014-05-07T08:22:14Z</time>
      </trkpt>
      <trkpt lat="44.32347" lon="2.64751">
        <ele>665.8503418</ele>
        <time>2014-05-07T08:22:19Z</time>
      </trkpt>
      <trkpt lat="44.32336" lon="2.64763">
        <ele>665.8503418</ele>
        <time>2014-05-07T08:22:25Z</time>
      </trkpt>
      <trkpt lat="44.32325" lon="2.64781">
        <ele>667.2922363</ele>
        <time>2014-05-07T08:22:31Z</time>
      </trkpt>
      <trkpt lat="44.32318" lon="2.64796">
        <ele>668.734375</ele>
        <time>2014-05-07T08:22:36Z</time>
      </trkpt>
      <trkpt lat="44.32311" lon="2.64811">
        <ele>670.6569824</ele>
        <time>2014-05-07T08:22:41Z</time>
      </trkpt>
      <trkpt lat="44.32306" lon="2.64819">
        <ele>671.6181641</ele>
        <time>2014-05-07T08:22:44Z</time>
      </trkpt>
      <trkpt lat="44.32297" lon="2.64816">
        <ele>671.6181641</ele>
        <time>2014-05-07T08:22:48Z</time>
      </trkpt>
      <trkpt lat="44.32295" lon="2.64813">
        <ele>671.6181641</ele>
        <time>2014-05-07T08:22:49Z</time>
      </trkpt>
      <trkpt lat="44.32286" lon="2.64789">
        <ele>672.5795898</ele>
        <time>2014-05-07T08:22:56Z</time>
      </trkpt>
      <trkpt lat="44.32278" lon="2.6477">
        <ele>672.5795898</ele>
        <time>2014-05-07T08:23:02Z</time>
      </trkpt>
      <trkpt lat="44.32272" lon="2.6475">
        <ele>674.0214844</ele>
        <time>2014-05-07T08:23:08Z</time>
      </trkpt>
      <trkpt lat="44.32267" lon="2.6473">
        <ele>675.4633789</ele>
        <time>2014-05-07T08:23:14Z</time>
      </trkpt>
      <trkpt lat="44.32263" lon="2.6471">
        <ele>675.9440918</ele>
        <time>2014-05-07T08:23:20Z</time>
      </trkpt>
      <trkpt lat="44.32256" lon="2.64694">
        <ele>676.9055176</ele>
        <time>2014-05-07T08:23:26Z</time>
      </trkpt>
      <trkpt lat="44.32244" lon="2.64679">
        <ele>677.8666992</ele>
        <time>2014-05-07T08:23:33Z</time>
      </trkpt>
      <trkpt lat="44.32229" lon="2.64666">
        <ele>678.3474121</ele>
        <time>2014-05-07T08:23:41Z</time>
      </trkpt>
      <trkpt lat="44.32217" lon="2.64659">
        <ele>678.828125</ele>
        <time>2014-05-07T08:23:47Z</time>
      </trkpt>
      <trkpt lat="44.32204" lon="2.64653">
        <ele>679.3085938</ele>
        <time>2014-05-07T08:23:53Z</time>
      </trkpt>
      <trkpt lat="44.32191" lon="2.6465">
        <ele>679.7893066</ele>
        <time>2014-05-07T08:23:59Z</time>
      </trkpt>
      <trkpt lat="44.32177" lon="2.64647">
        <ele>680.7507324</ele>
        <time>2014-05-07T08:24:05Z</time>
      </trkpt>
      <trkpt lat="44.32163" lon="2.64645">
        <ele>681.7119141</ele>
        <time>2014-05-07T08:24:11Z</time>
      </trkpt>
      <trkpt lat="44.32148" lon="2.64644">
        <ele>683.1538086</ele>
        <time>2014-05-07T08:24:17Z</time>
      </trkpt>
      <trkpt lat="44.32129" lon="2.64642">
        <ele>683.1538086</ele>
        <time>2014-05-07T08:24:24Z</time>
      </trkpt>
      <trkpt lat="44.32115" lon="2.64638">
        <ele>682.6733398</ele>
        <time>2014-05-07T08:24:29Z</time>
      </trkpt>
      <trkpt lat="44.32099" lon="2.64635">
        <ele>682.192627</ele>
        <time>2014-05-07T08:24:35Z</time>
      </trkpt>
      <trkpt lat="44.32084" lon="2.64632">
        <ele>681.7119141</ele>
        <time>2014-05-07T08:24:40Z</time>
      </trkpt>
      <trkpt lat="44.32066" lon="2.6463">
        <ele>680.7507324</ele>
        <time>2014-05-07T08:24:46Z</time>
      </trkpt>
      <trkpt lat="44.32049" lon="2.64626">
        <ele>679.7893066</ele>
        <time>2014-05-07T08:24:52Z</time>
      </trkpt>
      <trkpt lat="44.32032" lon="2.64623">
        <ele>678.3474121</ele>
        <time>2014-05-07T08:24:58Z</time>
      </trkpt>
      <trkpt lat="44.32014" lon="2.64626">
        <ele>677.8666992</ele>
        <time>2014-05-07T08:25:04Z</time>
      </trkpt>
      <trkpt lat="44.32005" lon="2.64626">
        <ele>676.9055176</ele>
        <time>2014-05-07T08:25:07Z</time>
      </trkpt>
      <trkpt lat="44.31993" lon="2.6462">
        <ele>675.4633789</ele>
        <time>2014-05-07T08:25:11Z</time>
      </trkpt>
      <trkpt lat="44.31976" lon="2.64617">
        <ele>673.5410156</ele>
        <time>2014-05-07T08:25:17Z</time>
      </trkpt>
      <trkpt lat="44.31962" lon="2.64613">
        <ele>671.1376953</ele>
        <time>2014-05-07T08:25:22Z</time>
      </trkpt>
      <trkpt lat="44.31945" lon="2.64608">
        <ele>669.6958008</ele>
        <time>2014-05-07T08:25:28Z</time>
      </trkpt>
      <trkpt lat="44.31931" lon="2.64607">
        <ele>668.734375</ele>
        <time>2014-05-07T08:25:33Z</time>
      </trkpt>
      <trkpt lat="44.31916" lon="2.6461">
        <ele>666.8115234</ele>
        <time>2014-05-07T08:25:38Z</time>
      </trkpt>
      <trkpt lat="44.31908" lon="2.64611">
        <ele>665.8503418</ele>
        <time>2014-05-07T08:25:41Z</time>
      </trkpt>
      <trkpt lat="44.3189" lon="2.64614">
        <ele>664.4082031</ele>
        <time>2014-05-07T08:25:47Z</time>
      </trkpt>
      <trkpt lat="44.31874" lon="2.64613">
        <ele>664.4082031</ele>
        <time>2014-05-07T08:25:53Z</time>
      </trkpt>
      <trkpt lat="44.31861" lon="2.64605">
        <ele>663.4470215</ele>
        <time>2014-05-07T08:25:58Z</time>
      </trkpt>
      <trkpt lat="44.31849" lon="2.64588">
        <ele>663.4470215</ele>
        <time>2014-05-07T08:26:04Z</time>
      </trkpt>
      <trkpt lat="44.31838" lon="2.64569">
        <ele>663.4470215</ele>
        <time>2014-05-07T08:26:10Z</time>
      </trkpt>
      <trkpt lat="44.31827" lon="2.64553">
        <ele>663.4470215</ele>
        <time>2014-05-07T08:26:16Z</time>
      </trkpt>
      <trkpt lat="44.31811" lon="2.64536">
        <ele>662.9663086</ele>
        <time>2014-05-07T08:26:23Z</time>
      </trkpt>
      <trkpt lat="44.31797" lon="2.64526">
        <ele>662.4855957</ele>
        <time>2014-05-07T08:26:29Z</time>
      </trkpt>
      <trkpt lat="44.31787" lon="2.6452">
        <ele>661.5244141</ele>
        <time>2014-05-07T08:26:33Z</time>
      </trkpt>
      <trkpt lat="44.31774" lon="2.64517">
        <ele>660.5629883</ele>
        <time>2014-05-07T08:26:38Z</time>
      </trkpt>
      <trkpt lat="44.31757" lon="2.64515">
        <ele>660.0822754</ele>
        <time>2014-05-07T08:26:44Z</time>
      </trkpt>
      <trkpt lat="44.31741" lon="2.64514">
        <ele>658.1599121</ele>
        <time>2014-05-07T08:26:50Z</time>
      </trkpt>
      <trkpt lat="44.31726" lon="2.64514">
        <ele>657.1984863</ele>
        <time>2014-05-07T08:26:55Z</time>
      </trkpt>
      <trkpt lat="44.31712" lon="2.64513">
        <ele>655.7565918</ele>
        <time>2014-05-07T08:27:00Z</time>
      </trkpt>
      <trkpt lat="44.31701" lon="2.64511">
        <ele>654.3146973</ele>
        <time>2014-05-07T08:27:04Z</time>
      </trkpt>
      <trkpt lat="44.3169" lon="2.64509">
        <ele>652.3918457</ele>
        <time>2014-05-07T08:27:08Z</time>
      </trkpt>
      <trkpt lat="44.31675" lon="2.64507">
        <ele>649.5078125</ele>
        <time>2014-05-07T08:27:13Z</time>
      </trkpt>
      <trkpt lat="44.31662" lon="2.64498">
        <ele>647.1044922</ele>
        <time>2014-05-07T08:27:18Z</time>
      </trkpt>
      <trkpt lat="44.31653" lon="2.64489">
        <ele>645.6625977</ele>
        <time>2014-05-07T08:27:22Z</time>
      </trkpt>
      <trkpt lat="44.31644" lon="2.64484">
        <ele>644.7011719</ele>
        <time>2014-05-07T08:27:25Z</time>
      </trkpt>
      <trkpt lat="44.3163" lon="2.6449">
        <ele>642.7788086</ele>
        <time>2014-05-07T08:27:30Z</time>
      </trkpt>
      <trkpt lat="44.31628" lon="2.64493">
        <ele>642.7788086</ele>
        <time>2014-05-07T08:27:31Z</time>
      </trkpt>
      <trkpt lat="44.31619" lon="2.64511">
        <ele>640.855957</ele>
        <time>2014-05-07T08:27:36Z</time>
      </trkpt>
      <trkpt lat="44.3161" lon="2.64528">
        <ele>639.4140625</ele>
        <time>2014-05-07T08:27:41Z</time>
      </trkpt>
      <trkpt lat="44.31602" lon="2.64539">
        <ele>638.9335938</ele>
        <time>2014-05-07T08:27:45Z</time>
      </trkpt>
      <trkpt lat="44.31592" lon="2.64554">
        <ele>638.9335938</ele>
        <time>2014-05-07T08:27:50Z</time>
      </trkpt>
      <trkpt lat="44.31585" lon="2.64562">
        <ele>639.4140625</ele>
        <time>2014-05-07T08:27:53Z</time>
      </trkpt>
      <trkpt lat="44.31572" lon="2.64575">
        <ele>639.8947754</ele>
        <time>2014-05-07T08:27:59Z</time>
      </trkpt>
      <trkpt lat="44.31568" lon="2.64589">
        <ele>639.8947754</ele>
        <time>2014-05-07T08:28:03Z</time>
      </trkpt>
      <trkpt lat="44.31569" lon="2.64605">
        <ele>637.972168</ele>
        <time>2014-05-07T08:28:08Z</time>
      </trkpt>
      <trkpt lat="44.31569" lon="2.64625">
        <ele>637.972168</ele>
        <time>2014-05-07T08:28:14Z</time>
      </trkpt>
      <trkpt lat="44.31569" lon="2.64634">
        <ele>638.4528809</ele>
        <time>2014-05-07T08:28:17Z</time>
      </trkpt>
      <trkpt lat="44.31566" lon="2.64648">
        <ele>639.8947754</ele>
        <time>2014-05-07T08:28:22Z</time>
      </trkpt>
      <trkpt lat="44.31563" lon="2.64657">
        <ele>642.2980957</ele>
        <time>2014-05-07T08:28:25Z</time>
      </trkpt>
      <trkpt lat="44.31556" lon="2.64671">
        <ele>643.2592773</ele>
        <time>2014-05-07T08:28:31Z</time>
      </trkpt>
      <trkpt lat="44.31546" lon="2.64686">
        <ele>644.2207031</ele>
        <time>2014-05-07T08:28:38Z</time>
      </trkpt>
      <trkpt lat="44.31542" lon="2.64699">
        <ele>645.1818848</ele>
        <time>2014-05-07T08:28:43Z</time>
      </trkpt>
      <trkpt lat="44.31543" lon="2.64713">
        <ele>645.1818848</ele>
        <time>2014-05-07T08:28:48Z</time>
      </trkpt>
      <trkpt lat="44.31548" lon="2.64726">
        <ele>646.6240234</ele>
        <time>2014-05-07T08:28:53Z</time>
      </trkpt>
      <trkpt lat="44.31551" lon="2.64737">
        <ele>648.5463867</ele>
        <time>2014-05-07T08:28:57Z</time>
      </trkpt>
      <trkpt lat="44.31556" lon="2.64748">
        <ele>650.949707</ele>
        <time>2014-05-07T08:29:02Z</time>
      </trkpt>
      <trkpt lat="44.31561" lon="2.64763">
        <ele>652.8725586</ele>
        <time>2014-05-07T08:29:08Z</time>
      </trkpt>
      <trkpt lat="44.31563" lon="2.6478">
        <ele>654.795166</ele>
        <time>2014-05-07T08:29:14Z</time>
      </trkpt>
      <trkpt lat="44.31565" lon="2.64794">
        <ele>655.7565918</ele>
        <time>2014-05-07T08:29:19Z</time>
      </trkpt>
      <trkpt lat="44.31566" lon="2.64807">
        <ele>656.7177734</ele>
        <time>2014-05-07T08:29:24Z</time>
      </trkpt>
      <trkpt lat="44.31567" lon="2.64825">
        <ele>657.6791992</ele>
        <time>2014-05-07T08:29:30Z</time>
      </trkpt>
      <trkpt lat="44.31568" lon="2.64846">
        <ele>659.1210938</ele>
        <time>2014-05-07T08:29:37Z</time>
      </trkpt>
      <trkpt lat="44.31567" lon="2.64855">
        <ele>660.5629883</ele>
        <time>2014-05-07T08:29:40Z</time>
      </trkpt>
      <trkpt lat="44.3157" lon="2.64874">
        <ele>662.9663086</ele>
        <time>2014-05-07T08:29:47Z</time>
      </trkpt>
      <trkpt lat="44.31571" lon="2.64881">
        <ele>662.4855957</ele>
        <time>2014-05-07T08:29:50Z</time>
      </trkpt>
      <trkpt lat="44.31577" lon="2.64899">
        <ele>663.9274902</ele>
        <time>2014-05-07T08:29:57Z</time>
      </trkpt>
      <trkpt lat="44.31577" lon="2.64915">
        <ele>665.3696289</ele>
        <time>2014-05-07T08:30:02Z</time>
      </trkpt>
      <trkpt lat="44.31578" lon="2.64918">
        <ele>665.8503418</ele>
        <time>2014-05-07T08:30:03Z</time>
      </trkpt>
      <trkpt lat="44.31577" lon="2.64935">
        <ele>665.8503418</ele>
        <time>2014-05-07T08:30:09Z</time>
      </trkpt>
      <trkpt lat="44.31577" lon="2.6495">
        <ele>667.2922363</ele>
        <time>2014-05-07T08:30:14Z</time>
      </trkpt>
      <trkpt lat="44.31578" lon="2.64967">
        <ele>669.6958008</ele>
        <time>2014-05-07T08:30:20Z</time>
      </trkpt>
      <trkpt lat="44.31576" lon="2.64986">
        <ele>671.6181641</ele>
        <time>2014-05-07T08:30:26Z</time>
      </trkpt>
      <trkpt lat="44.31572" lon="2.65001">
        <ele>673.5410156</ele>
        <time>2014-05-07T08:30:31Z</time>
      </trkpt>
      <trkpt lat="44.31562" lon="2.65017">
        <ele>675.9440918</ele>
        <time>2014-05-07T08:30:37Z</time>
      </trkpt>
      <trkpt lat="44.31549" lon="2.65031">
        <ele>678.3474121</ele>
        <time>2014-05-07T08:30:44Z</time>
      </trkpt>
      <trkpt lat="44.31535" lon="2.65042">
        <ele>678.828125</ele>
        <time>2014-05-07T08:30:50Z</time>
      </trkpt>
      <trkpt lat="44.3152" lon="2.65051">
        <ele>680.7507324</ele>
        <time>2014-05-07T08:30:57Z</time>
      </trkpt>
      <trkpt lat="44.31507" lon="2.65056">
        <ele>682.192627</ele>
        <time>2014-05-07T08:31:03Z</time>
      </trkpt>
      <trkpt lat="44.31491" lon="2.65061">
        <ele>684.5961914</ele>
        <time>2014-05-07T08:31:10Z</time>
      </trkpt>
      <trkpt lat="44.3148" lon="2.65064">
        <ele>685.557373</ele>
        <time>2014-05-07T08:31:15Z</time>
      </trkpt>
      <trkpt lat="44.31467" lon="2.65069">
        <ele>686.0380859</ele>
        <time>2014-05-07T08:31:22Z</time>
      </trkpt>
      <trkpt lat="44.31456" lon="2.65079">
        <ele>687.9606934</ele>
        <time>2014-05-07T08:31:28Z</time>
      </trkpt>
      <trkpt lat="44.31446" lon="2.65082">
        <ele>688.4414063</ele>
        <time>2014-05-07T08:31:33Z</time>
      </trkpt>
      <trkpt lat="44.31441" lon="2.65083">
        <ele>688.9221191</ele>
        <time>2014-05-07T08:31:38Z</time>
      </trkpt>
      <trkpt lat="44.31437" lon="2.65084">
        <ele>689.4025879</ele>
        <time>2014-05-07T08:31:40Z</time>
      </trkpt>
      <trkpt lat="44.31432" lon="2.65087">
        <ele>689.8833008</ele>
        <time>2014-05-07T08:31:46Z</time>
      </trkpt>
      <trkpt lat="44.31427" lon="2.6509">
        <ele>691.3251953</ele>
        <time>2014-05-07T08:31:52Z</time>
      </trkpt>
      <trkpt lat="44.31424" lon="2.65092">
        <ele>691.3251953</ele>
        <time>2014-05-07T08:31:54Z</time>
      </trkpt>
      <trkpt lat="44.31416" lon="2.651">
        <ele>692.2866211</ele>
        <time>2014-05-07T08:31:59Z</time>
      </trkpt>
      <trkpt lat="44.3141" lon="2.65106">
        <ele>692.767334</ele>
        <time>2014-05-07T08:32:03Z</time>
      </trkpt>
      <trkpt lat="44.31402" lon="2.65114">
        <ele>693.2478027</ele>
        <time>2014-05-07T08:32:07Z</time>
      </trkpt>
      <trkpt lat="44.314" lon="2.65116">
        <ele>692.767334</ele>
        <time>2014-05-07T08:32:08Z</time>
      </trkpt>
      <trkpt lat="44.31388" lon="2.65133">
        <ele>693.7285156</ele>
        <time>2014-05-07T08:32:15Z</time>
      </trkpt>
      <trkpt lat="44.31386" lon="2.65135">
        <ele>693.2478027</ele>
        <time>2014-05-07T08:32:16Z</time>
      </trkpt>
      <trkpt lat="44.31377" lon="2.65147">
        <ele>694.2092285</ele>
        <time>2014-05-07T08:32:21Z</time>
      </trkpt>
      <trkpt lat="44.31365" lon="2.65166">
        <ele>695.1704102</ele>
        <time>2014-05-07T08:32:28Z</time>
      </trkpt>
      <trkpt lat="44.31364" lon="2.65167">
        <ele>695.1704102</ele>
        <time>2014-05-07T08:32:32Z</time>
      </trkpt>
      <trkpt lat="44.31361" lon="2.65171">
        <ele>694.6896973</ele>
        <time>2014-05-07T08:32:36Z</time>
      </trkpt>
      <trkpt lat="44.3135" lon="2.65185">
        <ele>693.7285156</ele>
        <time>2014-05-07T08:32:42Z</time>
      </trkpt>
      <trkpt lat="44.3134" lon="2.65196">
        <ele>692.2866211</ele>
        <time>2014-05-07T08:32:47Z</time>
      </trkpt>
      <trkpt lat="44.31326" lon="2.65211">
        <ele>691.8059082</ele>
        <time>2014-05-07T08:32:53Z</time>
      </trkpt>
      <trkpt lat="44.31314" lon="2.65224">
        <ele>691.3251953</ele>
        <time>2014-05-07T08:32:58Z</time>
      </trkpt>
      <trkpt lat="44.31301" lon="2.65238">
        <ele>690.8444824</ele>
        <time>2014-05-07T08:33:04Z</time>
      </trkpt>
      <trkpt lat="44.3129" lon="2.65251">
        <ele>689.4025879</ele>
        <time>2014-05-07T08:33:09Z</time>
      </trkpt>
      <trkpt lat="44.31279" lon="2.65266">
        <ele>687.9606934</ele>
        <time>2014-05-07T08:33:14Z</time>
      </trkpt>
      <trkpt lat="44.31269" lon="2.65278">
        <ele>686.0380859</ele>
        <time>2014-05-07T08:33:18Z</time>
      </trkpt>
      <trkpt lat="44.31255" lon="2.65296">
        <ele>683.6345215</ele>
        <time>2014-05-07T08:33:24Z</time>
      </trkpt>
      <trkpt lat="44.3124" lon="2.65312">
        <ele>681.2314453</ele>
        <time>2014-05-07T08:33:30Z</time>
      </trkpt>
      <trkpt lat="44.31226" lon="2.65325">
        <ele>679.7893066</ele>
        <time>2014-05-07T08:33:35Z</time>
      </trkpt>
      <trkpt lat="44.31217" lon="2.65336">
        <ele>678.3474121</ele>
        <time>2014-05-07T08:33:39Z</time>
      </trkpt>
      <trkpt lat="44.31206" lon="2.65351">
        <ele>676.9055176</ele>
        <time>2014-05-07T08:33:44Z</time>
      </trkpt>
      <trkpt lat="44.31198" lon="2.6536">
        <ele>675.9440918</ele>
        <time>2014-05-07T08:33:47Z</time>
      </trkpt>
      <trkpt lat="44.31188" lon="2.65371">
        <ele>674.5021973</ele>
        <time>2014-05-07T08:33:51Z</time>
      </trkpt>
      <trkpt lat="44.31177" lon="2.65375">
        <ele>672.5795898</ele>
        <time>2014-05-07T08:33:55Z</time>
      </trkpt>
      <trkpt lat="44.31166" lon="2.65376">
        <ele>669.6958008</ele>
        <time>2014-05-07T08:33:59Z</time>
      </trkpt>
      <trkpt lat="44.31154" lon="2.65378">
        <ele>667.2922363</ele>
        <time>2014-05-07T08:34:03Z</time>
      </trkpt>
      <trkpt lat="44.3114" lon="2.65376">
        <ele>664.888916</ele>
        <time>2014-05-07T08:34:08Z</time>
      </trkpt>
      <trkpt lat="44.31126" lon="2.65373">
        <ele>663.9274902</ele>
        <time>2014-05-07T08:34:13Z</time>
      </trkpt>
      <trkpt lat="44.31114" lon="2.65368">
        <ele>662.4855957</ele>
        <time>2014-05-07T08:34:18Z</time>
      </trkpt>
      <trkpt lat="44.31108" lon="2.65366">
        <ele>662.005127</ele>
        <time>2014-05-07T08:34:20Z</time>
      </trkpt>
      <trkpt lat="44.3109" lon="2.65368">
        <ele>662.4855957</ele>
        <time>2014-05-07T08:34:26Z</time>
      </trkpt>
      <trkpt lat="44.31087" lon="2.65368">
        <ele>662.4855957</ele>
        <time>2014-05-07T08:34:27Z</time>
      </trkpt>
      <trkpt lat="44.3107" lon="2.65373">
        <ele>658.6403809</ele>
        <time>2014-05-07T08:34:33Z</time>
      </trkpt>
      <trkpt lat="44.31058" lon="2.65378">
        <ele>656.7177734</ele>
        <time>2014-05-07T08:34:37Z</time>
      </trkpt>
      <trkpt lat="44.31042" lon="2.65387">
        <ele>653.3532715</ele>
        <time>2014-05-07T08:34:43Z</time>
      </trkpt>
      <trkpt lat="44.3103" lon="2.65395">
        <ele>654.3146973</ele>
        <time>2014-05-07T08:34:47Z</time>
      </trkpt>
      <trkpt lat="44.31019" lon="2.654">
        <ele>653.8339844</ele>
        <time>2014-05-07T08:34:51Z</time>
      </trkpt>
      <trkpt lat="44.31008" lon="2.65408">
        <ele>650.949707</ele>
        <time>2014-05-07T08:34:56Z</time>
      </trkpt>
      <trkpt lat="44.30998" lon="2.65415">
        <ele>647.5852051</ele>
        <time>2014-05-07T08:35:00Z</time>
      </trkpt>
      <trkpt lat="44.30982" lon="2.65426">
        <ele>642.7788086</ele>
        <time>2014-05-07T08:35:07Z</time>
      </trkpt>
      <trkpt lat="44.30972" lon="2.65436">
        <ele>638.9335938</ele>
        <time>2014-05-07T08:35:11Z</time>
      </trkpt>
      <trkpt lat="44.3097" lon="2.65437">
        <ele>637.4914551</ele>
        <time>2014-05-07T08:35:12Z</time>
      </trkpt>
      <trkpt lat="44.30959" lon="2.65441">
        <ele>635.0881348</ele>
        <time>2014-05-07T08:35:17Z</time>
      </trkpt>
      <trkpt lat="44.30944" lon="2.65447">
        <ele>630.762207</ele>
        <time>2014-05-07T08:35:24Z</time>
      </trkpt>
      <trkpt lat="44.30931" lon="2.65451">
        <ele>629.3200684</ele>
        <time>2014-05-07T08:35:29Z</time>
      </trkpt>
      <trkpt lat="44.30929" lon="2.65451">
        <ele>629.3200684</ele>
        <time>2014-05-07T08:35:30Z</time>
      </trkpt>
      <trkpt lat="44.30923" lon="2.65458">
        <ele>628.8395996</ele>
        <time>2014-05-07T08:35:34Z</time>
      </trkpt>
      <trkpt lat="44.30915" lon="2.65477">
        <ele>628.3588867</ele>
        <time>2014-05-07T08:35:39Z</time>
      </trkpt>
      <trkpt lat="44.30906" lon="2.65491">
        <ele>626.9169922</ele>
        <time>2014-05-07T08:35:44Z</time>
      </trkpt>
      <trkpt lat="44.30893" lon="2.65502">
        <ele>626.9169922</ele>
        <time>2014-05-07T08:35:50Z</time>
      </trkpt>
      <trkpt lat="44.30883" lon="2.65509">
        <ele>626.9169922</ele>
        <time>2014-05-07T08:35:54Z</time>
      </trkpt>
      <trkpt lat="44.30881" lon="2.65522">
        <ele>625.9555664</ele>
        <time>2014-05-07T08:35:59Z</time>
      </trkpt>
      <trkpt lat="44.30885" lon="2.65529">
        <ele>626.4362793</ele>
        <time>2014-05-07T08:36:03Z</time>
      </trkpt>
      <trkpt lat="44.30895" lon="2.65535">
        <ele>626.4362793</ele>
        <time>2014-05-07T08:36:09Z</time>
      </trkpt>
      <trkpt lat="44.30905" lon="2.65536">
        <ele>629.8007813</ele>
        <time>2014-05-07T08:36:15Z</time>
      </trkpt>
      <trkpt lat="44.30915" lon="2.65537">
        <ele>633.1652832</ele>
        <time>2014-05-07T08:36:21Z</time>
      </trkpt>
      <trkpt lat="44.30927" lon="2.65539">
        <ele>636.5302734</ele>
        <time>2014-05-07T08:36:28Z</time>
      </trkpt>
      <trkpt lat="44.30938" lon="2.65541">
        <ele>638.9335938</ele>
        <time>2014-05-07T08:36:34Z</time>
      </trkpt>
      <trkpt lat="44.3095" lon="2.65544">
        <ele>641.8173828</ele>
        <time>2014-05-07T08:36:40Z</time>
      </trkpt>
      <trkpt lat="44.30961" lon="2.65546">
        <ele>644.2207031</ele>
        <time>2014-05-07T08:36:46Z</time>
      </trkpt>
      <trkpt lat="44.30972" lon="2.65548">
        <ele>644.2207031</ele>
        <time>2014-05-07T08:36:52Z</time>
      </trkpt>
      <trkpt lat="44.30984" lon="2.65551">
        <ele>646.1433105</ele>
        <time>2014-05-07T08:36:58Z</time>
      </trkpt>
      <trkpt lat="44.30997" lon="2.65556">
        <ele>646.6240234</ele>
        <time>2014-05-07T08:37:04Z</time>
      </trkpt>
      <trkpt lat="44.31008" lon="2.6556">
        <ele>645.6625977</ele>
        <time>2014-05-07T08:37:09Z</time>
      </trkpt>
      <trkpt lat="44.3102" lon="2.65565">
        <ele>647.5852051</ele>
        <time>2014-05-07T08:37:15Z</time>
      </trkpt>
      <trkpt lat="44.31032" lon="2.6557">
        <ele>647.5852051</ele>
        <time>2014-05-07T08:37:21Z</time>
      </trkpt>
      <trkpt lat="44.31044" lon="2.65581">
        <ele>650.949707</ele>
        <time>2014-05-07T08:37:28Z</time>
      </trkpt>
      <trkpt lat="44.31045" lon="2.65583">
        <ele>650.4692383</ele>
        <time>2014-05-07T08:37:29Z</time>
      </trkpt>
      <trkpt lat="44.31058" lon="2.65591">
        <ele>651.9111328</ele>
        <time>2014-05-07T08:37:35Z</time>
      </trkpt>
      <trkpt lat="44.31066" lon="2.65599">
        <ele>651.9111328</ele>
        <time>2014-05-07T08:37:40Z</time>
      </trkpt>
      <trkpt lat="44.31081" lon="2.65611">
        <ele>653.8339844</ele>
        <time>2014-05-07T08:37:48Z</time>
      </trkpt>
      <trkpt lat="44.31091" lon="2.6562">
        <ele>654.3146973</ele>
        <time>2014-05-07T08:37:54Z</time>
      </trkpt>
      <trkpt lat="44.31099" lon="2.65628">
        <ele>653.8339844</ele>
        <time>2014-05-07T08:37:59Z</time>
      </trkpt>
      <trkpt lat="44.3111" lon="2.65639">
        <ele>656.2370605</ele>
        <time>2014-05-07T08:38:05Z</time>
      </trkpt>
      <trkpt lat="44.31119" lon="2.65647">
        <ele>658.1599121</ele>
        <time>2014-05-07T08:38:10Z</time>
      </trkpt>
      <trkpt lat="44.3113" lon="2.65658">
        <ele>660.5629883</ele>
        <time>2014-05-07T08:38:16Z</time>
      </trkpt>
      <trkpt lat="44.31138" lon="2.65668">
        <ele>662.9663086</ele>
        <time>2014-05-07T08:38:21Z</time>
      </trkpt>
      <trkpt lat="44.31145" lon="2.6568">
        <ele>664.888916</ele>
        <time>2014-05-07T08:38:26Z</time>
      </trkpt>
      <trkpt lat="44.3115" lon="2.65693">
        <ele>665.8503418</ele>
        <time>2014-05-07T08:38:31Z</time>
      </trkpt>
      <trkpt lat="44.31154" lon="2.6571">
        <ele>667.2922363</ele>
        <time>2014-05-07T08:38:37Z</time>
      </trkpt>
      <trkpt lat="44.31157" lon="2.65726">
        <ele>667.7727051</ele>
        <time>2014-05-07T08:38:43Z</time>
      </trkpt>
      <trkpt lat="44.31161" lon="2.6574">
        <ele>668.2536621</ele>
        <time>2014-05-07T08:38:48Z</time>
      </trkpt>
      <trkpt lat="44.31167" lon="2.65752">
        <ele>668.2536621</ele>
        <time>2014-05-07T08:38:53Z</time>
      </trkpt>
      <trkpt lat="44.31168" lon="2.65755">
        <ele>668.2536621</ele>
        <time>2014-05-07T08:38:54Z</time>
      </trkpt>
      <trkpt lat="44.31173" lon="2.65763">
        <ele>669.2150879</ele>
        <time>2014-05-07T08:38:58Z</time>
      </trkpt>
      <trkpt lat="44.31181" lon="2.65777">
        <ele>670.6569824</ele>
        <time>2014-05-07T08:39:04Z</time>
      </trkpt>
      <trkpt lat="44.31188" lon="2.6579">
        <ele>671.1376953</ele>
        <time>2014-05-07T08:39:09Z</time>
      </trkpt>
      <trkpt lat="44.31191" lon="2.65801">
        <ele>672.098877</ele>
        <time>2014-05-07T08:39:13Z</time>
      </trkpt>
      <trkpt lat="44.31191" lon="2.65822">
        <ele>674.5021973</ele>
        <time>2014-05-07T08:39:20Z</time>
      </trkpt>
      <trkpt lat="44.3119" lon="2.6584">
        <ele>675.9440918</ele>
        <time>2014-05-07T08:39:26Z</time>
      </trkpt>
      <trkpt lat="44.31191" lon="2.65856">
        <ele>678.3474121</ele>
        <time>2014-05-07T08:39:31Z</time>
      </trkpt>
      <trkpt lat="44.31189" lon="2.65878">
        <ele>681.2314453</ele>
        <time>2014-05-07T08:39:38Z</time>
      </trkpt>
      <trkpt lat="44.31191" lon="2.65897">
        <ele>682.6733398</ele>
        <time>2014-05-07T08:39:44Z</time>
      </trkpt>
      <trkpt lat="44.31193" lon="2.65909">
        <ele>683.1538086</ele>
        <time>2014-05-07T08:39:48Z</time>
      </trkpt>
      <trkpt lat="44.31193" lon="2.65924">
        <ele>682.6733398</ele>
        <time>2014-05-07T08:39:53Z</time>
      </trkpt>
      <trkpt lat="44.31192" lon="2.6593">
        <ele>683.1538086</ele>
        <time>2014-05-07T08:39:55Z</time>
      </trkpt>
      <trkpt lat="44.3119" lon="2.6595">
        <ele>686.0380859</ele>
        <time>2014-05-07T08:40:02Z</time>
      </trkpt>
      <trkpt lat="44.31193" lon="2.65969">
        <ele>687.4799805</ele>
        <time>2014-05-07T08:40:08Z</time>
      </trkpt>
      <trkpt lat="44.31194" lon="2.65975">
        <ele>688.4414063</ele>
        <time>2014-05-07T08:40:10Z</time>
      </trkpt>
      <trkpt lat="44.31199" lon="2.65984">
        <ele>689.8833008</ele>
        <time>2014-05-07T08:40:14Z</time>
      </trkpt>
      <trkpt lat="44.31209" lon="2.65996">
        <ele>690.3640137</ele>
        <time>2014-05-07T08:40:20Z</time>
      </trkpt>
      <trkpt lat="44.31217" lon="2.66008">
        <ele>691.8059082</ele>
        <time>2014-05-07T08:40:25Z</time>
      </trkpt>
      <trkpt lat="44.31226" lon="2.66022">
        <ele>692.767334</ele>
        <time>2014-05-07T08:40:31Z</time>
      </trkpt>
      <trkpt lat="44.31234" lon="2.66031">
        <ele>694.2092285</ele>
        <time>2014-05-07T08:40:36Z</time>
      </trkpt>
      <trkpt lat="44.31245" lon="2.66043">
        <ele>694.6896973</ele>
        <time>2014-05-07T08:40:42Z</time>
      </trkpt>
      <trkpt lat="44.31255" lon="2.66052">
        <ele>694.6896973</ele>
        <time>2014-05-07T08:40:48Z</time>
      </trkpt>
      <trkpt lat="44.31264" lon="2.66057">
        <ele>693.7285156</ele>
        <time>2014-05-07T08:40:52Z</time>
      </trkpt>
      <trkpt lat="44.31266" lon="2.66057">
        <ele>693.7285156</ele>
        <time>2014-05-07T08:40:53Z</time>
      </trkpt>
      <trkpt lat="44.31275" lon="2.66057">
        <ele>695.1704102</ele>
        <time>2014-05-07T08:40:58Z</time>
      </trkpt>
      <trkpt lat="44.31285" lon="2.66064">
        <ele>695.1704102</ele>
        <time>2014-05-07T08:41:03Z</time>
      </trkpt>
      <trkpt lat="44.31289" lon="2.66068">
        <ele>695.1704102</ele>
        <time>2014-05-07T08:41:05Z</time>
      </trkpt>
      <trkpt lat="44.31293" lon="2.66077">
        <ele>696.1318359</ele>
        <time>2014-05-07T08:41:10Z</time>
      </trkpt>
      <trkpt lat="44.31297" lon="2.66084">
        <ele>697.0930176</ele>
        <time>2014-05-07T08:41:14Z</time>
      </trkpt>
      <trkpt lat="44.31303" lon="2.66094">
        <ele>696.6125488</ele>
        <time>2014-05-07T08:41:18Z</time>
      </trkpt>
      <trkpt lat="44.31307" lon="2.66105">
        <ele>696.1318359</ele>
        <time>2014-05-07T08:41:22Z</time>
      </trkpt>
      <trkpt lat="44.31311" lon="2.66112">
        <ele>696.1318359</ele>
        <time>2014-05-07T08:41:26Z</time>
      </trkpt>
      <trkpt lat="44.31317" lon="2.66129">
        <ele>698.0544434</ele>
        <time>2014-05-07T08:41:33Z</time>
      </trkpt>
      <trkpt lat="44.31319" lon="2.66144">
        <ele>700.4580078</ele>
        <time>2014-05-07T08:41:38Z</time>
      </trkpt>
      <trkpt lat="44.31323" lon="2.66156">
        <ele>702.861084</ele>
        <time>2014-05-07T08:41:43Z</time>
      </trkpt>
      <trkpt lat="44.31324" lon="2.6616">
        <ele>703.3417969</ele>
        <time>2014-05-07T08:41:45Z</time>
      </trkpt>
      <trkpt lat="44.31331" lon="2.66178">
        <ele>706.7062988</ele>
        <time>2014-05-07T08:41:51Z</time>
      </trkpt>
      <trkpt lat="44.31332" lon="2.6619">
        <ele>708.6289063</ele>
        <time>2014-05-07T08:41:55Z</time>
      </trkpt>
      <trkpt lat="44.31335" lon="2.662">
        <ele>709.590332</ele>
        <time>2014-05-07T08:41:59Z</time>
      </trkpt>
      <trkpt lat="44.31339" lon="2.66216">
        <ele>711.5129395</ele>
        <time>2014-05-07T08:42:05Z</time>
      </trkpt>
      <trkpt lat="44.3134" lon="2.66224">
        <ele>712.954834</ele>
        <time>2014-05-07T08:42:08Z</time>
      </trkpt>
      <trkpt lat="44.31348" lon="2.66239">
        <ele>715.8388672</ele>
        <time>2014-05-07T08:42:14Z</time>
      </trkpt>
      <trkpt lat="44.31349" lon="2.66241">
        <ele>716.3195801</ele>
        <time>2014-05-07T08:42:15Z</time>
      </trkpt>
      <trkpt lat="44.31357" lon="2.66252">
        <ele>718.2421875</ele>
        <time>2014-05-07T08:42:20Z</time>
      </trkpt>
      <trkpt lat="44.31366" lon="2.66262">
        <ele>718.7229004</ele>
        <time>2014-05-07T08:42:25Z</time>
      </trkpt>
      <trkpt lat="44.31372" lon="2.66272">
        <ele>717.2810059</ele>
        <time>2014-05-07T08:42:29Z</time>
      </trkpt>
      <trkpt lat="44.3138" lon="2.66284">
        <ele>716.3195801</ele>
        <time>2014-05-07T08:42:34Z</time>
      </trkpt>
      <trkpt lat="44.31383" lon="2.66298">
        <ele>718.7229004</ele>
        <time>2014-05-07T08:42:39Z</time>
      </trkpt>
      <trkpt lat="44.31383" lon="2.66303">
        <ele>720.6455078</ele>
        <time>2014-05-07T08:42:41Z</time>
      </trkpt>
      <trkpt lat="44.31382" lon="2.66318">
        <ele>724.4907227</ele>
        <time>2014-05-07T08:42:47Z</time>
      </trkpt>
      <trkpt lat="44.31387" lon="2.6633">
        <ele>727.8552246</ele>
        <time>2014-05-07T08:42:52Z</time>
      </trkpt>
      <trkpt lat="44.31389" lon="2.66335">
        <ele>727.8552246</ele>
        <time>2014-05-07T08:42:54Z</time>
      </trkpt>
      <trkpt lat="44.31391" lon="2.66342">
        <ele>729.777832</ele>
        <time>2014-05-07T08:42:57Z</time>
      </trkpt>
      <trkpt lat="44.31399" lon="2.66352">
        <ele>730.7392578</ele>
        <time>2014-05-07T08:43:04Z</time>
      </trkpt>
      <trkpt lat="44.31402" lon="2.66356">
        <ele>731.7004395</ele>
        <time>2014-05-07T08:43:06Z</time>
      </trkpt>
      <trkpt lat="44.3141" lon="2.66364">
        <ele>733.623291</ele>
        <time>2014-05-07T08:43:12Z</time>
      </trkpt>
      <trkpt lat="44.31412" lon="2.66365">
        <ele>733.623291</ele>
        <time>2014-05-07T08:43:13Z</time>
      </trkpt>
      <trkpt lat="44.31416" lon="2.66367">
        <ele>734.1040039</ele>
        <time>2014-05-07T08:43:15Z</time>
      </trkpt>
      <trkpt lat="44.31427" lon="2.66373">
        <ele>736.5073242</ele>
        <time>2014-05-07T08:43:21Z</time>
      </trkpt>
      <trkpt lat="44.31439" lon="2.66375">
        <ele>737.4685059</ele>
        <time>2014-05-07T08:43:27Z</time>
      </trkpt>
      <trkpt lat="44.3145" lon="2.66376">
        <ele>738.9106445</ele>
        <time>2014-05-07T08:43:32Z</time>
      </trkpt>
      <trkpt lat="44.31461" lon="2.66382">
        <ele>740.3525391</ele>
        <time>2014-05-07T08:43:38Z</time>
      </trkpt>
      <trkpt lat="44.31471" lon="2.6639">
        <ele>741.7944336</ele>
        <time>2014-05-07T08:43:44Z</time>
      </trkpt>
      <trkpt lat="44.31479" lon="2.66398">
        <ele>742.2751465</ele>
        <time>2014-05-07T08:43:48Z</time>
      </trkpt>
      <trkpt lat="44.31489" lon="2.66406">
        <ele>743.717041</ele>
        <time>2014-05-07T08:43:54Z</time>
      </trkpt>
      <trkpt lat="44.31496" lon="2.66416">
        <ele>745.6396484</ele>
        <time>2014-05-07T08:43:59Z</time>
      </trkpt>
      <trkpt lat="44.31499" lon="2.66419">
        <ele>745.6396484</ele>
        <time>2014-05-07T08:44:01Z</time>
      </trkpt>
      <trkpt lat="44.31507" lon="2.66428">
        <ele>747.5622559</ele>
        <time>2014-05-07T08:44:07Z</time>
      </trkpt>
      <trkpt lat="44.31513" lon="2.66432">
        <ele>748.5236816</ele>
        <time>2014-05-07T08:44:10Z</time>
      </trkpt>
      <trkpt lat="44.31517" lon="2.66437">
        <ele>750.4465332</ele>
        <time>2014-05-07T08:44:14Z</time>
      </trkpt>
      <trkpt lat="44.31521" lon="2.66439">
        <ele>752.8496094</ele>
        <time>2014-05-07T08:44:18Z</time>
      </trkpt>
      <trkpt lat="44.31526" lon="2.66448">
        <ele>754.7722168</ele>
        <time>2014-05-07T08:44:24Z</time>
      </trkpt>
      <trkpt lat="44.31532" lon="2.66457">
        <ele>756.6948242</ele>
        <time>2014-05-07T08:44:31Z</time>
      </trkpt>
      <trkpt lat="44.31531" lon="2.66476">
        <ele>758.6174316</ele>
        <time>2014-05-07T08:44:38Z</time>
      </trkpt>
      <trkpt lat="44.31529" lon="2.66489">
        <ele>760.0593262</ele>
        <time>2014-05-07T08:44:42Z</time>
      </trkpt>
      <trkpt lat="44.31528" lon="2.66492">
        <ele>760.5400391</ele>
        <time>2014-05-07T08:44:43Z</time>
      </trkpt>
      <trkpt lat="44.31523" lon="2.66503">
        <ele>761.5014648</ele>
        <time>2014-05-07T08:44:47Z</time>
      </trkpt>
      <trkpt lat="44.31513" lon="2.66513">
        <ele>761.020752</ele>
        <time>2014-05-07T08:44:52Z</time>
      </trkpt>
      <trkpt lat="44.31499" lon="2.66519">
        <ele>760.5400391</ele>
        <time>2014-05-07T08:44:58Z</time>
      </trkpt>
      <trkpt lat="44.31487" lon="2.66522">
        <ele>760.5400391</ele>
        <time>2014-05-07T08:45:03Z</time>
      </trkpt>
      <trkpt lat="44.31473" lon="2.66531">
        <ele>760.0593262</ele>
        <time>2014-05-07T08:45:09Z</time>
      </trkpt>
      <trkpt lat="44.31465" lon="2.66545">
        <ele>760.5400391</ele>
        <time>2014-05-07T08:45:14Z</time>
      </trkpt>
      <trkpt lat="44.3146" lon="2.66566">
        <ele>761.5014648</ele>
        <time>2014-05-07T08:45:20Z</time>
      </trkpt>
      <trkpt lat="44.31461" lon="2.66585">
        <ele>762.4626465</ele>
        <time>2014-05-07T08:45:25Z</time>
      </trkpt>
      <trkpt lat="44.31469" lon="2.66604">
        <ele>763.4240723</ele>
        <time>2014-05-07T08:45:31Z</time>
      </trkpt>
      <trkpt lat="44.31479" lon="2.66615">
        <ele>764.385498</ele>
        <time>2014-05-07T08:45:36Z</time>
      </trkpt>
      <trkpt lat="44.31493" lon="2.66625">
        <ele>764.8662109</ele>
        <time>2014-05-07T08:45:42Z</time>
      </trkpt>
      <trkpt lat="44.31506" lon="2.66632">
        <ele>765.8276367</ele>
        <time>2014-05-07T08:45:47Z</time>
      </trkpt>
      <trkpt lat="44.31522" lon="2.66642">
        <ele>766.3081055</ele>
        <time>2014-05-07T08:45:53Z</time>
      </trkpt>
      <trkpt lat="44.31537" lon="2.66652">
        <ele>766.3081055</ele>
        <time>2014-05-07T08:45:59Z</time>
      </trkpt>
      <trkpt lat="44.31549" lon="2.6666">
        <ele>766.7888184</ele>
        <time>2014-05-07T08:46:04Z</time>
      </trkpt>
      <trkpt lat="44.31563" lon="2.66671">
        <ele>768.2307129</ele>
        <time>2014-05-07T08:46:10Z</time>
      </trkpt>
      <trkpt lat="44.31574" lon="2.66682">
        <ele>769.1921387</ele>
        <time>2014-05-07T08:46:15Z</time>
      </trkpt>
      <trkpt lat="44.31579" lon="2.66688">
        <ele>769.1921387</ele>
        <time>2014-05-07T08:46:18Z</time>
      </trkpt>
      <trkpt lat="44.31587" lon="2.66683">
        <ele>768.7114258</ele>
        <time>2014-05-07T08:46:22Z</time>
      </trkpt>
      <trkpt lat="44.31596" lon="2.6666">
        <ele>768.2307129</ele>
        <time>2014-05-07T08:46:29Z</time>
      </trkpt>
      <trkpt lat="44.31603" lon="2.66647">
        <ele>767.75</ele>
        <time>2014-05-07T08:46:33Z</time>
      </trkpt>
      <trkpt lat="44.31616" lon="2.66629">
        <ele>767.2695313</ele>
        <time>2014-05-07T08:46:39Z</time>
      </trkpt>
      <trkpt lat="44.31626" lon="2.66622">
        <ele>767.2695313</ele>
        <time>2014-05-07T08:46:43Z</time>
      </trkpt>
      <trkpt lat="44.31641" lon="2.66614">
        <ele>767.2695313</ele>
        <time>2014-05-07T08:46:49Z</time>
      </trkpt>
      <trkpt lat="44.31652" lon="2.66601">
        <ele>766.3081055</ele>
        <time>2014-05-07T08:46:54Z</time>
      </trkpt>
      <trkpt lat="44.31662" lon="2.66587">
        <ele>766.7888184</ele>
        <time>2014-05-07T08:46:59Z</time>
      </trkpt>
      <trkpt lat="44.31672" lon="2.66573">
        <ele>766.7888184</ele>
        <time>2014-05-07T08:47:04Z</time>
      </trkpt>
      <trkpt lat="44.3168" lon="2.66563">
        <ele>766.7888184</ele>
        <time>2014-05-07T08:47:08Z</time>
      </trkpt>
      <trkpt lat="44.31693" lon="2.66549">
        <ele>764.385498</ele>
        <time>2014-05-07T08:47:14Z</time>
      </trkpt>
      <trkpt lat="44.31705" lon="2.66531">
        <ele>762.4626465</ele>
        <time>2014-05-07T08:47:21Z</time>
      </trkpt>
      <trkpt lat="44.31717" lon="2.66509">
        <ele>762.9433594</ele>
        <time>2014-05-07T08:47:28Z</time>
      </trkpt>
      <trkpt lat="44.31727" lon="2.66496">
        <ele>763.4240723</ele>
        <time>2014-05-07T08:47:33Z</time>
      </trkpt>
      <trkpt lat="44.31741" lon="2.66483">
        <ele>764.385498</ele>
        <time>2014-05-07T08:47:39Z</time>
      </trkpt>
      <trkpt lat="44.31751" lon="2.6647">
        <ele>763.904541</ele>
        <time>2014-05-07T08:47:44Z</time>
      </trkpt>
      <trkpt lat="44.31761" lon="2.66458">
        <ele>763.904541</ele>
        <time>2014-05-07T08:47:49Z</time>
      </trkpt>
      <trkpt lat="44.31773" lon="2.66447">
        <ele>763.4240723</ele>
        <time>2014-05-07T08:47:54Z</time>
      </trkpt>
      <trkpt lat="44.31783" lon="2.66444">
        <ele>761.9821777</ele>
        <time>2014-05-07T08:47:58Z</time>
      </trkpt>
      <trkpt lat="44.31788" lon="2.66441">
        <ele>761.020752</ele>
        <time>2014-05-07T08:48:02Z</time>
      </trkpt>
      <trkpt lat="44.31801" lon="2.6643">
        <ele>759.0981445</ele>
        <time>2014-05-07T08:48:08Z</time>
      </trkpt>
      <trkpt lat="44.31809" lon="2.66417">
        <ele>757.1755371</ele>
        <time>2014-05-07T08:48:13Z</time>
      </trkpt>
      <trkpt lat="44.31815" lon="2.66392">
        <ele>755.7336426</ele>
        <time>2014-05-07T08:48:20Z</time>
      </trkpt>
      <trkpt lat="44.31817" lon="2.66375">
        <ele>754.291748</ele>
        <time>2014-05-07T08:48:25Z</time>
      </trkpt>
      <trkpt lat="44.31816" lon="2.66354">
        <ele>755.7336426</ele>
        <time>2014-05-07T08:48:30Z</time>
      </trkpt>
      <trkpt lat="44.31816" lon="2.66329">
        <ele>756.2141113</ele>
        <time>2014-05-07T08:48:36Z</time>
      </trkpt>
      <trkpt lat="44.31817" lon="2.66307">
        <ele>757.1755371</ele>
        <time>2014-05-07T08:48:41Z</time>
      </trkpt>
      <trkpt lat="44.31817" lon="2.6629">
        <ele>757.1755371</ele>
        <time>2014-05-07T08:48:45Z</time>
      </trkpt>
      <trkpt lat="44.31821" lon="2.66269">
        <ele>758.1369629</ele>
        <time>2014-05-07T08:48:50Z</time>
      </trkpt>
      <trkpt lat="44.31826" lon="2.66249">
        <ele>758.1369629</ele>
        <time>2014-05-07T08:48:55Z</time>
      </trkpt>
      <trkpt lat="44.31829" lon="2.66233">
        <ele>757.65625</ele>
        <time>2014-05-07T08:48:59Z</time>
      </trkpt>
      <trkpt lat="44.31832" lon="2.66212">
        <ele>756.2141113</ele>
        <time>2014-05-07T08:49:04Z</time>
      </trkpt>
      <trkpt lat="44.31837" lon="2.66188">
        <ele>754.7722168</ele>
        <time>2014-05-07T08:49:10Z</time>
      </trkpt>
      <trkpt lat="44.31841" lon="2.66167">
        <ele>754.291748</ele>
        <time>2014-05-07T08:49:15Z</time>
      </trkpt>
      <trkpt lat="44.31843" lon="2.66145">
        <ele>754.291748</ele>
        <time>2014-05-07T08:49:20Z</time>
      </trkpt>
      <trkpt lat="44.31847" lon="2.66118">
        <ele>752.8496094</ele>
        <time>2014-05-07T08:49:26Z</time>
      </trkpt>
      <trkpt lat="44.31851" lon="2.66097">
        <ele>749.0043945</ele>
        <time>2014-05-07T08:49:31Z</time>
      </trkpt>
      <trkpt lat="44.31856" lon="2.66077">
        <ele>747.5622559</ele>
        <time>2014-05-07T08:49:36Z</time>
      </trkpt>
      <trkpt lat="44.3186" lon="2.66061">
        <ele>747.081543</ele>
        <time>2014-05-07T08:49:40Z</time>
      </trkpt>
      <trkpt lat="44.31864" lon="2.66035">
        <ele>746.6010742</ele>
        <time>2014-05-07T08:49:46Z</time>
      </trkpt>
      <trkpt lat="44.31869" lon="2.66009">
        <ele>744.1977539</ele>
        <time>2014-05-07T08:49:52Z</time>
      </trkpt>
      <trkpt lat="44.31874" lon="2.65993">
        <ele>743.717041</ele>
        <time>2014-05-07T08:49:56Z</time>
      </trkpt>
      <trkpt lat="44.31881" lon="2.65976">
        <ele>742.7558594</ele>
        <time>2014-05-07T08:50:01Z</time>
      </trkpt>
      <trkpt lat="44.31891" lon="2.65953">
        <ele>740.3525391</ele>
        <time>2014-05-07T08:50:08Z</time>
      </trkpt>
      <trkpt lat="44.31899" lon="2.65936">
        <ele>738.9106445</ele>
        <time>2014-05-07T08:50:13Z</time>
      </trkpt>
      <trkpt lat="44.31908" lon="2.65922">
        <ele>737.9492188</ele>
        <time>2014-05-07T08:50:18Z</time>
      </trkpt>
      <trkpt lat="44.31918" lon="2.659">
        <ele>738.4299316</ele>
        <time>2014-05-07T08:50:24Z</time>
      </trkpt>
      <trkpt lat="44.31928" lon="2.65881">
        <ele>736.987793</ele>
        <time>2014-05-07T08:50:29Z</time>
      </trkpt>
      <trkpt lat="44.31936" lon="2.65868">
        <ele>735.0654297</ele>
        <time>2014-05-07T08:50:33Z</time>
      </trkpt>
      <trkpt lat="44.31943" lon="2.65856">
        <ele>734.5847168</ele>
        <time>2014-05-07T08:50:37Z</time>
      </trkpt>
      <trkpt lat="44.31952" lon="2.65841">
        <ele>732.6621094</ele>
        <time>2014-05-07T08:50:42Z</time>
      </trkpt>
      <trkpt lat="44.31961" lon="2.65825">
        <ele>731.7004395</ele>
        <time>2014-05-07T08:50:47Z</time>
      </trkpt>
      <trkpt lat="44.31969" lon="2.65812">
        <ele>729.2971191</ele>
        <time>2014-05-07T08:50:51Z</time>
      </trkpt>
      <trkpt lat="44.31978" lon="2.65796">
        <ele>727.3747559</ele>
        <time>2014-05-07T08:50:56Z</time>
      </trkpt>
      <trkpt lat="44.31984" lon="2.65784">
        <ele>725.9326172</ele>
        <time>2014-05-07T08:51:00Z</time>
      </trkpt>
      <trkpt lat="44.31991" lon="2.6577">
        <ele>724.9714355</ele>
        <time>2014-05-07T08:51:04Z</time>
      </trkpt>
      <trkpt lat="44.31996" lon="2.65757">
        <ele>724.9714355</ele>
        <time>2014-05-07T08:51:08Z</time>
      </trkpt>
      <trkpt lat="44.32004" lon="2.65729">
        <ele>724.4907227</ele>
        <time>2014-05-07T08:51:15Z</time>
      </trkpt>
      <trkpt lat="44.32009" lon="2.6571">
        <ele>724.0100098</ele>
        <time>2014-05-07T08:51:20Z</time>
      </trkpt>
      <trkpt lat="44.32014" lon="2.65691">
        <ele>724.0100098</ele>
        <time>2014-05-07T08:51:25Z</time>
      </trkpt>
      <trkpt lat="44.32017" lon="2.65673">
        <ele>723.0488281</ele>
        <time>2014-05-07T08:51:30Z</time>
      </trkpt>
      <trkpt lat="44.3202" lon="2.65657">
        <ele>722.5681152</ele>
        <time>2014-05-07T08:51:34Z</time>
      </trkpt>
      <trkpt lat="44.32024" lon="2.65638">
        <ele>722.5681152</ele>
        <time>2014-05-07T08:51:39Z</time>
      </trkpt>
      <trkpt lat="44.32028" lon="2.65615">
        <ele>723.0488281</ele>
        <time>2014-05-07T08:51:45Z</time>
      </trkpt>
      <trkpt lat="44.32032" lon="2.65595">
        <ele>722.5681152</ele>
        <time>2014-05-07T08:51:50Z</time>
      </trkpt>
      <trkpt lat="44.32036" lon="2.65571">
        <ele>722.0874023</ele>
        <time>2014-05-07T08:51:56Z</time>
      </trkpt>
      <trkpt lat="44.32041" lon="2.65543">
        <ele>722.5681152</ele>
        <time>2014-05-07T08:52:03Z</time>
      </trkpt>
      <trkpt lat="44.32044" lon="2.65522">
        <ele>723.529541</ele>
        <time>2014-05-07T08:52:08Z</time>
      </trkpt>
      <trkpt lat="44.32048" lon="2.65498">
        <ele>722.0874023</ele>
        <time>2014-05-07T08:52:14Z</time>
      </trkpt>
      <trkpt lat="44.32055" lon="2.65472">
        <ele>720.6455078</ele>
        <time>2014-05-07T08:52:21Z</time>
      </trkpt>
      <trkpt lat="44.32066" lon="2.65454">
        <ele>719.6843262</ele>
        <time>2014-05-07T08:52:27Z</time>
      </trkpt>
      <trkpt lat="44.32074" lon="2.65446">
        <ele>719.2036133</ele>
        <time>2014-05-07T08:52:31Z</time>
      </trkpt>
      <trkpt lat="44.32083" lon="2.65429">
        <ele>717.2810059</ele>
        <time>2014-05-07T08:52:36Z</time>
      </trkpt>
      <trkpt lat="44.32091" lon="2.65415">
        <ele>714.8774414</ele>
        <time>2014-05-07T08:52:41Z</time>
      </trkpt>
      <trkpt lat="44.321" lon="2.65403">
        <ele>714.8774414</ele>
        <time>2014-05-07T08:52:47Z</time>
      </trkpt>
      <trkpt lat="44.32113" lon="2.65393">
        <ele>713.9160156</ele>
        <time>2014-05-07T08:52:54Z</time>
      </trkpt>
      <trkpt lat="44.32124" lon="2.65385">
        <ele>714.3967285</ele>
        <time>2014-05-07T08:52:58Z</time>
      </trkpt>
      <trkpt lat="44.32137" lon="2.65372">
        <ele>715.3581543</ele>
        <time>2014-05-07T08:53:04Z</time>
      </trkpt>
      <trkpt lat="44.32148" lon="2.65361">
        <ele>714.8774414</ele>
        <time>2014-05-07T08:53:09Z</time>
      </trkpt>
      <trkpt lat="44.32154" lon="2.65351">
        <ele>715.3581543</ele>
        <time>2014-05-07T08:53:12Z</time>
      </trkpt>
      <trkpt lat="44.32165" lon="2.65336">
        <ele>713.4355469</ele>
        <time>2014-05-07T08:53:17Z</time>
      </trkpt>
      <trkpt lat="44.32174" lon="2.65322">
        <ele>711.0322266</ele>
        <time>2014-05-07T08:53:22Z</time>
      </trkpt>
      <trkpt lat="44.32182" lon="2.6531">
        <ele>707.6677246</ele>
        <time>2014-05-07T08:53:27Z</time>
      </trkpt>
      <trkpt lat="44.32193" lon="2.65297">
        <ele>704.7836914</ele>
        <time>2014-05-07T08:53:32Z</time>
      </trkpt>
      <trkpt lat="44.32203" lon="2.65284">
        <ele>701.4191895</ele>
        <time>2014-05-07T08:53:37Z</time>
      </trkpt>
      <trkpt lat="44.32211" lon="2.65274">
        <ele>699.4963379</ele>
        <time>2014-05-07T08:53:42Z</time>
      </trkpt>
      <trkpt lat="44.32217" lon="2.65267">
        <ele>697.5737305</ele>
        <time>2014-05-07T08:53:45Z</time>
      </trkpt>
      <trkpt lat="44.32227" lon="2.65252">
        <ele>694.6896973</ele>
        <time>2014-05-07T08:53:51Z</time>
      </trkpt>
      <trkpt lat="44.32229" lon="2.6525">
        <ele>693.7285156</ele>
        <time>2014-05-07T08:53:52Z</time>
      </trkpt>
      <trkpt lat="44.32242" lon="2.65235">
        <ele>688.9221191</ele>
        <time>2014-05-07T08:53:58Z</time>
      </trkpt>
      <trkpt lat="44.32249" lon="2.65222">
        <ele>686.0380859</ele>
        <time>2014-05-07T08:54:02Z</time>
      </trkpt>
      <trkpt lat="44.32254" lon="2.65211">
        <ele>685.0769043</ele>
        <time>2014-05-07T08:54:06Z</time>
      </trkpt>
      <trkpt lat="44.3226" lon="2.65201">
        <ele>686.5187988</ele>
        <time>2014-05-07T08:54:10Z</time>
      </trkpt>
      <trkpt lat="44.32272" lon="2.65195">
        <ele>684.1154785</ele>
        <time>2014-05-07T08:54:14Z</time>
      </trkpt>
      <trkpt lat="44.32281" lon="2.65193">
        <ele>683.1538086</ele>
        <time>2014-05-07T08:54:18Z</time>
      </trkpt>
      <trkpt lat="44.32289" lon="2.65192">
        <ele>680.2700195</ele>
        <time>2014-05-07T08:54:22Z</time>
      </trkpt>
      <trkpt lat="44.32299" lon="2.6519">
        <ele>677.8666992</ele>
        <time>2014-05-07T08:54:26Z</time>
      </trkpt>
      <trkpt lat="44.32306" lon="2.65186">
        <ele>677.3862305</ele>
        <time>2014-05-07T08:54:28Z</time>
      </trkpt>
      <trkpt lat="44.32313" lon="2.65183">
        <ele>675.9440918</ele>
        <time>2014-05-07T08:54:33Z</time>
      </trkpt>
      <trkpt lat="44.32315" lon="2.65186">
        <ele>674.9829102</ele>
        <time>2014-05-07T08:54:35Z</time>
      </trkpt>
      <trkpt lat="44.32328" lon="2.65195">
        <ele>673.5410156</ele>
        <time>2014-05-07T08:54:41Z</time>
      </trkpt>
      <trkpt lat="44.32341" lon="2.65187">
        <ele>676.4248047</ele>
        <time>2014-05-07T08:54:45Z</time>
      </trkpt>
      <trkpt lat="44.32352" lon="2.65175">
        <ele>676.4248047</ele>
        <time>2014-05-07T08:54:50Z</time>
      </trkpt>
      <trkpt lat="44.32363" lon="2.65178">
        <ele>674.0214844</ele>
        <time>2014-05-07T08:54:56Z</time>
      </trkpt>
      <trkpt lat="44.32372" lon="2.65184">
        <ele>672.5795898</ele>
        <time>2014-05-07T08:55:00Z</time>
      </trkpt>
      <trkpt lat="44.32375" lon="2.6518">
        <ele>672.098877</ele>
        <time>2014-05-07T08:55:07Z</time>
      </trkpt>
      <trkpt lat="44.32382" lon="2.65171">
        <ele>672.5795898</ele>
        <time>2014-05-07T08:55:12Z</time>
      </trkpt>
      <trkpt lat="44.32384" lon="2.65164">
        <ele>670.1762695</ele>
        <time>2014-05-07T08:55:16Z</time>
      </trkpt>
      <trkpt lat="44.32385" lon="2.65156">
        <ele>670.1762695</ele>
        <time>2014-05-07T08:55:20Z</time>
      </trkpt>
      <trkpt lat="44.32386" lon="2.65142">
        <ele>669.6958008</ele>
        <time>2014-05-07T08:55:25Z</time>
      </trkpt>
      <trkpt lat="44.3239" lon="2.6514">
        <ele>669.2150879</ele>
        <time>2014-05-07T08:55:27Z</time>
      </trkpt>
      <trkpt lat="44.32401" lon="2.6513">
        <ele>668.2536621</ele>
        <time>2014-05-07T08:55:32Z</time>
      </trkpt>
      <trkpt lat="44.32408" lon="2.65131">
        <ele>665.8503418</ele>
        <time>2014-05-07T08:55:35Z</time>
      </trkpt>
      <trkpt lat="44.32416" lon="2.65143">
        <ele>664.888916</ele>
        <time>2014-05-07T08:55:39Z</time>
      </trkpt>
      <trkpt lat="44.32428" lon="2.65162">
        <ele>663.4470215</ele>
        <time>2014-05-07T08:55:45Z</time>
      </trkpt>
      <trkpt lat="44.32438" lon="2.65177">
        <ele>662.9663086</ele>
        <time>2014-05-07T08:55:50Z</time>
      </trkpt>
      <trkpt lat="44.32451" lon="2.65192">
        <ele>662.4855957</ele>
        <time>2014-05-07T08:55:56Z</time>
      </trkpt>
      <trkpt lat="44.32461" lon="2.65206">
        <ele>662.4855957</ele>
        <time>2014-05-07T08:56:01Z</time>
      </trkpt>
      <trkpt lat="44.32473" lon="2.65223">
        <ele>662.005127</ele>
        <time>2014-05-07T08:56:07Z</time>
      </trkpt>
      <trkpt lat="44.32483" lon="2.65242">
        <ele>662.4855957</ele>
        <time>2014-05-07T08:56:13Z</time>
      </trkpt>
      <trkpt lat="44.32491" lon="2.65265">
        <ele>662.9663086</ele>
        <time>2014-05-07T08:56:20Z</time>
      </trkpt>
      <trkpt lat="44.32497" lon="2.65278">
        <ele>663.9274902</ele>
        <time>2014-05-07T08:56:24Z</time>
      </trkpt>
      <trkpt lat="44.32503" lon="2.65292">
        <ele>665.3696289</ele>
        <time>2014-05-07T08:56:29Z</time>
      </trkpt>
      <trkpt lat="44.32504" lon="2.65295">
        <ele>665.8503418</ele>
        <time>2014-05-07T08:56:30Z</time>
      </trkpt>
      <trkpt lat="44.32512" lon="2.6531">
        <ele>668.2536621</ele>
        <time>2014-05-07T08:56:36Z</time>
      </trkpt>
      <trkpt lat="44.32518" lon="2.65319">
        <ele>669.2150879</ele>
        <time>2014-05-07T08:56:40Z</time>
      </trkpt>
      <trkpt lat="44.32532" lon="2.65331">
        <ele>669.6958008</ele>
        <time>2014-05-07T08:56:46Z</time>
      </trkpt>
      <trkpt lat="44.32544" lon="2.65344">
        <ele>669.6958008</ele>
        <time>2014-05-07T08:56:52Z</time>
      </trkpt>
      <trkpt lat="44.32553" lon="2.65354">
        <ele>670.1762695</ele>
        <time>2014-05-07T08:56:57Z</time>
      </trkpt>
      <trkpt lat="44.32568" lon="2.6537">
        <ele>670.6569824</ele>
        <time>2014-05-07T08:57:05Z</time>
      </trkpt>
      <trkpt lat="44.32577" lon="2.6538">
        <ele>671.6181641</ele>
        <time>2014-05-07T08:57:10Z</time>
      </trkpt>
      <trkpt lat="44.32588" lon="2.65394">
        <ele>672.5795898</ele>
        <time>2014-05-07T08:57:16Z</time>
      </trkpt>
      <trkpt lat="44.32594" lon="2.65404">
        <ele>672.098877</ele>
        <time>2014-05-07T08:57:20Z</time>
      </trkpt>
      <trkpt lat="44.32603" lon="2.65415">
        <ele>672.098877</ele>
        <time>2014-05-07T08:57:25Z</time>
      </trkpt>
      <trkpt lat="44.32614" lon="2.65428">
        <ele>673.0603027</ele>
        <time>2014-05-07T08:57:31Z</time>
      </trkpt>
      <trkpt lat="44.32625" lon="2.65441">
        <ele>674.0214844</ele>
        <time>2014-05-07T08:57:37Z</time>
      </trkpt>
      <trkpt lat="44.32635" lon="2.65451">
        <ele>674.5021973</ele>
        <time>2014-05-07T08:57:42Z</time>
      </trkpt>
      <trkpt lat="44.32644" lon="2.65463">
        <ele>674.9829102</ele>
        <time>2014-05-07T08:57:47Z</time>
      </trkpt>
      <trkpt lat="44.32652" lon="2.65475">
        <ele>676.4248047</ele>
        <time>2014-05-07T08:57:52Z</time>
      </trkpt>
      <trkpt lat="44.3266" lon="2.6549">
        <ele>678.3474121</ele>
        <time>2014-05-07T08:57:58Z</time>
      </trkpt>
      <trkpt lat="44.32669" lon="2.6551">
        <ele>680.2700195</ele>
        <time>2014-05-07T08:58:05Z</time>
      </trkpt>
      <trkpt lat="44.32674" lon="2.65524">
        <ele>681.7119141</ele>
        <time>2014-05-07T08:58:10Z</time>
      </trkpt>
      <trkpt lat="44.3268" lon="2.6554">
        <ele>682.6733398</ele>
        <time>2014-05-07T08:58:16Z</time>
      </trkpt>
      <trkpt lat="44.32686" lon="2.65554">
        <ele>683.6345215</ele>
        <time>2014-05-07T08:58:21Z</time>
      </trkpt>
      <trkpt lat="44.32692" lon="2.65572">
        <ele>686.5187988</ele>
        <time>2014-05-07T08:58:27Z</time>
      </trkpt>
      <trkpt lat="44.32696" lon="2.65587">
        <ele>688.9221191</ele>
        <time>2014-05-07T08:58:32Z</time>
      </trkpt>
      <trkpt lat="44.32699" lon="2.65603">
        <ele>689.4025879</ele>
        <time>2014-05-07T08:58:37Z</time>
      </trkpt>
      <trkpt lat="44.327" lon="2.65614">
        <ele>689.4025879</ele>
        <time>2014-05-07T08:58:40Z</time>
      </trkpt>
      <trkpt lat="44.32703" lon="2.65634">
        <ele>691.8059082</ele>
        <time>2014-05-07T08:58:46Z</time>
      </trkpt>
      <trkpt lat="44.3271" lon="2.65659">
        <ele>692.767334</ele>
        <time>2014-05-07T08:58:54Z</time>
      </trkpt>
      <trkpt lat="44.32715" lon="2.65674">
        <ele>691.8059082</ele>
        <time>2014-05-07T08:58:59Z</time>
      </trkpt>
      <trkpt lat="44.3272" lon="2.65695">
        <ele>692.767334</ele>
        <time>2014-05-07T08:59:06Z</time>
      </trkpt>
      <trkpt lat="44.32718" lon="2.65712">
        <ele>693.2478027</ele>
        <time>2014-05-07T08:59:11Z</time>
      </trkpt>
      <trkpt lat="44.32714" lon="2.6573">
        <ele>693.2478027</ele>
        <time>2014-05-07T08:59:17Z</time>
      </trkpt>
      <trkpt lat="44.32712" lon="2.65744">
        <ele>695.1704102</ele>
        <time>2014-05-07T08:59:22Z</time>
      </trkpt>
      <trkpt lat="44.3271" lon="2.65761">
        <ele>696.6125488</ele>
        <time>2014-05-07T08:59:27Z</time>
      </trkpt>
      <trkpt lat="44.32717" lon="2.65777">
        <ele>698.0544434</ele>
        <time>2014-05-07T08:59:32Z</time>
      </trkpt>
      <trkpt lat="44.3272" lon="2.65779">
        <ele>698.5349121</ele>
        <time>2014-05-07T08:59:33Z</time>
      </trkpt>
      <trkpt lat="44.32725" lon="2.65785">
        <ele>698.5349121</ele>
        <time>2014-05-07T08:59:36Z</time>
      </trkpt>
      <trkpt lat="44.3273" lon="2.65788">
        <ele>699.015625</ele>
        <time>2014-05-07T08:59:40Z</time>
      </trkpt>
      <trkpt lat="44.32726" lon="2.65799">
        <ele>697.0930176</ele>
        <time>2014-05-07T08:59:44Z</time>
      </trkpt>
      <trkpt lat="44.32719" lon="2.6581">
        <ele>697.0930176</ele>
        <time>2014-05-07T08:59:48Z</time>
      </trkpt>
      <trkpt lat="44.32712" lon="2.65822">
        <ele>696.1318359</ele>
        <time>2014-05-07T08:59:53Z</time>
      </trkpt>
      <trkpt lat="44.32711" lon="2.65824">
        <ele>696.6125488</ele>
        <time>2014-05-07T08:59:54Z</time>
      </trkpt>
      <trkpt lat="44.32706" lon="2.65847">
        <ele>695.1704102</ele>
        <time>2014-05-07T09:00:01Z</time>
      </trkpt>
      <trkpt lat="44.32705" lon="2.65868">
        <ele>697.5737305</ele>
        <time>2014-05-07T09:00:07Z</time>
      </trkpt>
      <trkpt lat="44.32704" lon="2.65872">
        <ele>697.0930176</ele>
        <time>2014-05-07T09:00:08Z</time>
      </trkpt>
      <trkpt lat="44.32702" lon="2.65895">
        <ele>698.0544434</ele>
        <time>2014-05-07T09:00:15Z</time>
      </trkpt>
      <trkpt lat="44.32699" lon="2.65916">
        <ele>699.9770508</ele>
        <time>2014-05-07T09:00:21Z</time>
      </trkpt>
      <trkpt lat="44.32696" lon="2.65933">
        <ele>700.4580078</ele>
        <time>2014-05-07T09:00:26Z</time>
      </trkpt>
      <trkpt lat="44.32688" lon="2.65948">
        <ele>699.9770508</ele>
        <time>2014-05-07T09:00:32Z</time>
      </trkpt>
      <trkpt lat="44.32684" lon="2.65961">
        <ele>700.4580078</ele>
        <time>2014-05-07T09:00:37Z</time>
      </trkpt>
      <trkpt lat="44.3268" lon="2.65974">
        <ele>700.4580078</ele>
        <time>2014-05-07T09:00:42Z</time>
      </trkpt>
      <trkpt lat="44.32675" lon="2.65983">
        <ele>699.015625</ele>
        <time>2014-05-07T09:00:46Z</time>
      </trkpt>
      <trkpt lat="44.32669" lon="2.66002">
        <ele>700.4580078</ele>
        <time>2014-05-07T09:00:54Z</time>
      </trkpt>
      <trkpt lat="44.32665" lon="2.66012">
        <ele>701.8999023</ele>
        <time>2014-05-07T09:00:58Z</time>
      </trkpt>
      <trkpt lat="44.32663" lon="2.66033">
        <ele>706.7062988</ele>
        <time>2014-05-07T09:01:05Z</time>
      </trkpt>
      <trkpt lat="44.32659" lon="2.66046">
        <ele>708.6289063</ele>
        <time>2014-05-07T09:01:10Z</time>
      </trkpt>
      <trkpt lat="44.32652" lon="2.66053">
        <ele>705.7451172</ele>
        <time>2014-05-07T09:01:14Z</time>
      </trkpt>
      <trkpt lat="44.3265" lon="2.66058">
        <ele>705.7451172</ele>
        <time>2014-05-07T09:01:16Z</time>
      </trkpt>
      <trkpt lat="44.32646" lon="2.66065">
        <ele>706.2255859</ele>
        <time>2014-05-07T09:01:19Z</time>
      </trkpt>
      <trkpt lat="44.32644" lon="2.66074">
        <ele>708.1484375</ele>
        <time>2014-05-07T09:01:26Z</time>
      </trkpt>
      <trkpt lat="44.32644" lon="2.66078">
        <ele>711.9936523</ele>
        <time>2014-05-07T09:01:38Z</time>
      </trkpt>
      <trkpt lat="44.32644" lon="2.66078">
        <ele>710.5515137</ele>
        <time>2014-05-07T09:01:46Z</time>
      </trkpt>
      <trkpt lat="44.32648" lon="2.66064">
        <ele>711.0322266</ele>
        <time>2014-05-07T09:01:51Z</time>
      </trkpt>
      <trkpt lat="44.32649" lon="2.66061">
        <ele>711.0322266</ele>
        <time>2014-05-07T09:01:52Z</time>
      </trkpt>
      <trkpt lat="44.32654" lon="2.66053">
        <ele>711.9936523</ele>
        <time>2014-05-07T09:01:55Z</time>
      </trkpt>
      <trkpt lat="44.32661" lon="2.66023">
        <ele>711.0322266</ele>
        <time>2014-05-07T09:02:02Z</time>
      </trkpt>
      <trkpt lat="44.32663" lon="2.66012">
        <ele>711.0322266</ele>
        <time>2014-05-07T09:02:05Z</time>
      </trkpt>
      <trkpt lat="44.32667" lon="2.65993">
        <ele>712.4741211</ele>
        <time>2014-05-07T09:02:10Z</time>
      </trkpt>
      <trkpt lat="44.32677" lon="2.65975">
        <ele>713.4355469</ele>
        <time>2014-05-07T09:02:16Z</time>
      </trkpt>
      <trkpt lat="44.32684" lon="2.65955">
        <ele>712.954834</ele>
        <time>2014-05-07T09:02:21Z</time>
      </trkpt>
      <trkpt lat="44.32688" lon="2.65938">
        <ele>711.9936523</ele>
        <time>2014-05-07T09:02:25Z</time>
      </trkpt>
      <trkpt lat="44.32695" lon="2.65925">
        <ele>709.590332</ele>
        <time>2014-05-07T09:02:29Z</time>
      </trkpt>
      <trkpt lat="44.32696" lon="2.65906">
        <ele>707.6677246</ele>
        <time>2014-05-07T09:02:34Z</time>
      </trkpt>
      <trkpt lat="44.32701" lon="2.65883">
        <ele>703.3417969</ele>
        <time>2014-05-07T09:02:40Z</time>
      </trkpt>
      <trkpt lat="44.32702" lon="2.65859">
        <ele>701.8999023</ele>
        <time>2014-05-07T09:02:46Z</time>
      </trkpt>
      <trkpt lat="44.32705" lon="2.65841">
        <ele>699.9770508</ele>
        <time>2014-05-07T09:02:51Z</time>
      </trkpt>
      <trkpt lat="44.32709" lon="2.65824">
        <ele>697.5737305</ele>
        <time>2014-05-07T09:02:56Z</time>
      </trkpt>
      <trkpt lat="44.32718" lon="2.65806">
        <ele>696.6125488</ele>
        <time>2014-05-07T09:03:01Z</time>
      </trkpt>
      <trkpt lat="44.32727" lon="2.65789">
        <ele>697.5737305</ele>
        <time>2014-05-07T09:03:06Z</time>
      </trkpt>
      <trkpt lat="44.32735" lon="2.65777">
        <ele>698.5349121</ele>
        <time>2014-05-07T09:03:10Z</time>
      </trkpt>
      <trkpt lat="44.32743" lon="2.65761">
        <ele>700.9384766</ele>
        <time>2014-05-07T09:03:15Z</time>
      </trkpt>
      <trkpt lat="44.32751" lon="2.65747">
        <ele>702.3803711</ele>
        <time>2014-05-07T09:03:20Z</time>
      </trkpt>
      <trkpt lat="44.32761" lon="2.65732">
        <ele>703.8225098</ele>
        <time>2014-05-07T09:03:25Z</time>
      </trkpt>
      <trkpt lat="44.32774" lon="2.65719">
        <ele>703.8225098</ele>
        <time>2014-05-07T09:03:31Z</time>
      </trkpt>
      <trkpt lat="44.32786" lon="2.6571">
        <ele>703.3417969</ele>
        <time>2014-05-07T09:03:36Z</time>
      </trkpt>
      <trkpt lat="44.32802" lon="2.65708">
        <ele>700.4580078</ele>
        <time>2014-05-07T09:03:41Z</time>
      </trkpt>
      <trkpt lat="44.32814" lon="2.65705">
        <ele>699.9770508</ele>
        <time>2014-05-07T09:03:46Z</time>
      </trkpt>
      <trkpt lat="44.32833" lon="2.65709">
        <ele>696.1318359</ele>
        <time>2014-05-07T09:03:54Z</time>
      </trkpt>
      <trkpt lat="44.32837" lon="2.65709">
        <ele>695.651123</ele>
        <time>2014-05-07T09:03:58Z</time>
      </trkpt>
      <trkpt lat="44.32847" lon="2.6571">
        <ele>696.1318359</ele>
        <time>2014-05-07T09:04:05Z</time>
      </trkpt>
      <trkpt lat="44.32858" lon="2.65714">
        <ele>694.6896973</ele>
        <time>2014-05-07T09:04:10Z</time>
      </trkpt>
      <trkpt lat="44.32868" lon="2.65718">
        <ele>692.2866211</ele>
        <time>2014-05-07T09:04:15Z</time>
      </trkpt>
      <trkpt lat="44.3288" lon="2.6572">
        <ele>690.8444824</ele>
        <time>2014-05-07T09:04:20Z</time>
      </trkpt>
      <trkpt lat="44.32896" lon="2.65724">
        <ele>690.8444824</ele>
        <time>2014-05-07T09:04:26Z</time>
      </trkpt>
      <trkpt lat="44.3291" lon="2.65728">
        <ele>690.8444824</ele>
        <time>2014-05-07T09:04:31Z</time>
      </trkpt>
      <trkpt lat="44.32924" lon="2.65733">
        <ele>690.8444824</ele>
        <time>2014-05-07T09:04:36Z</time>
      </trkpt>
      <trkpt lat="44.3294" lon="2.65737">
        <ele>691.8059082</ele>
        <time>2014-05-07T09:04:42Z</time>
      </trkpt>
      <trkpt lat="44.32949" lon="2.65741">
        <ele>691.8059082</ele>
        <time>2014-05-07T09:04:46Z</time>
      </trkpt>
      <trkpt lat="44.3296" lon="2.65746">
        <ele>691.8059082</ele>
        <time>2014-05-07T09:04:50Z</time>
      </trkpt>
      <trkpt lat="44.32971" lon="2.65751">
        <ele>693.2478027</ele>
        <time>2014-05-07T09:04:55Z</time>
      </trkpt>
      <trkpt lat="44.32985" lon="2.6576">
        <ele>693.2478027</ele>
        <time>2014-05-07T09:05:00Z</time>
      </trkpt>
      <trkpt lat="44.33" lon="2.6577">
        <ele>693.7285156</ele>
        <time>2014-05-07T09:05:06Z</time>
      </trkpt>
      <trkpt lat="44.33012" lon="2.65778">
        <ele>694.6896973</ele>
        <time>2014-05-07T09:05:11Z</time>
      </trkpt>
      <trkpt lat="44.33027" lon="2.65781">
        <ele>695.651123</ele>
        <time>2014-05-07T09:05:17Z</time>
      </trkpt>
      <trkpt lat="44.3303" lon="2.65782">
        <ele>696.1318359</ele>
        <time>2014-05-07T09:05:18Z</time>
      </trkpt>
      <trkpt lat="44.33037" lon="2.65794">
        <ele>694.2092285</ele>
        <time>2014-05-07T09:05:23Z</time>
      </trkpt>
      <trkpt lat="44.33037" lon="2.65809">
        <ele>692.767334</ele>
        <time>2014-05-07T09:05:28Z</time>
      </trkpt>
      <trkpt lat="44.33039" lon="2.65822">
        <ele>692.767334</ele>
        <time>2014-05-07T09:05:32Z</time>
      </trkpt>
      <trkpt lat="44.33042" lon="2.65836">
        <ele>691.3251953</ele>
        <time>2014-05-07T09:05:37Z</time>
      </trkpt>
      <trkpt lat="44.33046" lon="2.6585">
        <ele>691.3251953</ele>
        <time>2014-05-07T09:05:43Z</time>
      </trkpt>
      <trkpt lat="44.33058" lon="2.65858">
        <ele>697.5737305</ele>
        <time>2014-05-07T09:05:48Z</time>
      </trkpt>
      <trkpt lat="44.33059" lon="2.65863">
        <ele>696.6125488</ele>
        <time>2014-05-07T09:05:50Z</time>
      </trkpt>
      <trkpt lat="44.33063" lon="2.65876">
        <ele>697.5737305</ele>
        <time>2014-05-07T09:05:56Z</time>
      </trkpt>
      <trkpt lat="44.33071" lon="2.65886">
        <ele>700.4580078</ele>
        <time>2014-05-07T09:06:02Z</time>
      </trkpt>
      <trkpt lat="44.33073" lon="2.65901">
        <ele>700.4580078</ele>
        <time>2014-05-07T09:06:08Z</time>
      </trkpt>
      <trkpt lat="44.33075" lon="2.65917">
        <ele>702.861084</ele>
        <time>2014-05-07T09:06:14Z</time>
      </trkpt>
      <trkpt lat="44.33079" lon="2.65927">
        <ele>703.8225098</ele>
        <time>2014-05-07T09:06:18Z</time>
      </trkpt>
      <trkpt lat="44.33085" lon="2.65935">
        <ele>704.7836914</ele>
        <time>2014-05-07T09:06:22Z</time>
      </trkpt>
      <trkpt lat="44.33096" lon="2.65943">
        <ele>703.8225098</ele>
        <time>2014-05-07T09:06:29Z</time>
      </trkpt>
      <trkpt lat="44.33102" lon="2.65946">
        <ele>702.3803711</ele>
        <time>2014-05-07T09:06:36Z</time>
      </trkpt>
      <trkpt lat="44.33108" lon="2.65948">
        <ele>701.4191895</ele>
        <time>2014-05-07T09:06:40Z</time>
      </trkpt>
      <trkpt lat="44.33114" lon="2.65951">
        <ele>699.9770508</ele>
        <time>2014-05-07T09:06:45Z</time>
      </trkpt>
      <trkpt lat="44.3313" lon="2.65957">
        <ele>700.9384766</ele>
        <time>2014-05-07T09:06:52Z</time>
      </trkpt>
      <trkpt lat="44.33135" lon="2.65969">
        <ele>699.015625</ele>
        <time>2014-05-07T09:06:57Z</time>
      </trkpt>
      <trkpt lat="44.33143" lon="2.65982">
        <ele>700.4580078</ele>
        <time>2014-05-07T09:07:03Z</time>
      </trkpt>
      <trkpt lat="44.33145" lon="2.65984">
        <ele>702.3803711</ele>
        <time>2014-05-07T09:07:04Z</time>
      </trkpt>
      <trkpt lat="44.33152" lon="2.65995">
        <ele>712.4741211</ele>
        <time>2014-05-07T09:07:10Z</time>
      </trkpt>
      <trkpt lat="44.33147" lon="2.65999">
        <ele>715.3581543</ele>
        <time>2014-05-07T09:07:14Z</time>
      </trkpt>
      <trkpt lat="44.33136" lon="2.66012">
        <ele>714.8774414</ele>
        <time>2014-05-07T09:07:23Z</time>
      </trkpt>
      <trkpt lat="44.3313" lon="2.66023">
        <ele>714.8774414</ele>
        <time>2014-05-07T09:07:28Z</time>
      </trkpt>
      <trkpt lat="44.33122" lon="2.66031">
        <ele>714.3967285</ele>
        <time>2014-05-07T09:07:33Z</time>
      </trkpt>
      <trkpt lat="44.33108" lon="2.66041">
        <ele>716.3195801</ele>
        <time>2014-05-07T09:07:40Z</time>
      </trkpt>
      <trkpt lat="44.331" lon="2.66046">
        <ele>717.2810059</ele>
        <time>2014-05-07T09:07:44Z</time>
      </trkpt>
      <trkpt lat="44.33091" lon="2.66052">
        <ele>719.2036133</ele>
        <time>2014-05-07T09:07:49Z</time>
      </trkpt>
      <trkpt lat="44.33081" lon="2.66058">
        <ele>720.6455078</ele>
        <time>2014-05-07T09:07:54Z</time>
      </trkpt>
      <trkpt lat="44.33071" lon="2.66067">
        <ele>720.6455078</ele>
        <time>2014-05-07T09:08:00Z</time>
      </trkpt>
      <trkpt lat="44.33061" lon="2.66074">
        <ele>719.2036133</ele>
        <time>2014-05-07T09:08:06Z</time>
      </trkpt>
      <trkpt lat="44.33047" lon="2.66083">
        <ele>715.8388672</ele>
        <time>2014-05-07T09:08:13Z</time>
      </trkpt>
      <trkpt lat="44.33043" lon="2.66087">
        <ele>714.8774414</ele>
        <time>2014-05-07T09:08:15Z</time>
      </trkpt>
      <trkpt lat="44.33031" lon="2.66096">
        <ele>713.9160156</ele>
        <time>2014-05-07T09:08:21Z</time>
      </trkpt>
      <trkpt lat="44.3302" lon="2.66103">
        <ele>714.8774414</ele>
        <time>2014-05-07T09:08:27Z</time>
      </trkpt>
      <trkpt lat="44.33007" lon="2.66105">
        <ele>715.3581543</ele>
        <time>2014-05-07T09:08:33Z</time>
      </trkpt>
      <trkpt lat="44.32997" lon="2.66106">
        <ele>719.2036133</ele>
        <time>2014-05-07T09:08:37Z</time>
      </trkpt>
      <trkpt lat="44.32982" lon="2.66103">
        <ele>718.7229004</ele>
        <time>2014-05-07T09:08:43Z</time>
      </trkpt>
      <trkpt lat="44.32968" lon="2.661">
        <ele>718.2421875</ele>
        <time>2014-05-07T09:08:49Z</time>
      </trkpt>
      <trkpt lat="44.32957" lon="2.66101">
        <ele>717.7614746</ele>
        <time>2014-05-07T09:08:54Z</time>
      </trkpt>
      <trkpt lat="44.32945" lon="2.66101">
        <ele>716.800293</ele>
        <time>2014-05-07T09:08:59Z</time>
      </trkpt>
      <trkpt lat="44.32933" lon="2.66103">
        <ele>717.2810059</ele>
        <time>2014-05-07T09:09:04Z</time>
      </trkpt>
      <trkpt lat="44.32927" lon="2.66105">
        <ele>717.2810059</ele>
        <time>2014-05-07T09:09:07Z</time>
      </trkpt>
      <trkpt lat="44.32917" lon="2.66109">
        <ele>718.2421875</ele>
        <time>2014-05-07T09:09:12Z</time>
      </trkpt>
      <trkpt lat="44.32902" lon="2.66116">
        <ele>719.6843262</ele>
        <time>2014-05-07T09:09:19Z</time>
      </trkpt>
      <trkpt lat="44.32891" lon="2.6612">
        <ele>721.1262207</ele>
        <time>2014-05-07T09:09:24Z</time>
      </trkpt>
      <trkpt lat="44.32877" lon="2.66125">
        <ele>724.0100098</ele>
        <time>2014-05-07T09:09:30Z</time>
      </trkpt>
      <trkpt lat="44.32866" lon="2.66127">
        <ele>723.529541</ele>
        <time>2014-05-07T09:09:35Z</time>
      </trkpt>
      <trkpt lat="44.32852" lon="2.66137">
        <ele>724.0100098</ele>
        <time>2014-05-07T09:09:41Z</time>
      </trkpt>
      <trkpt lat="44.32839" lon="2.66143">
        <ele>724.4907227</ele>
        <time>2014-05-07T09:09:47Z</time>
      </trkpt>
      <trkpt lat="44.32828" lon="2.66157">
        <ele>725.4519043</ele>
        <time>2014-05-07T09:09:53Z</time>
      </trkpt>
      <trkpt lat="44.32818" lon="2.66171">
        <ele>724.4907227</ele>
        <time>2014-05-07T09:09:58Z</time>
      </trkpt>
      <trkpt lat="44.32808" lon="2.66194">
        <ele>727.8552246</ele>
        <time>2014-05-07T09:10:04Z</time>
      </trkpt>
      <trkpt lat="44.32801" lon="2.66219">
        <ele>733.623291</ele>
        <time>2014-05-07T09:10:10Z</time>
      </trkpt>
      <trkpt lat="44.32794" lon="2.66234">
        <ele>734.5847168</ele>
        <time>2014-05-07T09:10:15Z</time>
      </trkpt>
      <trkpt lat="44.32792" lon="2.66249">
        <ele>735.5458984</ele>
        <time>2014-05-07T09:10:19Z</time>
      </trkpt>
      <trkpt lat="44.32793" lon="2.66268">
        <ele>738.9106445</ele>
        <time>2014-05-07T09:10:24Z</time>
      </trkpt>
      <trkpt lat="44.32797" lon="2.66284">
        <ele>741.7944336</ele>
        <time>2014-05-07T09:10:29Z</time>
      </trkpt>
      <trkpt lat="44.32799" lon="2.66289">
        <ele>742.2751465</ele>
        <time>2014-05-07T09:10:31Z</time>
      </trkpt>
      <trkpt lat="44.32805" lon="2.66297">
        <ele>743.717041</ele>
        <time>2014-05-07T09:10:35Z</time>
      </trkpt>
      <trkpt lat="44.32819" lon="2.66297">
        <ele>744.1977539</ele>
        <time>2014-05-07T09:10:42Z</time>
      </trkpt>
      <trkpt lat="44.32829" lon="2.6629">
        <ele>746.1203613</ele>
        <time>2014-05-07T09:10:47Z</time>
      </trkpt>
      <trkpt lat="44.32841" lon="2.66288">
        <ele>747.5622559</ele>
        <time>2014-05-07T09:10:52Z</time>
      </trkpt>
      <trkpt lat="44.32853" lon="2.66292">
        <ele>748.5236816</ele>
        <time>2014-05-07T09:10:57Z</time>
      </trkpt>
      <trkpt lat="44.32864" lon="2.66304">
        <ele>749.4851074</ele>
        <time>2014-05-07T09:11:03Z</time>
      </trkpt>
      <trkpt lat="44.32872" lon="2.66314">
        <ele>751.4077148</ele>
        <time>2014-05-07T09:11:08Z</time>
      </trkpt>
      <trkpt lat="44.32885" lon="2.66325">
        <ele>752.3688965</ele>
        <time>2014-05-07T09:11:14Z</time>
      </trkpt>
      <trkpt lat="44.32894" lon="2.66333">
        <ele>753.3303223</ele>
        <time>2014-05-07T09:11:19Z</time>
      </trkpt>
      <trkpt lat="44.32904" lon="2.6634">
        <ele>755.2529297</ele>
        <time>2014-05-07T09:11:24Z</time>
      </trkpt>
      <trkpt lat="44.32913" lon="2.66344">
        <ele>757.1755371</ele>
        <time>2014-05-07T09:11:29Z</time>
      </trkpt>
      <trkpt lat="44.32925" lon="2.66353">
        <ele>757.65625</ele>
        <time>2014-05-07T09:11:35Z</time>
      </trkpt>
      <trkpt lat="44.3293" lon="2.6636">
        <ele>757.65625</ele>
        <time>2014-05-07T09:11:38Z</time>
      </trkpt>
      <trkpt lat="44.32933" lon="2.66376">
        <ele>759.0981445</ele>
        <time>2014-05-07T09:11:44Z</time>
      </trkpt>
      <trkpt lat="44.32929" lon="2.66388">
        <ele>759.0981445</ele>
        <time>2014-05-07T09:11:48Z</time>
      </trkpt>
      <trkpt lat="44.32922" lon="2.66404">
        <ele>759.0981445</ele>
        <time>2014-05-07T09:11:54Z</time>
      </trkpt>
      <trkpt lat="44.32914" lon="2.66423">
        <ele>755.2529297</ele>
        <time>2014-05-07T09:12:02Z</time>
      </trkpt>
      <trkpt lat="44.32906" lon="2.66431">
        <ele>754.291748</ele>
        <time>2014-05-07T09:12:07Z</time>
      </trkpt>
      <trkpt lat="44.32905" lon="2.66433">
        <ele>754.291748</ele>
        <time>2014-05-07T09:12:08Z</time>
      </trkpt>
      <trkpt lat="44.32892" lon="2.66437">
        <ele>753.8110352</ele>
        <time>2014-05-07T09:12:14Z</time>
      </trkpt>
      <trkpt lat="44.3288" lon="2.66441">
        <ele>753.8110352</ele>
        <time>2014-05-07T09:12:20Z</time>
      </trkpt>
      <trkpt lat="44.32868" lon="2.66443">
        <ele>754.7722168</ele>
        <time>2014-05-07T09:12:26Z</time>
      </trkpt>
      <trkpt lat="44.32857" lon="2.66445">
        <ele>757.1755371</ele>
        <time>2014-05-07T09:12:31Z</time>
      </trkpt>
      <trkpt lat="44.32846" lon="2.6645">
        <ele>758.1369629</ele>
        <time>2014-05-07T09:12:36Z</time>
      </trkpt>
      <trkpt lat="44.3284" lon="2.66456">
        <ele>758.1369629</ele>
        <time>2014-05-07T09:12:40Z</time>
      </trkpt>
      <trkpt lat="44.32829" lon="2.66461">
        <ele>759.5788574</ele>
        <time>2014-05-07T09:12:46Z</time>
      </trkpt>
      <trkpt lat="44.32818" lon="2.66469">
        <ele>762.4626465</ele>
        <time>2014-05-07T09:12:51Z</time>
      </trkpt>
      <trkpt lat="44.32808" lon="2.66476">
        <ele>762.4626465</ele>
        <time>2014-05-07T09:12:56Z</time>
      </trkpt>
      <trkpt lat="44.32796" lon="2.66484">
        <ele>763.4240723</ele>
        <time>2014-05-07T09:13:02Z</time>
      </trkpt>
      <trkpt lat="44.32786" lon="2.66489">
        <ele>762.9433594</ele>
        <time>2014-05-07T09:13:07Z</time>
      </trkpt>
      <trkpt lat="44.32776" lon="2.66494">
        <ele>763.904541</ele>
        <time>2014-05-07T09:13:11Z</time>
      </trkpt>
      <trkpt lat="44.32763" lon="2.66502">
        <ele>765.3469238</ele>
        <time>2014-05-07T09:13:16Z</time>
      </trkpt>
      <trkpt lat="44.32747" lon="2.66515">
        <ele>765.8276367</ele>
        <time>2014-05-07T09:13:23Z</time>
      </trkpt>
      <trkpt lat="44.32735" lon="2.66523">
        <ele>766.3081055</ele>
        <time>2014-05-07T09:13:28Z</time>
      </trkpt>
      <trkpt lat="44.32722" lon="2.66531">
        <ele>766.7888184</ele>
        <time>2014-05-07T09:13:33Z</time>
      </trkpt>
      <trkpt lat="44.32713" lon="2.66538">
        <ele>768.7114258</ele>
        <time>2014-05-07T09:13:37Z</time>
      </trkpt>
      <trkpt lat="44.32699" lon="2.66546">
        <ele>768.7114258</ele>
        <time>2014-05-07T09:13:43Z</time>
      </trkpt>
      <trkpt lat="44.32687" lon="2.66554">
        <ele>770.1533203</ele>
        <time>2014-05-07T09:13:48Z</time>
      </trkpt>
      <trkpt lat="44.32677" lon="2.66562">
        <ele>772.5566406</ele>
        <time>2014-05-07T09:13:53Z</time>
      </trkpt>
      <trkpt lat="44.32669" lon="2.66572">
        <ele>773.9985352</ele>
        <time>2014-05-07T09:13:58Z</time>
      </trkpt>
      <trkpt lat="44.32663" lon="2.66587">
        <ele>774.9599609</ele>
        <time>2014-05-07T09:14:03Z</time>
      </trkpt>
      <trkpt lat="44.32659" lon="2.666">
        <ele>775.4404297</ele>
        <time>2014-05-07T09:14:07Z</time>
      </trkpt>
      <trkpt lat="44.32653" lon="2.66618">
        <ele>776.4018555</ele>
        <time>2014-05-07T09:14:12Z</time>
      </trkpt>
      <trkpt lat="44.32645" lon="2.66637">
        <ele>778.3244629</ele>
        <time>2014-05-07T09:14:18Z</time>
      </trkpt>
      <trkpt lat="44.32642" lon="2.66661">
        <ele>780.7280273</ele>
        <time>2014-05-07T09:14:25Z</time>
      </trkpt>
      <trkpt lat="44.32641" lon="2.6668">
        <ele>781.689209</ele>
        <time>2014-05-07T09:14:30Z</time>
      </trkpt>
      <trkpt lat="44.32637" lon="2.66701">
        <ele>781.689209</ele>
        <time>2014-05-07T09:14:36Z</time>
      </trkpt>
      <trkpt lat="44.32632" lon="2.66721">
        <ele>782.1699219</ele>
        <time>2014-05-07T09:14:42Z</time>
      </trkpt>
      <trkpt lat="44.32629" lon="2.66741">
        <ele>781.689209</ele>
        <time>2014-05-07T09:14:48Z</time>
      </trkpt>
      <trkpt lat="44.32628" lon="2.66761">
        <ele>782.1699219</ele>
        <time>2014-05-07T09:14:54Z</time>
      </trkpt>
      <trkpt lat="44.32625" lon="2.66777">
        <ele>783.6118164</ele>
        <time>2014-05-07T09:15:00Z</time>
      </trkpt>
      <trkpt lat="44.32627" lon="2.6679">
        <ele>785.0539551</ele>
        <time>2014-05-07T09:15:05Z</time>
      </trkpt>
      <trkpt lat="44.3263" lon="2.66804">
        <ele>786.0151367</ele>
        <time>2014-05-07T09:15:10Z</time>
      </trkpt>
      <trkpt lat="44.32635" lon="2.66816">
        <ele>786.9763184</ele>
        <time>2014-05-07T09:15:15Z</time>
      </trkpt>
      <trkpt lat="44.32637" lon="2.6682">
        <ele>787.4570313</ele>
        <time>2014-05-07T09:15:17Z</time>
      </trkpt>
      <trkpt lat="44.32647" lon="2.66831">
        <ele>787.9377441</ele>
        <time>2014-05-07T09:15:22Z</time>
      </trkpt>
      <trkpt lat="44.32654" lon="2.6684">
        <ele>787.4570313</ele>
        <time>2014-05-07T09:15:27Z</time>
      </trkpt>
      <trkpt lat="44.32657" lon="2.6684">
        <ele>787.4570313</ele>
        <time>2014-05-07T09:15:32Z</time>
      </trkpt>
      <trkpt lat="44.32664" lon="2.66843">
        <ele>790.8215332</ele>
        <time>2014-05-07T09:16:00Z</time>
      </trkpt>
      <trkpt lat="44.32677" lon="2.66845">
        <ele>790.3410645</ele>
        <time>2014-05-07T09:16:05Z</time>
      </trkpt>
      <trkpt lat="44.32688" lon="2.66846">
        <ele>789.3796387</ele>
        <time>2014-05-07T09:16:10Z</time>
      </trkpt>
      <trkpt lat="44.32691" lon="2.66847">
        <ele>787.9377441</ele>
        <time>2014-05-07T09:16:14Z</time>
      </trkpt>
      <trkpt lat="44.32702" lon="2.66847">
        <ele>787.4570313</ele>
        <time>2014-05-07T09:16:20Z</time>
      </trkpt>
      <trkpt lat="44.32712" lon="2.6685">
        <ele>786.0151367</ele>
        <time>2014-05-07T09:16:24Z</time>
      </trkpt>
      <trkpt lat="44.3273" lon="2.66851">
        <ele>787.9377441</ele>
        <time>2014-05-07T09:16:30Z</time>
      </trkpt>
      <trkpt lat="44.32742" lon="2.6685">
        <ele>788.418457</ele>
        <time>2014-05-07T09:16:34Z</time>
      </trkpt>
      <trkpt lat="44.32757" lon="2.66849">
        <ele>788.8991699</ele>
        <time>2014-05-07T09:16:39Z</time>
      </trkpt>
      <trkpt lat="44.32771" lon="2.66848">
        <ele>787.4570313</ele>
        <time>2014-05-07T09:16:44Z</time>
      </trkpt>
      <trkpt lat="44.32786" lon="2.66845">
        <ele>787.4570313</ele>
        <time>2014-05-07T09:16:49Z</time>
      </trkpt>
      <trkpt lat="44.32798" lon="2.66844">
        <ele>787.4570313</ele>
        <time>2014-05-07T09:16:53Z</time>
      </trkpt>
      <trkpt lat="44.3281" lon="2.66841">
        <ele>786.9763184</ele>
        <time>2014-05-07T09:16:57Z</time>
      </trkpt>
      <trkpt lat="44.32816" lon="2.66842">
        <ele>786.4958496</ele>
        <time>2014-05-07T09:17:00Z</time>
      </trkpt>
      <trkpt lat="44.3283" lon="2.66843">
        <ele>785.5344238</ele>
        <time>2014-05-07T09:17:05Z</time>
      </trkpt>
      <trkpt lat="44.32844" lon="2.66846">
        <ele>785.5344238</ele>
        <time>2014-05-07T09:17:10Z</time>
      </trkpt>
      <trkpt lat="44.32856" lon="2.66847">
        <ele>786.0151367</ele>
        <time>2014-05-07T09:17:14Z</time>
      </trkpt>
      <trkpt lat="44.32869" lon="2.66846">
        <ele>786.4958496</ele>
        <time>2014-05-07T09:17:19Z</time>
      </trkpt>
      <trkpt lat="44.32887" lon="2.66848">
        <ele>786.9763184</ele>
        <time>2014-05-07T09:17:25Z</time>
      </trkpt>
      <trkpt lat="44.32901" lon="2.6685">
        <ele>786.4958496</ele>
        <time>2014-05-07T09:17:30Z</time>
      </trkpt>
      <trkpt lat="44.32904" lon="2.6685">
        <ele>786.4958496</ele>
        <time>2014-05-07T09:17:31Z</time>
      </trkpt>
      <trkpt lat="44.32917" lon="2.66849">
        <ele>783.6118164</ele>
        <time>2014-05-07T09:17:36Z</time>
      </trkpt>
      <trkpt lat="44.32934" lon="2.66842">
        <ele>784.5732422</ele>
        <time>2014-05-07T09:17:40Z</time>
      </trkpt>
      <trkpt lat="44.32946" lon="2.66833">
        <ele>782.6506348</ele>
        <time>2014-05-07T09:17:45Z</time>
      </trkpt>
      <trkpt lat="44.3295" lon="2.66828">
        <ele>782.6506348</ele>
        <time>2014-05-07T09:17:47Z</time>
      </trkpt>
      <trkpt lat="44.32968" lon="2.66818">
        <ele>781.2087402</ele>
        <time>2014-05-07T09:17:53Z</time>
      </trkpt>
      <trkpt lat="44.32986" lon="2.6681">
        <ele>779.2856445</ele>
        <time>2014-05-07T09:17:59Z</time>
      </trkpt>
      <trkpt lat="44.33001" lon="2.66809">
        <ele>775.9211426</ele>
        <time>2014-05-07T09:18:04Z</time>
      </trkpt>
      <trkpt lat="44.33015" lon="2.66807">
        <ele>774.479248</ele>
        <time>2014-05-07T09:18:09Z</time>
      </trkpt>
      <trkpt lat="44.33023" lon="2.668">
        <ele>772.5566406</ele>
        <time>2014-05-07T09:18:13Z</time>
      </trkpt>
      <trkpt lat="44.33026" lon="2.66798">
        <ele>772.5566406</ele>
        <time>2014-05-07T09:18:14Z</time>
      </trkpt>
      <trkpt lat="44.33041" lon="2.66787">
        <ele>770.6340332</ele>
        <time>2014-05-07T09:18:19Z</time>
      </trkpt>
      <trkpt lat="44.33056" lon="2.66777">
        <ele>768.7114258</ele>
        <time>2014-05-07T09:18:24Z</time>
      </trkpt>
      <trkpt lat="44.33072" lon="2.66771">
        <ele>765.3469238</ele>
        <time>2014-05-07T09:18:30Z</time>
      </trkpt>
      <trkpt lat="44.33081" lon="2.66772">
        <ele>763.904541</ele>
        <time>2014-05-07T09:18:33Z</time>
      </trkpt>
      <trkpt lat="44.33103" lon="2.66774">
        <ele>762.4626465</ele>
        <time>2014-05-07T09:18:40Z</time>
      </trkpt>
      <trkpt lat="44.33116" lon="2.66771">
        <ele>761.9821777</ele>
        <time>2014-05-07T09:18:45Z</time>
      </trkpt>
      <trkpt lat="44.33128" lon="2.66768">
        <ele>760.5400391</ele>
        <time>2014-05-07T09:18:49Z</time>
      </trkpt>
      <trkpt lat="44.33137" lon="2.66763">
        <ele>761.020752</ele>
        <time>2014-05-07T09:18:53Z</time>
      </trkpt>
      <trkpt lat="44.33149" lon="2.66768">
        <ele>760.0593262</ele>
        <time>2014-05-07T09:18:57Z</time>
      </trkpt>
      <trkpt lat="44.33154" lon="2.66775">
        <ele>761.020752</ele>
        <time>2014-05-07T09:19:00Z</time>
      </trkpt>
      <trkpt lat="44.33164" lon="2.66796">
        <ele>757.65625</ele>
        <time>2014-05-07T09:19:06Z</time>
      </trkpt>
      <trkpt lat="44.33171" lon="2.66813">
        <ele>753.8110352</ele>
        <time>2014-05-07T09:19:11Z</time>
      </trkpt>
      <trkpt lat="44.33181" lon="2.66831">
        <ele>748.5236816</ele>
        <time>2014-05-07T09:19:16Z</time>
      </trkpt>
      <trkpt lat="44.33188" lon="2.66841">
        <ele>744.6782227</ele>
        <time>2014-05-07T09:19:20Z</time>
      </trkpt>
      <trkpt lat="44.33192" lon="2.66853">
        <ele>740.3525391</ele>
        <time>2014-05-07T09:19:24Z</time>
      </trkpt>
      <trkpt lat="44.33201" lon="2.66865">
        <ele>736.5073242</ele>
        <time>2014-05-07T09:19:29Z</time>
      </trkpt>
      <trkpt lat="44.33214" lon="2.66869">
        <ele>733.1425781</ele>
        <time>2014-05-07T09:19:35Z</time>
      </trkpt>
      <trkpt lat="44.33217" lon="2.66869">
        <ele>732.6621094</ele>
        <time>2014-05-07T09:19:36Z</time>
      </trkpt>
      <trkpt lat="44.3323" lon="2.66878">
        <ele>732.1813965</ele>
        <time>2014-05-07T09:19:41Z</time>
      </trkpt>
      <trkpt lat="44.33232" lon="2.66879">
        <ele>731.7004395</ele>
        <time>2014-05-07T09:19:42Z</time>
      </trkpt>
      <trkpt lat="44.3324" lon="2.66883">
        <ele>729.2971191</ele>
        <time>2014-05-07T09:19:45Z</time>
      </trkpt>
      <trkpt lat="44.33255" lon="2.66889">
        <ele>727.8552246</ele>
        <time>2014-05-07T09:19:51Z</time>
      </trkpt>
      <trkpt lat="44.33263" lon="2.66891">
        <ele>723.529541</ele>
        <time>2014-05-07T09:19:56Z</time>
      </trkpt>
      <trkpt lat="44.33265" lon="2.66891">
        <ele>722.5681152</ele>
        <time>2014-05-07T09:19:57Z</time>
      </trkpt>
      <trkpt lat="44.33271" lon="2.66894">
        <ele>721.1262207</ele>
        <time>2014-05-07T09:20:00Z</time>
      </trkpt>
      <trkpt lat="44.33282" lon="2.66897">
        <ele>716.800293</ele>
        <time>2014-05-07T09:20:07Z</time>
      </trkpt>
      <trkpt lat="44.33289" lon="2.66901">
        <ele>713.9160156</ele>
        <time>2014-05-07T09:20:14Z</time>
      </trkpt>
      <trkpt lat="44.33293" lon="2.66903">
        <ele>711.9936523</ele>
        <time>2014-05-07T09:20:18Z</time>
      </trkpt>
      <trkpt lat="44.33295" lon="2.66906">
        <ele>708.1484375</ele>
        <time>2014-05-07T09:20:21Z</time>
      </trkpt>
      <trkpt lat="44.333" lon="2.66907">
        <ele>704.7836914</ele>
        <time>2014-05-07T09:20:25Z</time>
      </trkpt>
      <trkpt lat="44.33305" lon="2.66913">
        <ele>700.4580078</ele>
        <time>2014-05-07T09:20:31Z</time>
      </trkpt>
      <trkpt lat="44.33309" lon="2.66915">
        <ele>696.6125488</ele>
        <time>2014-05-07T09:20:35Z</time>
      </trkpt>
      <trkpt lat="44.33311" lon="2.66914">
        <ele>699.4963379</ele>
        <time>2014-05-07T09:20:38Z</time>
      </trkpt>
      <trkpt lat="44.33312" lon="2.66913">
        <ele>699.4963379</ele>
        <time>2014-05-07T09:20:40Z</time>
      </trkpt>
      <trkpt lat="44.33311" lon="2.66911">
        <ele>696.1318359</ele>
        <time>2014-05-07T09:20:43Z</time>
      </trkpt>
      <trkpt lat="44.33321" lon="2.66913">
        <ele>692.767334</ele>
        <time>2014-05-07T09:20:49Z</time>
      </trkpt>
      <trkpt lat="44.33331" lon="2.66917">
        <ele>690.3640137</ele>
        <time>2014-05-07T09:20:54Z</time>
      </trkpt>
      <trkpt lat="44.33338" lon="2.66926">
        <ele>685.557373</ele>
        <time>2014-05-07T09:21:00Z</time>
      </trkpt>
      <trkpt lat="44.33338" lon="2.66933">
        <ele>681.7119141</ele>
        <time>2014-05-07T09:21:03Z</time>
      </trkpt>
      <trkpt lat="44.33342" lon="2.6695">
        <ele>674.5021973</ele>
        <time>2014-05-07T09:21:10Z</time>
      </trkpt>
      <trkpt lat="44.33345" lon="2.66959">
        <ele>670.6569824</ele>
        <time>2014-05-07T09:21:14Z</time>
      </trkpt>
      <trkpt lat="44.33348" lon="2.66974">
        <ele>666.3308105</ele>
        <time>2014-05-07T09:21:20Z</time>
      </trkpt>
      <trkpt lat="44.33349" lon="2.66993">
        <ele>660.0822754</ele>
        <time>2014-05-07T09:21:28Z</time>
      </trkpt>
      <trkpt lat="44.33351" lon="2.67004">
        <ele>653.8339844</ele>
        <time>2014-05-07T09:21:34Z</time>
      </trkpt>
      <trkpt lat="44.3335" lon="2.67011">
        <ele>650.949707</ele>
        <time>2014-05-07T09:21:37Z</time>
      </trkpt>
      <trkpt lat="44.33354" lon="2.67023">
        <ele>648.065918</ele>
        <time>2014-05-07T09:21:42Z</time>
      </trkpt>
      <trkpt lat="44.33354" lon="2.67031">
        <ele>646.1433105</ele>
        <time>2014-05-07T09:21:45Z</time>
      </trkpt>
      <trkpt lat="44.33354" lon="2.67039">
        <ele>643.2592773</ele>
        <time>2014-05-07T09:21:49Z</time>
      </trkpt>
      <trkpt lat="44.33354" lon="2.67057">
        <ele>639.8947754</ele>
        <time>2014-05-07T09:21:54Z</time>
      </trkpt>
      <trkpt lat="44.33353" lon="2.67065">
        <ele>637.972168</ele>
        <time>2014-05-07T09:21:56Z</time>
      </trkpt>
      <trkpt lat="44.33346" lon="2.67077">
        <ele>635.0881348</ele>
        <time>2014-05-07T09:22:00Z</time>
      </trkpt>
      <trkpt lat="44.33334" lon="2.67084">
        <ele>628.3588867</ele>
        <time>2014-05-07T09:22:06Z</time>
      </trkpt>
      <trkpt lat="44.33329" lon="2.6709">
        <ele>623.5524902</ele>
        <time>2014-05-07T09:22:11Z</time>
      </trkpt>
      <trkpt lat="44.33334" lon="2.671">
        <ele>628.3588867</ele>
        <time>2014-05-07T09:22:16Z</time>
      </trkpt>
      <trkpt lat="44.33346" lon="2.67103">
        <ele>631.7233887</ele>
        <time>2014-05-07T09:22:22Z</time>
      </trkpt>
      <trkpt lat="44.33354" lon="2.67101">
        <ele>634.6074219</ele>
        <time>2014-05-07T09:22:26Z</time>
      </trkpt>
      <trkpt lat="44.33357" lon="2.67101">
        <ele>635.5686035</ele>
        <time>2014-05-07T09:22:27Z</time>
      </trkpt>
      <trkpt lat="44.33373" lon="2.67105">
        <ele>641.3366699</ele>
        <time>2014-05-07T09:22:34Z</time>
      </trkpt>
      <trkpt lat="44.3338" lon="2.6711">
        <ele>640.855957</ele>
        <time>2014-05-07T09:22:37Z</time>
      </trkpt>
      <trkpt lat="44.3339" lon="2.67129">
        <ele>646.1433105</ele>
        <time>2014-05-07T09:22:44Z</time>
      </trkpt>
      <trkpt lat="44.33392" lon="2.67131">
        <ele>646.1433105</ele>
        <time>2014-05-07T09:22:45Z</time>
      </trkpt>
      <trkpt lat="44.33396" lon="2.67138">
        <ele>644.2207031</ele>
        <time>2014-05-07T09:22:48Z</time>
      </trkpt>
      <trkpt lat="44.33403" lon="2.67142">
        <ele>642.7788086</ele>
        <time>2014-05-07T09:22:53Z</time>
      </trkpt>
      <trkpt lat="44.33411" lon="2.67142">
        <ele>644.2207031</ele>
        <time>2014-05-07T09:22:57Z</time>
      </trkpt>
      <trkpt lat="44.33418" lon="2.67149">
        <ele>647.1044922</ele>
        <time>2014-05-07T09:23:02Z</time>
      </trkpt>
      <trkpt lat="44.3342" lon="2.67152">
        <ele>649.5078125</ele>
        <time>2014-05-07T09:23:04Z</time>
      </trkpt>
      <trkpt lat="44.33427" lon="2.67155">
        <ele>651.9111328</ele>
        <time>2014-05-07T09:23:10Z</time>
      </trkpt>
      <trkpt lat="44.33428" lon="2.67157">
        <ele>652.8725586</ele>
        <time>2014-05-07T09:23:12Z</time>
      </trkpt>
      <trkpt lat="44.33434" lon="2.67164">
        <ele>652.8725586</ele>
        <time>2014-05-07T09:23:20Z</time>
      </trkpt>
      <trkpt lat="44.33439" lon="2.67167">
        <ele>652.3918457</ele>
        <time>2014-05-07T09:23:25Z</time>
      </trkpt>
      <trkpt lat="44.33444" lon="2.67175">
        <ele>652.8725586</ele>
        <time>2014-05-07T09:23:31Z</time>
      </trkpt>
      <trkpt lat="44.33448" lon="2.67187">
        <ele>653.3532715</ele>
        <time>2014-05-07T09:23:37Z</time>
      </trkpt>
      <trkpt lat="44.33448" lon="2.672">
        <ele>653.8339844</ele>
        <time>2014-05-07T09:23:42Z</time>
      </trkpt>
      <trkpt lat="44.33451" lon="2.67216">
        <ele>653.8339844</ele>
        <time>2014-05-07T09:23:48Z</time>
      </trkpt>
      <trkpt lat="44.33452" lon="2.67225">
        <ele>654.3146973</ele>
        <time>2014-05-07T09:23:51Z</time>
      </trkpt>
      <trkpt lat="44.33454" lon="2.67239">
        <ele>656.2370605</ele>
        <time>2014-05-07T09:23:56Z</time>
      </trkpt>
      <trkpt lat="44.33456" lon="2.6726">
        <ele>658.1599121</ele>
        <time>2014-05-07T09:24:03Z</time>
      </trkpt>
      <trkpt lat="44.33456" lon="2.67263">
        <ele>660.0822754</ele>
        <time>2014-05-07T09:24:05Z</time>
      </trkpt>
      <trkpt lat="44.33456" lon="2.67274">
        <ele>662.4855957</ele>
        <time>2014-05-07T09:24:10Z</time>
      </trkpt>
      <trkpt lat="44.33456" lon="2.67285">
        <ele>668.734375</ele>
        <time>2014-05-07T09:24:17Z</time>
      </trkpt>
      <trkpt lat="44.33456" lon="2.67289">
        <ele>670.1762695</ele>
        <time>2014-05-07T09:24:21Z</time>
      </trkpt>
      <trkpt lat="44.33456" lon="2.673">
        <ele>671.6181641</ele>
        <time>2014-05-07T09:24:25Z</time>
      </trkpt>
      <trkpt lat="44.33455" lon="2.67301">
        <ele>671.1376953</ele>
        <time>2014-05-07T09:24:26Z</time>
      </trkpt>
      <trkpt lat="44.33455" lon="2.6731">
        <ele>671.6181641</ele>
        <time>2014-05-07T09:24:30Z</time>
      </trkpt>
      <trkpt lat="44.33453" lon="2.67319">
        <ele>670.1762695</ele>
        <time>2014-05-07T09:24:35Z</time>
      </trkpt>
      <trkpt lat="44.3345" lon="2.67334">
        <ele>669.6958008</ele>
        <time>2014-05-07T09:24:41Z</time>
      </trkpt>
      <trkpt lat="44.33451" lon="2.67342">
        <ele>667.7727051</ele>
        <time>2014-05-07T09:24:44Z</time>
      </trkpt>
      <trkpt lat="44.3345" lon="2.67344">
        <ele>668.734375</ele>
        <time>2014-05-07T09:24:46Z</time>
      </trkpt>
      <trkpt lat="44.33448" lon="2.67354">
        <ele>666.8115234</ele>
        <time>2014-05-07T09:24:51Z</time>
      </trkpt>
      <trkpt lat="44.33446" lon="2.67367">
        <ele>666.3308105</ele>
        <time>2014-05-07T09:24:56Z</time>
      </trkpt>
      <trkpt lat="44.33443" lon="2.67373">
        <ele>664.888916</ele>
        <time>2014-05-07T09:24:59Z</time>
      </trkpt>
      <trkpt lat="44.33441" lon="2.6738">
        <ele>666.8115234</ele>
        <time>2014-05-07T09:25:03Z</time>
      </trkpt>
      <trkpt lat="44.3344" lon="2.67393">
        <ele>670.1762695</ele>
        <time>2014-05-07T09:25:10Z</time>
      </trkpt>
      <trkpt lat="44.33437" lon="2.674">
        <ele>674.9829102</ele>
        <time>2014-05-07T09:25:15Z</time>
      </trkpt>
      <trkpt lat="44.33436" lon="2.67402">
        <ele>674.9829102</ele>
        <time>2014-05-07T09:25:16Z</time>
      </trkpt>
      <trkpt lat="44.33433" lon="2.67414">
        <ele>677.8666992</ele>
        <time>2014-05-07T09:25:23Z</time>
      </trkpt>
      <trkpt lat="44.33433" lon="2.67415">
        <ele>677.3862305</ele>
        <time>2014-05-07T09:25:24Z</time>
      </trkpt>
      <trkpt lat="44.33434" lon="2.67419">
        <ele>677.3862305</ele>
        <time>2014-05-07T09:25:27Z</time>
      </trkpt>
      <trkpt lat="44.33434" lon="2.67421">
        <ele>676.9055176</ele>
        <time>2014-05-07T09:25:29Z</time>
      </trkpt>
      <trkpt lat="44.33431" lon="2.67431">
        <ele>678.3474121</ele>
        <time>2014-05-07T09:25:35Z</time>
      </trkpt>
      <trkpt lat="44.3343" lon="2.67432">
        <ele>677.3862305</ele>
        <time>2014-05-07T09:25:36Z</time>
      </trkpt>
      <trkpt lat="44.3343" lon="2.67437">
        <ele>677.3862305</ele>
        <time>2014-05-07T09:25:38Z</time>
      </trkpt>
      <trkpt lat="44.33425" lon="2.67448">
        <ele>680.2700195</ele>
        <time>2014-05-07T09:25:44Z</time>
      </trkpt>
      <trkpt lat="44.33425" lon="2.67448">
        <ele>680.7507324</ele>
        <time>2014-05-07T09:25:45Z</time>
      </trkpt>
      <trkpt lat="44.33423" lon="2.67456">
        <ele>682.6733398</ele>
        <time>2014-05-07T09:25:49Z</time>
      </trkpt>
      <trkpt lat="44.3342" lon="2.67461">
        <ele>682.192627</ele>
        <time>2014-05-07T09:25:53Z</time>
      </trkpt>
      <trkpt lat="44.33418" lon="2.6747">
        <ele>682.6733398</ele>
        <time>2014-05-07T09:25:59Z</time>
      </trkpt>
      <trkpt lat="44.33414" lon="2.67478">
        <ele>679.7893066</ele>
        <time>2014-05-07T09:26:05Z</time>
      </trkpt>
      <trkpt lat="44.33408" lon="2.67489">
        <ele>681.2314453</ele>
        <time>2014-05-07T09:26:11Z</time>
      </trkpt>
      <trkpt lat="44.33407" lon="2.67496">
        <ele>680.7507324</ele>
        <time>2014-05-07T09:26:14Z</time>
      </trkpt>
      <trkpt lat="44.33403" lon="2.67505">
        <ele>684.1154785</ele>
        <time>2014-05-07T09:26:18Z</time>
      </trkpt>
      <trkpt lat="44.33399" lon="2.67519">
        <ele>690.3640137</ele>
        <time>2014-05-07T09:26:24Z</time>
      </trkpt>
      <trkpt lat="44.33392" lon="2.6753">
        <ele>693.7285156</ele>
        <time>2014-05-07T09:26:30Z</time>
      </trkpt>
      <trkpt lat="44.33391" lon="2.67537">
        <ele>695.651123</ele>
        <time>2014-05-07T09:26:33Z</time>
      </trkpt>
      <trkpt lat="44.33386" lon="2.67546">
        <ele>702.3803711</ele>
        <time>2014-05-07T09:26:38Z</time>
      </trkpt>
      <trkpt lat="44.33385" lon="2.6755">
        <ele>700.9384766</ele>
        <time>2014-05-07T09:26:40Z</time>
      </trkpt>
      <trkpt lat="44.33381" lon="2.67559">
        <ele>696.1318359</ele>
        <time>2014-05-07T09:26:45Z</time>
      </trkpt>
      <trkpt lat="44.33374" lon="2.67568">
        <ele>692.2866211</ele>
        <time>2014-05-07T09:26:53Z</time>
      </trkpt>
      <trkpt lat="44.33371" lon="2.67573">
        <ele>693.7285156</ele>
        <time>2014-05-07T09:26:58Z</time>
      </trkpt>
      <trkpt lat="44.33369" lon="2.67577">
        <ele>693.7285156</ele>
        <time>2014-05-07T09:27:01Z</time>
      </trkpt>
      <trkpt lat="44.3336" lon="2.67584">
        <ele>694.6896973</ele>
        <time>2014-05-07T09:27:08Z</time>
      </trkpt>
      <trkpt lat="44.33353" lon="2.6759">
        <ele>699.9770508</ele>
        <time>2014-05-07T09:27:16Z</time>
      </trkpt>
      <trkpt lat="44.33352" lon="2.6759">
        <ele>700.9384766</ele>
        <time>2014-05-07T09:27:18Z</time>
      </trkpt>
      <trkpt lat="44.33349" lon="2.67594">
        <ele>707.6677246</ele>
        <time>2014-05-07T09:27:27Z</time>
      </trkpt>
      <trkpt lat="44.33345" lon="2.67599">
        <ele>709.590332</ele>
        <time>2014-05-07T09:27:30Z</time>
      </trkpt>
      <trkpt lat="44.33335" lon="2.67608">
        <ele>711.9936523</ele>
        <time>2014-05-07T09:27:37Z</time>
      </trkpt>
      <trkpt lat="44.33329" lon="2.67612">
        <ele>712.4741211</ele>
        <time>2014-05-07T09:27:41Z</time>
      </trkpt>
      <trkpt lat="44.33325" lon="2.67615">
        <ele>715.8388672</ele>
        <time>2014-05-07T09:27:44Z</time>
      </trkpt>
      <trkpt lat="44.33321" lon="2.67627">
        <ele>711.5129395</ele>
        <time>2014-05-07T09:27:50Z</time>
      </trkpt>
      <trkpt lat="44.33314" lon="2.67629">
        <ele>712.954834</ele>
        <time>2014-05-07T09:27:54Z</time>
      </trkpt>
      <trkpt lat="44.33305" lon="2.6764">
        <ele>712.954834</ele>
        <time>2014-05-07T09:28:02Z</time>
      </trkpt>
      <trkpt lat="44.33298" lon="2.67652">
        <ele>714.3967285</ele>
        <time>2014-05-07T09:28:08Z</time>
      </trkpt>
      <trkpt lat="44.33293" lon="2.67661">
        <ele>715.8388672</ele>
        <time>2014-05-07T09:28:12Z</time>
      </trkpt>
      <trkpt lat="44.33293" lon="2.67665">
        <ele>716.3195801</ele>
        <time>2014-05-07T09:28:14Z</time>
      </trkpt>
      <trkpt lat="44.33292" lon="2.67668">
        <ele>716.800293</ele>
        <time>2014-05-07T09:28:16Z</time>
      </trkpt>
      <trkpt lat="44.33293" lon="2.6767">
        <ele>718.7229004</ele>
        <time>2014-05-07T09:28:18Z</time>
      </trkpt>
      <trkpt lat="44.33299" lon="2.67668">
        <ele>719.6843262</ele>
        <time>2014-05-07T09:28:23Z</time>
      </trkpt>
      <trkpt lat="44.33308" lon="2.67664">
        <ele>724.9714355</ele>
        <time>2014-05-07T09:28:29Z</time>
      </trkpt>
      <trkpt lat="44.3331" lon="2.67663">
        <ele>725.9326172</ele>
        <time>2014-05-07T09:28:30Z</time>
      </trkpt>
      <trkpt lat="44.3332" lon="2.67663">
        <ele>730.7392578</ele>
        <time>2014-05-07T09:28:37Z</time>
      </trkpt>
      <trkpt lat="44.33327" lon="2.67663">
        <ele>730.7392578</ele>
        <time>2014-05-07T09:28:41Z</time>
      </trkpt>
      <trkpt lat="44.33335" lon="2.67664">
        <ele>730.2585449</ele>
        <time>2014-05-07T09:28:48Z</time>
      </trkpt>
      <trkpt lat="44.33349" lon="2.67662">
        <ele>736.0266113</ele>
        <time>2014-05-07T09:28:53Z</time>
      </trkpt>
      <trkpt lat="44.33355" lon="2.67662">
        <ele>738.4299316</ele>
        <time>2014-05-07T09:28:56Z</time>
      </trkpt>
      <trkpt lat="44.33357" lon="2.67665">
        <ele>737.4685059</ele>
        <time>2014-05-07T09:28:59Z</time>
      </trkpt>
      <trkpt lat="44.33346" lon="2.67676">
        <ele>736.987793</ele>
        <time>2014-05-07T09:29:06Z</time>
      </trkpt>
      <trkpt lat="44.33337" lon="2.67682">
        <ele>737.4685059</ele>
        <time>2014-05-07T09:29:11Z</time>
      </trkpt>
      <trkpt lat="44.33325" lon="2.67693">
        <ele>735.0654297</ele>
        <time>2014-05-07T09:29:18Z</time>
      </trkpt>
      <trkpt lat="44.33321" lon="2.67698">
        <ele>734.5847168</ele>
        <time>2014-05-07T09:29:21Z</time>
      </trkpt>
      <trkpt lat="44.33321" lon="2.67714">
        <ele>736.0266113</ele>
        <time>2014-05-07T09:29:26Z</time>
      </trkpt>
      <trkpt lat="44.33327" lon="2.67719">
        <ele>737.9492188</ele>
        <time>2014-05-07T09:29:31Z</time>
      </trkpt>
      <trkpt lat="44.33328" lon="2.67719">
        <ele>737.9492188</ele>
        <time>2014-05-07T09:29:32Z</time>
      </trkpt>
      <trkpt lat="44.33339" lon="2.67712">
        <ele>740.8330078</ele>
        <time>2014-05-07T09:29:38Z</time>
      </trkpt>
      <trkpt lat="44.33349" lon="2.67706">
        <ele>742.7558594</ele>
        <time>2014-05-07T09:29:43Z</time>
      </trkpt>
      <trkpt lat="44.33362" lon="2.677">
        <ele>745.1589355</ele>
        <time>2014-05-07T09:29:49Z</time>
      </trkpt>
      <trkpt lat="44.33368" lon="2.67698">
        <ele>746.6010742</ele>
        <time>2014-05-07T09:29:52Z</time>
      </trkpt>
      <trkpt lat="44.33379" lon="2.67697">
        <ele>747.5622559</ele>
        <time>2014-05-07T09:29:57Z</time>
      </trkpt>
      <trkpt lat="44.33391" lon="2.67692">
        <ele>749.0043945</ele>
        <time>2014-05-07T09:30:03Z</time>
      </trkpt>
      <trkpt lat="44.33402" lon="2.67687">
        <ele>749.4851074</ele>
        <time>2014-05-07T09:30:09Z</time>
      </trkpt>
      <trkpt lat="44.33413" lon="2.67681">
        <ele>751.4077148</ele>
        <time>2014-05-07T09:30:14Z</time>
      </trkpt>
      <trkpt lat="44.33419" lon="2.6768">
        <ele>750.4465332</ele>
        <time>2014-05-07T09:30:18Z</time>
      </trkpt>
      <trkpt lat="44.33432" lon="2.67675">
        <ele>751.4077148</ele>
        <time>2014-05-07T09:30:24Z</time>
      </trkpt>
      <trkpt lat="44.33441" lon="2.6767">
        <ele>751.8884277</ele>
        <time>2014-05-07T09:30:29Z</time>
      </trkpt>
      <trkpt lat="44.33453" lon="2.67665">
        <ele>750.927002</ele>
        <time>2014-05-07T09:30:35Z</time>
      </trkpt>
      <trkpt lat="44.33461" lon="2.6766">
        <ele>748.5236816</ele>
        <time>2014-05-07T09:30:40Z</time>
      </trkpt>
      <trkpt lat="44.33471" lon="2.67652">
        <ele>746.6010742</ele>
        <time>2014-05-07T09:30:46Z</time>
      </trkpt>
      <trkpt lat="44.33481" lon="2.67648">
        <ele>746.1203613</ele>
        <time>2014-05-07T09:30:51Z</time>
      </trkpt>
      <trkpt lat="44.3349" lon="2.67646">
        <ele>747.081543</ele>
        <time>2014-05-07T09:30:56Z</time>
      </trkpt>
      <trkpt lat="44.33503" lon="2.67645">
        <ele>748.5236816</ele>
        <time>2014-05-07T09:31:03Z</time>
      </trkpt>
      <trkpt lat="44.33515" lon="2.67647">
        <ele>749.0043945</ele>
        <time>2014-05-07T09:31:09Z</time>
      </trkpt>
      <trkpt lat="44.33522" lon="2.6765">
        <ele>750.4465332</ele>
        <time>2014-05-07T09:31:13Z</time>
      </trkpt>
      <trkpt lat="44.33538" lon="2.67656">
        <ele>754.7722168</ele>
        <time>2014-05-07T09:31:19Z</time>
      </trkpt>
      <trkpt lat="44.33541" lon="2.6766">
        <ele>754.291748</ele>
        <time>2014-05-07T09:31:21Z</time>
      </trkpt>
      <trkpt lat="44.33546" lon="2.67666">
        <ele>753.3303223</ele>
        <time>2014-05-07T09:31:24Z</time>
      </trkpt>
      <trkpt lat="44.33556" lon="2.67677">
        <ele>753.3303223</ele>
        <time>2014-05-07T09:31:30Z</time>
      </trkpt>
      <trkpt lat="44.33558" lon="2.67679">
        <ele>752.8496094</ele>
        <time>2014-05-07T09:31:31Z</time>
      </trkpt>
      <trkpt lat="44.33564" lon="2.67691">
        <ele>752.3688965</ele>
        <time>2014-05-07T09:31:36Z</time>
      </trkpt>
      <trkpt lat="44.33573" lon="2.67703">
        <ele>753.8110352</ele>
        <time>2014-05-07T09:31:42Z</time>
      </trkpt>
      <trkpt lat="44.33577" lon="2.67706">
        <ele>754.7722168</ele>
        <time>2014-05-07T09:31:44Z</time>
      </trkpt>
      <trkpt lat="44.33588" lon="2.67716">
        <ele>755.2529297</ele>
        <time>2014-05-07T09:31:51Z</time>
      </trkpt>
      <trkpt lat="44.33602" lon="2.67719">
        <ele>756.6948242</ele>
        <time>2014-05-07T09:31:58Z</time>
      </trkpt>
      <trkpt lat="44.33608" lon="2.6772">
        <ele>756.6948242</ele>
        <time>2014-05-07T09:32:01Z</time>
      </trkpt>
      <trkpt lat="44.33619" lon="2.67722">
        <ele>758.1369629</ele>
        <time>2014-05-07T09:32:06Z</time>
      </trkpt>
      <trkpt lat="44.33631" lon="2.67723">
        <ele>761.9821777</ele>
        <time>2014-05-07T09:32:11Z</time>
      </trkpt>
      <trkpt lat="44.33643" lon="2.67724">
        <ele>764.8662109</ele>
        <time>2014-05-07T09:32:16Z</time>
      </trkpt>
      <trkpt lat="44.33648" lon="2.67723">
        <ele>765.8276367</ele>
        <time>2014-05-07T09:32:18Z</time>
      </trkpt>
      <trkpt lat="44.33662" lon="2.67726">
        <ele>768.7114258</ele>
        <time>2014-05-07T09:32:25Z</time>
      </trkpt>
      <trkpt lat="44.33673" lon="2.67725">
        <ele>772.0759277</ele>
        <time>2014-05-07T09:32:30Z</time>
      </trkpt>
      <trkpt lat="44.33678" lon="2.67723">
        <ele>773.9985352</ele>
        <time>2014-05-07T09:32:32Z</time>
      </trkpt>
      <trkpt lat="44.3369" lon="2.67727">
        <ele>774.9599609</ele>
        <time>2014-05-07T09:32:37Z</time>
      </trkpt>
      <trkpt lat="44.33692" lon="2.67727">
        <ele>775.9211426</ele>
        <time>2014-05-07T09:32:38Z</time>
      </trkpt>
      <trkpt lat="44.33706" lon="2.67729">
        <ele>777.3632813</ele>
        <time>2014-05-07T09:32:44Z</time>
      </trkpt>
      <trkpt lat="44.33721" lon="2.67726">
        <ele>782.6506348</ele>
        <time>2014-05-07T09:32:50Z</time>
      </trkpt>
      <trkpt lat="44.33733" lon="2.67723">
        <ele>784.0925293</ele>
        <time>2014-05-07T09:32:55Z</time>
      </trkpt>
      <trkpt lat="44.33744" lon="2.67714">
        <ele>784.5732422</ele>
        <time>2014-05-07T09:33:02Z</time>
      </trkpt>
      <trkpt lat="44.33748" lon="2.6771">
        <ele>784.5732422</ele>
        <time>2014-05-07T09:33:05Z</time>
      </trkpt>
      <trkpt lat="44.33754" lon="2.67702">
        <ele>786.9763184</ele>
        <time>2014-05-07T09:33:09Z</time>
      </trkpt>
      <trkpt lat="44.33764" lon="2.67684">
        <ele>786.4958496</ele>
        <time>2014-05-07T09:33:15Z</time>
      </trkpt>
      <trkpt lat="44.33771" lon="2.67669">
        <ele>786.4958496</ele>
        <time>2014-05-07T09:33:20Z</time>
      </trkpt>
      <trkpt lat="44.33775" lon="2.67657">
        <ele>787.4570313</ele>
        <time>2014-05-07T09:33:24Z</time>
      </trkpt>
      <trkpt lat="44.3378" lon="2.6765">
        <ele>789.8603516</ele>
        <time>2014-05-07T09:33:27Z</time>
      </trkpt>
      <trkpt lat="44.33783" lon="2.67623">
        <ele>789.8603516</ele>
        <time>2014-05-07T09:33:34Z</time>
      </trkpt>
      <trkpt lat="44.3379" lon="2.67606">
        <ele>789.3796387</ele>
        <time>2014-05-07T09:33:39Z</time>
      </trkpt>
      <trkpt lat="44.33794" lon="2.67601">
        <ele>789.8603516</ele>
        <time>2014-05-07T09:33:42Z</time>
      </trkpt>
      <trkpt lat="44.33806" lon="2.67595">
        <ele>790.8215332</ele>
        <time>2014-05-07T09:33:48Z</time>
      </trkpt>
      <trkpt lat="44.33815" lon="2.67593">
        <ele>791.3022461</ele>
        <time>2014-05-07T09:33:52Z</time>
      </trkpt>
      <trkpt lat="44.33831" lon="2.67582">
        <ele>792.7443848</ele>
        <time>2014-05-07T09:34:00Z</time>
      </trkpt>
      <trkpt lat="44.33841" lon="2.67566">
        <ele>792.7443848</ele>
        <time>2014-05-07T09:34:06Z</time>
      </trkpt>
      <trkpt lat="44.33842" lon="2.67552">
        <ele>794.1862793</ele>
        <time>2014-05-07T09:34:10Z</time>
      </trkpt>
      <trkpt lat="44.33841" lon="2.67531">
        <ele>794.666748</ele>
        <time>2014-05-07T09:34:15Z</time>
      </trkpt>
      <trkpt lat="44.33845" lon="2.67511">
        <ele>794.1862793</ele>
        <time>2014-05-07T09:34:20Z</time>
      </trkpt>
      <trkpt lat="44.33854" lon="2.67499">
        <ele>793.2248535</ele>
        <time>2014-05-07T09:34:24Z</time>
      </trkpt>
      <trkpt lat="44.33866" lon="2.67486">
        <ele>790.3410645</ele>
        <time>2014-05-07T09:34:30Z</time>
      </trkpt>
      <trkpt lat="44.33877" lon="2.67475">
        <ele>788.8991699</ele>
        <time>2014-05-07T09:34:35Z</time>
      </trkpt>
      <trkpt lat="44.33886" lon="2.67467">
        <ele>788.418457</ele>
        <time>2014-05-07T09:34:39Z</time>
      </trkpt>
      <trkpt lat="44.33898" lon="2.67455">
        <ele>786.9763184</ele>
        <time>2014-05-07T09:34:44Z</time>
      </trkpt>
      <trkpt lat="44.33911" lon="2.6744">
        <ele>786.9763184</ele>
        <time>2014-05-07T09:34:50Z</time>
      </trkpt>
      <trkpt lat="44.33922" lon="2.67431">
        <ele>786.4958496</ele>
        <time>2014-05-07T09:34:55Z</time>
      </trkpt>
      <trkpt lat="44.33931" lon="2.67422">
        <ele>786.9763184</ele>
        <time>2014-05-07T09:34:59Z</time>
      </trkpt>
      <trkpt lat="44.3394" lon="2.67414">
        <ele>786.4958496</ele>
        <time>2014-05-07T09:35:03Z</time>
      </trkpt>
      <trkpt lat="44.33952" lon="2.674">
        <ele>786.9763184</ele>
        <time>2014-05-07T09:35:09Z</time>
      </trkpt>
      <trkpt lat="44.33965" lon="2.67387">
        <ele>787.4570313</ele>
        <time>2014-05-07T09:35:15Z</time>
      </trkpt>
      <trkpt lat="44.33969" lon="2.67382">
        <ele>787.9377441</ele>
        <time>2014-05-07T09:35:17Z</time>
      </trkpt>
      <trkpt lat="44.3398" lon="2.67368">
        <ele>787.4570313</ele>
        <time>2014-05-07T09:35:23Z</time>
      </trkpt>
      <trkpt lat="44.33991" lon="2.67351">
        <ele>787.4570313</ele>
        <time>2014-05-07T09:35:29Z</time>
      </trkpt>
      <trkpt lat="44.34001" lon="2.67331">
        <ele>787.4570313</ele>
        <time>2014-05-07T09:35:35Z</time>
      </trkpt>
      <trkpt lat="44.34009" lon="2.67318">
        <ele>786.4958496</ele>
        <time>2014-05-07T09:35:39Z</time>
      </trkpt>
      <trkpt lat="44.34016" lon="2.67308">
        <ele>785.0539551</ele>
        <time>2014-05-07T09:35:43Z</time>
      </trkpt>
      <trkpt lat="44.34027" lon="2.67295">
        <ele>785.5344238</ele>
        <time>2014-05-07T09:35:48Z</time>
      </trkpt>
      <trkpt lat="44.34041" lon="2.67282">
        <ele>784.0925293</ele>
        <time>2014-05-07T09:35:54Z</time>
      </trkpt>
      <trkpt lat="44.34049" lon="2.67278">
        <ele>782.6506348</ele>
        <time>2014-05-07T09:35:57Z</time>
      </trkpt>
      <trkpt lat="44.34053" lon="2.6727">
        <ele>781.2087402</ele>
        <time>2014-05-07T09:36:02Z</time>
      </trkpt>
      <trkpt lat="44.34054" lon="2.6727">
        <ele>780.7280273</ele>
        <time>2014-05-07T09:36:04Z</time>
      </trkpt>
      <trkpt lat="44.3406" lon="2.6727">
        <ele>780.2473145</ele>
        <time>2014-05-07T09:36:08Z</time>
      </trkpt>
      <trkpt lat="44.34065" lon="2.67266">
        <ele>780.2473145</ele>
        <time>2014-05-07T09:36:10Z</time>
      </trkpt>
      <trkpt lat="44.34076" lon="2.67255">
        <ele>779.7663574</ele>
        <time>2014-05-07T09:36:15Z</time>
      </trkpt>
      <trkpt lat="44.34092" lon="2.67236">
        <ele>778.3244629</ele>
        <time>2014-05-07T09:36:22Z</time>
      </trkpt>
      <trkpt lat="44.341" lon="2.67227">
        <ele>775.9211426</ele>
        <time>2014-05-07T09:36:26Z</time>
      </trkpt>
      <trkpt lat="44.34106" lon="2.67217">
        <ele>774.9599609</ele>
        <time>2014-05-07T09:36:30Z</time>
      </trkpt>
      <trkpt lat="44.34115" lon="2.67205">
        <ele>773.9985352</ele>
        <time>2014-05-07T09:36:35Z</time>
      </trkpt>
      <trkpt lat="44.34125" lon="2.67195">
        <ele>773.0373535</ele>
        <time>2014-05-07T09:36:39Z</time>
      </trkpt>
      <trkpt lat="44.34136" lon="2.67181">
        <ele>770.6340332</ele>
        <time>2014-05-07T09:36:44Z</time>
      </trkpt>
      <trkpt lat="44.34147" lon="2.67165">
        <ele>768.2307129</ele>
        <time>2014-05-07T09:36:49Z</time>
      </trkpt>
      <trkpt lat="44.34156" lon="2.67155">
        <ele>766.3081055</ele>
        <time>2014-05-07T09:36:53Z</time>
      </trkpt>
      <trkpt lat="44.34167" lon="2.67145">
        <ele>765.3469238</ele>
        <time>2014-05-07T09:36:57Z</time>
      </trkpt>
      <trkpt lat="44.34181" lon="2.67134">
        <ele>765.8276367</ele>
        <time>2014-05-07T09:37:03Z</time>
      </trkpt>
      <trkpt lat="44.34191" lon="2.67129">
        <ele>764.385498</ele>
        <time>2014-05-07T09:37:07Z</time>
      </trkpt>
      <trkpt lat="44.34205" lon="2.67121">
        <ele>763.904541</ele>
        <time>2014-05-07T09:37:12Z</time>
      </trkpt>
      <trkpt lat="44.3422" lon="2.67116">
        <ele>762.9433594</ele>
        <time>2014-05-07T09:37:17Z</time>
      </trkpt>
      <trkpt lat="44.3423" lon="2.67109">
        <ele>761.5014648</ele>
        <time>2014-05-07T09:37:21Z</time>
      </trkpt>
      <trkpt lat="44.34243" lon="2.67097">
        <ele>760.5400391</ele>
        <time>2014-05-07T09:37:26Z</time>
      </trkpt>
      <trkpt lat="44.34254" lon="2.67088">
        <ele>760.0593262</ele>
        <time>2014-05-07T09:37:30Z</time>
      </trkpt>
      <trkpt lat="44.34268" lon="2.67073">
        <ele>758.6174316</ele>
        <time>2014-05-07T09:37:36Z</time>
      </trkpt>
      <trkpt lat="44.34276" lon="2.6706">
        <ele>757.65625</ele>
        <time>2014-05-07T09:37:40Z</time>
      </trkpt>
      <trkpt lat="44.34283" lon="2.67043">
        <ele>756.2141113</ele>
        <time>2014-05-07T09:37:44Z</time>
      </trkpt>
      <trkpt lat="44.34286" lon="2.67026">
        <ele>754.7722168</ele>
        <time>2014-05-07T09:37:48Z</time>
      </trkpt>
      <trkpt lat="44.34294" lon="2.67004">
        <ele>751.8884277</ele>
        <time>2014-05-07T09:37:54Z</time>
      </trkpt>
      <trkpt lat="44.34304" lon="2.66989">
        <ele>749.4851074</ele>
        <time>2014-05-07T09:37:59Z</time>
      </trkpt>
      <trkpt lat="44.34314" lon="2.66977">
        <ele>745.6396484</ele>
        <time>2014-05-07T09:38:04Z</time>
      </trkpt>
      <trkpt lat="44.34322" lon="2.66968">
        <ele>743.717041</ele>
        <time>2014-05-07T09:38:07Z</time>
      </trkpt>
      <trkpt lat="44.34332" lon="2.66957">
        <ele>740.8330078</ele>
        <time>2014-05-07T09:38:11Z</time>
      </trkpt>
      <trkpt lat="44.34341" lon="2.66946">
        <ele>738.9106445</ele>
        <time>2014-05-07T09:38:15Z</time>
      </trkpt>
      <trkpt lat="44.34349" lon="2.66936">
        <ele>737.9492188</ele>
        <time>2014-05-07T09:38:19Z</time>
      </trkpt>
      <trkpt lat="44.34359" lon="2.66923">
        <ele>736.987793</ele>
        <time>2014-05-07T09:38:24Z</time>
      </trkpt>
      <trkpt lat="44.3437" lon="2.66908">
        <ele>737.4685059</ele>
        <time>2014-05-07T09:38:29Z</time>
      </trkpt>
      <trkpt lat="44.34384" lon="2.66897">
        <ele>736.987793</ele>
        <time>2014-05-07T09:38:34Z</time>
      </trkpt>
      <trkpt lat="44.34397" lon="2.66883">
        <ele>736.987793</ele>
        <time>2014-05-07T09:38:40Z</time>
      </trkpt>
      <trkpt lat="44.34399" lon="2.66881">
        <ele>736.987793</ele>
        <time>2014-05-07T09:38:41Z</time>
      </trkpt>
      <trkpt lat="44.34413" lon="2.66872">
        <ele>734.5847168</ele>
        <time>2014-05-07T09:38:47Z</time>
      </trkpt>
      <trkpt lat="44.34425" lon="2.66853">
        <ele>732.1813965</ele>
        <time>2014-05-07T09:38:53Z</time>
      </trkpt>
      <trkpt lat="44.34437" lon="2.66838">
        <ele>731.2199707</ele>
        <time>2014-05-07T09:38:58Z</time>
      </trkpt>
      <trkpt lat="44.34443" lon="2.66825">
        <ele>727.8552246</ele>
        <time>2014-05-07T09:39:02Z</time>
      </trkpt>
      <trkpt lat="44.34449" lon="2.66812">
        <ele>723.529541</ele>
        <time>2014-05-07T09:39:06Z</time>
      </trkpt>
      <trkpt lat="44.34454" lon="2.66801">
        <ele>720.1647949</ele>
        <time>2014-05-07T09:39:09Z</time>
      </trkpt>
      <trkpt lat="44.34461" lon="2.66787">
        <ele>716.3195801</ele>
        <time>2014-05-07T09:39:13Z</time>
      </trkpt>
      <trkpt lat="44.3447" lon="2.66774">
        <ele>711.9936523</ele>
        <time>2014-05-07T09:39:18Z</time>
      </trkpt>
      <trkpt lat="44.34481" lon="2.66759">
        <ele>708.1484375</ele>
        <time>2014-05-07T09:39:23Z</time>
      </trkpt>
      <trkpt lat="44.34484" lon="2.66756">
        <ele>707.6677246</ele>
        <time>2014-05-07T09:39:24Z</time>
      </trkpt>
      <trkpt lat="44.34495" lon="2.66746">
        <ele>706.7062988</ele>
        <time>2014-05-07T09:39:29Z</time>
      </trkpt>
      <trkpt lat="44.34496" lon="2.66745">
        <ele>707.6677246</ele>
        <time>2014-05-07T09:39:34Z</time>
      </trkpt>
      <trkpt lat="44.34505" lon="2.66735">
        <ele>707.1870117</ele>
        <time>2014-05-07T09:39:39Z</time>
      </trkpt>
      <trkpt lat="44.34519" lon="2.66724">
        <ele>706.7062988</ele>
        <time>2014-05-07T09:39:44Z</time>
      </trkpt>
      <trkpt lat="44.34531" lon="2.66714">
        <ele>703.8225098</ele>
        <time>2014-05-07T09:39:49Z</time>
      </trkpt>
      <trkpt lat="44.3454" lon="2.66709">
        <ele>702.861084</ele>
        <time>2014-05-07T09:39:53Z</time>
      </trkpt>
      <trkpt lat="44.34541" lon="2.66706">
        <ele>702.861084</ele>
        <time>2014-05-07T09:39:56Z</time>
      </trkpt>
      <trkpt lat="44.34541" lon="2.66704">
        <ele>704.7836914</ele>
        <time>2014-05-07T09:40:04Z</time>
      </trkpt>
      <trkpt lat="44.34541" lon="2.66702">
        <ele>705.7451172</ele>
        <time>2014-05-07T09:40:09Z</time>
      </trkpt>
      <trkpt lat="44.34548" lon="2.66691">
        <ele>706.2255859</ele>
        <time>2014-05-07T09:40:14Z</time>
      </trkpt>
      <trkpt lat="44.34546" lon="2.66676">
        <ele>706.7062988</ele>
        <time>2014-05-07T09:40:18Z</time>
      </trkpt>
      <trkpt lat="44.34543" lon="2.66658">
        <ele>706.2255859</ele>
        <time>2014-05-07T09:40:23Z</time>
      </trkpt>
      <trkpt lat="44.34539" lon="2.66632">
        <ele>705.7451172</ele>
        <time>2014-05-07T09:40:29Z</time>
      </trkpt>
      <trkpt lat="44.34537" lon="2.66616">
        <ele>702.3803711</ele>
        <time>2014-05-07T09:40:33Z</time>
      </trkpt>
      <trkpt lat="44.34537" lon="2.666">
        <ele>697.0930176</ele>
        <time>2014-05-07T09:40:37Z</time>
      </trkpt>
      <trkpt lat="44.34534" lon="2.66583">
        <ele>693.7285156</ele>
        <time>2014-05-07T09:40:41Z</time>
      </trkpt>
      <trkpt lat="44.34533" lon="2.66571">
        <ele>689.8833008</ele>
        <time>2014-05-07T09:40:46Z</time>
      </trkpt>
      <trkpt lat="44.3453" lon="2.66555">
        <ele>686.9992676</ele>
        <time>2014-05-07T09:40:51Z</time>
      </trkpt>
      <trkpt lat="44.34529" lon="2.66549">
        <ele>685.0769043</ele>
        <time>2014-05-07T09:40:53Z</time>
      </trkpt>
      <trkpt lat="44.34528" lon="2.66532">
        <ele>680.7507324</ele>
        <time>2014-05-07T09:40:58Z</time>
      </trkpt>
      <trkpt lat="44.34523" lon="2.66519">
        <ele>677.3862305</ele>
        <time>2014-05-07T09:41:02Z</time>
      </trkpt>
      <trkpt lat="44.34519" lon="2.66511">
        <ele>676.9055176</ele>
        <time>2014-05-07T09:41:05Z</time>
      </trkpt>
      <trkpt lat="44.34519" lon="2.66504">
        <ele>674.5021973</ele>
        <time>2014-05-07T09:41:10Z</time>
      </trkpt>
      <trkpt lat="44.34522" lon="2.66502">
        <ele>674.0214844</ele>
        <time>2014-05-07T09:41:12Z</time>
      </trkpt>
      <trkpt lat="44.34534" lon="2.66501">
        <ele>673.5410156</ele>
        <time>2014-05-07T09:41:18Z</time>
      </trkpt>
      <trkpt lat="44.34547" lon="2.665">
        <ele>671.1376953</ele>
        <time>2014-05-07T09:41:23Z</time>
      </trkpt>
      <trkpt lat="44.3456" lon="2.66498">
        <ele>671.6181641</ele>
        <time>2014-05-07T09:41:28Z</time>
      </trkpt>
      <trkpt lat="44.34575" lon="2.66493">
        <ele>673.5410156</ele>
        <time>2014-05-07T09:41:34Z</time>
      </trkpt>
      <trkpt lat="44.34585" lon="2.66491">
        <ele>674.0214844</ele>
        <time>2014-05-07T09:41:37Z</time>
      </trkpt>
      <trkpt lat="44.34597" lon="2.66487">
        <ele>674.0214844</ele>
        <time>2014-05-07T09:41:41Z</time>
      </trkpt>
      <trkpt lat="44.34611" lon="2.66491">
        <ele>672.5795898</ele>
        <time>2014-05-07T09:41:45Z</time>
      </trkpt>
      <trkpt lat="44.34622" lon="2.66493">
        <ele>669.2150879</ele>
        <time>2014-05-07T09:41:49Z</time>
      </trkpt>
      <trkpt lat="44.34631" lon="2.66496">
        <ele>666.8115234</ele>
        <time>2014-05-07T09:41:54Z</time>
      </trkpt>
      <trkpt lat="44.34644" lon="2.66497">
        <ele>663.4470215</ele>
        <time>2014-05-07T09:41:58Z</time>
      </trkpt>
      <trkpt lat="44.34662" lon="2.66499">
        <ele>662.005127</ele>
        <time>2014-05-07T09:42:03Z</time>
      </trkpt>
      <trkpt lat="44.34668" lon="2.665">
        <ele>659.1210938</ele>
        <time>2014-05-07T09:42:06Z</time>
      </trkpt>
      <trkpt lat="44.34687" lon="2.66498">
        <ele>656.2370605</ele>
        <time>2014-05-07T09:42:12Z</time>
      </trkpt>
      <trkpt lat="44.34695" lon="2.66495">
        <ele>654.795166</ele>
        <time>2014-05-07T09:42:15Z</time>
      </trkpt>
      <trkpt lat="44.34704" lon="2.66491">
        <ele>652.8725586</ele>
        <time>2014-05-07T09:42:20Z</time>
      </trkpt>
      <trkpt lat="44.34702" lon="2.66486">
        <ele>652.3918457</ele>
        <time>2014-05-07T09:42:22Z</time>
      </trkpt>
      <trkpt lat="44.34689" lon="2.66473">
        <ele>651.4304199</ele>
        <time>2014-05-07T09:42:28Z</time>
      </trkpt>
      <trkpt lat="44.34681" lon="2.66462">
        <ele>651.4304199</ele>
        <time>2014-05-07T09:42:32Z</time>
      </trkpt>
      <trkpt lat="44.34671" lon="2.66452">
        <ele>655.2758789</ele>
        <time>2014-05-07T09:42:37Z</time>
      </trkpt>
      <trkpt lat="44.34657" lon="2.6644">
        <ele>658.6403809</ele>
        <time>2014-05-07T09:42:43Z</time>
      </trkpt>
      <trkpt lat="44.34644" lon="2.66425">
        <ele>658.6403809</ele>
        <time>2014-05-07T09:42:49Z</time>
      </trkpt>
      <trkpt lat="44.34631" lon="2.66414">
        <ele>658.1599121</ele>
        <time>2014-05-07T09:42:54Z</time>
      </trkpt>
      <trkpt lat="44.34621" lon="2.6641">
        <ele>659.6018066</ele>
        <time>2014-05-07T09:42:58Z</time>
      </trkpt>
      <trkpt lat="44.34613" lon="2.66411">
        <ele>659.6018066</ele>
        <time>2014-05-07T09:43:02Z</time>
      </trkpt>
      <trkpt lat="44.34608" lon="2.66409">
        <ele>658.6403809</ele>
        <time>2014-05-07T09:43:05Z</time>
      </trkpt>
      <trkpt lat="44.34591" lon="2.66409">
        <ele>651.9111328</ele>
        <time>2014-05-07T09:43:12Z</time>
      </trkpt>
      <trkpt lat="44.34581" lon="2.66411">
        <ele>649.9885254</ele>
        <time>2014-05-07T09:43:17Z</time>
      </trkpt>
      <trkpt lat="44.34568" lon="2.66411">
        <ele>646.6240234</ele>
        <time>2014-05-07T09:43:23Z</time>
      </trkpt>
      <trkpt lat="44.3456" lon="2.66411">
        <ele>644.7011719</ele>
        <time>2014-05-07T09:43:27Z</time>
      </trkpt>
      <trkpt lat="44.34543" lon="2.6641">
        <ele>641.8173828</ele>
        <time>2014-05-07T09:43:33Z</time>
      </trkpt>
      <trkpt lat="44.34531" lon="2.66415">
        <ele>639.8947754</ele>
        <time>2014-05-07T09:43:39Z</time>
      </trkpt>
      <trkpt lat="44.34519" lon="2.66419">
        <ele>642.2980957</ele>
        <time>2014-05-07T09:43:45Z</time>
      </trkpt>
      <trkpt lat="44.34509" lon="2.66423">
        <ele>637.0107422</ele>
        <time>2014-05-07T09:43:49Z</time>
      </trkpt>
      <trkpt lat="44.34497" lon="2.66428">
        <ele>638.4528809</ele>
        <time>2014-05-07T09:43:55Z</time>
      </trkpt>
      <trkpt lat="44.34487" lon="2.66434">
        <ele>639.8947754</ele>
        <time>2014-05-07T09:44:00Z</time>
      </trkpt>
      <trkpt lat="44.34477" lon="2.66443">
        <ele>637.4914551</ele>
        <time>2014-05-07T09:44:05Z</time>
      </trkpt>
      <trkpt lat="44.34466" lon="2.66453">
        <ele>638.9335938</ele>
        <time>2014-05-07T09:44:10Z</time>
      </trkpt>
      <trkpt lat="44.34453" lon="2.66464">
        <ele>643.2592773</ele>
        <time>2014-05-07T09:44:16Z</time>
      </trkpt>
      <trkpt lat="44.34443" lon="2.66472">
        <ele>649.0270996</ele>
        <time>2014-05-07T09:44:22Z</time>
      </trkpt>
      <trkpt lat="44.34435" lon="2.6648">
        <ele>652.8725586</ele>
        <time>2014-05-07T09:44:27Z</time>
      </trkpt>
      <trkpt lat="44.34428" lon="2.66483">
        <ele>656.2370605</ele>
        <time>2014-05-07T09:44:31Z</time>
      </trkpt>
      <trkpt lat="44.34422" lon="2.66486">
        <ele>654.795166</ele>
        <time>2014-05-07T09:44:35Z</time>
      </trkpt>
      <trkpt lat="44.34418" lon="2.66489">
        <ele>655.2758789</ele>
        <time>2014-05-07T09:44:40Z</time>
      </trkpt>
      <trkpt lat="44.34412" lon="2.66493">
        <ele>655.2758789</ele>
        <time>2014-05-07T09:44:45Z</time>
      </trkpt>
      <trkpt lat="44.34407" lon="2.66501">
        <ele>649.9885254</ele>
        <time>2014-05-07T09:44:50Z</time>
      </trkpt>
      <trkpt lat="44.34402" lon="2.6651">
        <ele>651.4304199</ele>
        <time>2014-05-07T09:44:57Z</time>
      </trkpt>
      <trkpt lat="44.34393" lon="2.66522">
        <ele>653.3532715</ele>
        <time>2014-05-07T09:45:06Z</time>
      </trkpt>
      <trkpt lat="44.34388" lon="2.66532">
        <ele>653.3532715</ele>
        <time>2014-05-07T09:45:14Z</time>
      </trkpt>
      <trkpt lat="44.34382" lon="2.66538">
        <ele>656.7177734</ele>
        <time>2014-05-07T09:45:20Z</time>
      </trkpt>
      <trkpt lat="44.34378" lon="2.66541">
        <ele>657.6791992</ele>
        <time>2014-05-07T09:45:23Z</time>
      </trkpt>
      <trkpt lat="44.3437" lon="2.66549">
        <ele>660.5629883</ele>
        <time>2014-05-07T09:45:28Z</time>
      </trkpt>
      <trkpt lat="44.34357" lon="2.66555">
        <ele>665.8503418</ele>
        <time>2014-05-07T09:45:34Z</time>
      </trkpt>
      <trkpt lat="44.34351" lon="2.66557">
        <ele>667.7727051</ele>
        <time>2014-05-07T09:45:37Z</time>
      </trkpt>
      <trkpt lat="44.34338" lon="2.66555">
        <ele>667.2922363</ele>
        <time>2014-05-07T09:45:43Z</time>
      </trkpt>
      <trkpt lat="44.34326" lon="2.66551">
        <ele>667.7727051</ele>
        <time>2014-05-07T09:45:48Z</time>
      </trkpt>
      <trkpt lat="44.34317" lon="2.66547">
        <ele>669.2150879</ele>
        <time>2014-05-07T09:45:52Z</time>
      </trkpt>
      <trkpt lat="44.34305" lon="2.66544">
        <ele>671.1376953</ele>
        <time>2014-05-07T09:45:57Z</time>
      </trkpt>
      <trkpt lat="44.34293" lon="2.66547">
        <ele>672.5795898</ele>
        <time>2014-05-07T09:46:02Z</time>
      </trkpt>
      <trkpt lat="44.34286" lon="2.6655">
        <ele>668.2536621</ele>
        <time>2014-05-07T09:46:05Z</time>
      </trkpt>
      <trkpt lat="44.34276" lon="2.6656">
        <ele>668.2536621</ele>
        <time>2014-05-07T09:46:11Z</time>
      </trkpt>
      <trkpt lat="44.3427" lon="2.66567">
        <ele>667.2922363</ele>
        <time>2014-05-07T09:46:16Z</time>
      </trkpt>
      <trkpt lat="44.34266" lon="2.66573">
        <ele>667.7727051</ele>
        <time>2014-05-07T09:46:20Z</time>
      </trkpt>
      <trkpt lat="44.34256" lon="2.66587">
        <ele>672.098877</ele>
        <time>2014-05-07T09:46:27Z</time>
      </trkpt>
      <trkpt lat="44.34249" lon="2.66593">
        <ele>679.7893066</ele>
        <time>2014-05-07T09:46:32Z</time>
      </trkpt>
      <trkpt lat="44.34246" lon="2.66601">
        <ele>691.3251953</ele>
        <time>2014-05-07T09:46:39Z</time>
      </trkpt>
      <trkpt lat="44.34245" lon="2.66602">
        <ele>697.0930176</ele>
        <time>2014-05-07T09:46:43Z</time>
      </trkpt>
      <trkpt lat="44.34236" lon="2.66598">
        <ele>688.4414063</ele>
        <time>2014-05-07T09:46:53Z</time>
      </trkpt>
      <trkpt lat="44.34235" lon="2.66599">
        <ele>687.9606934</ele>
        <time>2014-05-07T09:46:54Z</time>
      </trkpt>
      <trkpt lat="44.34226" lon="2.66606">
        <ele>686.9992676</ele>
        <time>2014-05-07T09:47:00Z</time>
      </trkpt>
      <trkpt lat="44.34217" lon="2.66615">
        <ele>688.9221191</ele>
        <time>2014-05-07T09:47:05Z</time>
      </trkpt>
      <trkpt lat="44.3421" lon="2.6662">
        <ele>686.0380859</ele>
        <time>2014-05-07T09:47:08Z</time>
      </trkpt>
      <trkpt lat="44.34198" lon="2.66628">
        <ele>680.7507324</ele>
        <time>2014-05-07T09:47:14Z</time>
      </trkpt>
      <trkpt lat="44.34192" lon="2.66633">
        <ele>679.3085938</ele>
        <time>2014-05-07T09:47:17Z</time>
      </trkpt>
      <trkpt lat="44.34185" lon="2.66646">
        <ele>680.7507324</ele>
        <time>2014-05-07T09:47:23Z</time>
      </trkpt>
      <trkpt lat="44.34179" lon="2.66652">
        <ele>681.2314453</ele>
        <time>2014-05-07T09:47:27Z</time>
      </trkpt>
      <trkpt lat="44.34171" lon="2.66656">
        <ele>681.2314453</ele>
        <time>2014-05-07T09:47:31Z</time>
      </trkpt>
      <trkpt lat="44.34162" lon="2.66658">
        <ele>680.2700195</ele>
        <time>2014-05-07T09:47:35Z</time>
      </trkpt>
      <trkpt lat="44.34154" lon="2.66663">
        <ele>675.9440918</ele>
        <time>2014-05-07T09:47:39Z</time>
      </trkpt>
      <trkpt lat="44.34141" lon="2.66667">
        <ele>674.9829102</ele>
        <time>2014-05-07T09:47:46Z</time>
      </trkpt>
      <trkpt lat="44.34129" lon="2.66662">
        <ele>675.4633789</ele>
        <time>2014-05-07T09:47:52Z</time>
      </trkpt>
      <trkpt lat="44.34124" lon="2.66664">
        <ele>674.0214844</ele>
        <time>2014-05-07T09:47:54Z</time>
      </trkpt>
      <trkpt lat="44.34111" lon="2.66676">
        <ele>671.6181641</ele>
        <time>2014-05-07T09:47:59Z</time>
      </trkpt>
      <trkpt lat="44.34107" lon="2.66685">
        <ele>672.098877</ele>
        <time>2014-05-07T09:48:02Z</time>
      </trkpt>
      <trkpt lat="44.34101" lon="2.66687">
        <ele>671.1376953</ele>
        <time>2014-05-07T09:48:06Z</time>
      </trkpt>
      <trkpt lat="44.34095" lon="2.66683">
        <ele>671.1376953</ele>
        <time>2014-05-07T09:48:10Z</time>
      </trkpt>
      <trkpt lat="44.34085" lon="2.66668">
        <ele>674.0214844</ele>
        <time>2014-05-07T09:48:16Z</time>
      </trkpt>
      <trkpt lat="44.34075" lon="2.66654">
        <ele>675.4633789</ele>
        <time>2014-05-07T09:48:22Z</time>
      </trkpt>
      <trkpt lat="44.34068" lon="2.6664">
        <ele>674.0214844</ele>
        <time>2014-05-07T09:48:27Z</time>
      </trkpt>
      <trkpt lat="44.34063" lon="2.66627">
        <ele>674.9829102</ele>
        <time>2014-05-07T09:48:32Z</time>
      </trkpt>
      <trkpt lat="44.34057" lon="2.66617">
        <ele>675.4633789</ele>
        <time>2014-05-07T09:48:36Z</time>
      </trkpt>
      <trkpt lat="44.34053" lon="2.66611">
        <ele>676.9055176</ele>
        <time>2014-05-07T09:48:39Z</time>
      </trkpt>
      <trkpt lat="44.34043" lon="2.66604">
        <ele>679.3085938</ele>
        <time>2014-05-07T09:48:44Z</time>
      </trkpt>
      <trkpt lat="44.34033" lon="2.666">
        <ele>680.7507324</ele>
        <time>2014-05-07T09:48:48Z</time>
      </trkpt>
      <trkpt lat="44.3402" lon="2.66599">
        <ele>682.6733398</ele>
        <time>2014-05-07T09:48:53Z</time>
      </trkpt>
      <trkpt lat="44.34007" lon="2.66586">
        <ele>681.7119141</ele>
        <time>2014-05-07T09:48:59Z</time>
      </trkpt>
      <trkpt lat="44.34" lon="2.66573">
        <ele>678.828125</ele>
        <time>2014-05-07T09:49:03Z</time>
      </trkpt>
      <trkpt lat="44.33995" lon="2.66562">
        <ele>675.9440918</ele>
        <time>2014-05-07T09:49:06Z</time>
      </trkpt>
      <trkpt lat="44.33991" lon="2.66551">
        <ele>672.5795898</ele>
        <time>2014-05-07T09:49:10Z</time>
      </trkpt>
      <trkpt lat="44.33984" lon="2.66542">
        <ele>670.6569824</ele>
        <time>2014-05-07T09:49:13Z</time>
      </trkpt>
      <trkpt lat="44.33975" lon="2.66528">
        <ele>666.8115234</ele>
        <time>2014-05-07T09:49:18Z</time>
      </trkpt>
      <trkpt lat="44.33963" lon="2.66525">
        <ele>660.5629883</ele>
        <time>2014-05-07T09:49:22Z</time>
      </trkpt>
      <trkpt lat="44.33959" lon="2.66524">
        <ele>658.6403809</ele>
        <time>2014-05-07T09:49:24Z</time>
      </trkpt>
      <trkpt lat="44.33949" lon="2.66518">
        <ele>652.3918457</ele>
        <time>2014-05-07T09:49:29Z</time>
      </trkpt>
      <trkpt lat="44.33945" lon="2.66518">
        <ele>648.5463867</ele>
        <time>2014-05-07T09:49:31Z</time>
      </trkpt>
      <trkpt lat="44.33936" lon="2.66517">
        <ele>643.2592773</ele>
        <time>2014-05-07T09:49:36Z</time>
      </trkpt>
      <trkpt lat="44.33919" lon="2.66517">
        <ele>644.7011719</ele>
        <time>2014-05-07T09:49:41Z</time>
      </trkpt>
      <trkpt lat="44.33917" lon="2.66517">
        <ele>644.2207031</ele>
        <time>2014-05-07T09:49:42Z</time>
      </trkpt>
      <trkpt lat="44.33907" lon="2.66517">
        <ele>641.3366699</ele>
        <time>2014-05-07T09:49:47Z</time>
      </trkpt>
      <trkpt lat="44.33898" lon="2.66513">
        <ele>641.3366699</ele>
        <time>2014-05-07T09:49:51Z</time>
      </trkpt>
      <trkpt lat="44.33895" lon="2.66511">
        <ele>640.3754883</ele>
        <time>2014-05-07T09:49:52Z</time>
      </trkpt>
      <trkpt lat="44.33882" lon="2.66505">
        <ele>637.0107422</ele>
        <time>2014-05-07T09:49:57Z</time>
      </trkpt>
      <trkpt lat="44.33868" lon="2.66494">
        <ele>634.6074219</ele>
        <time>2014-05-07T09:50:02Z</time>
      </trkpt>
      <trkpt lat="44.33857" lon="2.66488">
        <ele>631.2429199</ele>
        <time>2014-05-07T09:50:06Z</time>
      </trkpt>
      <trkpt lat="44.33846" lon="2.66483">
        <ele>626.9169922</ele>
        <time>2014-05-07T09:50:10Z</time>
      </trkpt>
      <trkpt lat="44.33834" lon="2.66479">
        <ele>624.032959</ele>
        <time>2014-05-07T09:50:14Z</time>
      </trkpt>
      <trkpt lat="44.33819" lon="2.66473">
        <ele>619.7070313</ele>
        <time>2014-05-07T09:50:19Z</time>
      </trkpt>
      <trkpt lat="44.33804" lon="2.66471">
        <ele>614.9003906</ele>
        <time>2014-05-07T09:50:24Z</time>
      </trkpt>
      <trkpt lat="44.33798" lon="2.66473">
        <ele>612.4970703</ele>
        <time>2014-05-07T09:50:26Z</time>
      </trkpt>
      <trkpt lat="44.33789" lon="2.66482">
        <ele>609.1325684</ele>
        <time>2014-05-07T09:50:31Z</time>
      </trkpt>
      <trkpt lat="44.33781" lon="2.66487">
        <ele>606.2485352</ele>
        <time>2014-05-07T09:50:35Z</time>
      </trkpt>
      <trkpt lat="44.33779" lon="2.66479">
        <ele>607.6906738</ele>
        <time>2014-05-07T09:50:38Z</time>
      </trkpt>
      <trkpt lat="44.3378" lon="2.66459">
        <ele>608.1713867</ele>
        <time>2014-05-07T09:50:44Z</time>
      </trkpt>
      <trkpt lat="44.33778" lon="2.66446">
        <ele>611.0551758</ele>
        <time>2014-05-07T09:50:48Z</time>
      </trkpt>
      <trkpt lat="44.33772" lon="2.66432">
        <ele>617.3037109</ele>
        <time>2014-05-07T09:50:53Z</time>
      </trkpt>
      <trkpt lat="44.33765" lon="2.6642">
        <ele>626.4362793</ele>
        <time>2014-05-07T09:50:58Z</time>
      </trkpt>
      <trkpt lat="44.33754" lon="2.66409">
        <ele>630.762207</ele>
        <time>2014-05-07T09:51:04Z</time>
      </trkpt>
      <trkpt lat="44.33742" lon="2.66398">
        <ele>627.3977051</ele>
        <time>2014-05-07T09:51:10Z</time>
      </trkpt>
      <trkpt lat="44.33732" lon="2.66392">
        <ele>626.9169922</ele>
        <time>2014-05-07T09:51:15Z</time>
      </trkpt>
      <trkpt lat="44.33723" lon="2.66387">
        <ele>625.9555664</ele>
        <time>2014-05-07T09:51:19Z</time>
      </trkpt>
      <trkpt lat="44.33715" lon="2.66385">
        <ele>630.762207</ele>
        <time>2014-05-07T09:51:23Z</time>
      </trkpt>
      <trkpt lat="44.33704" lon="2.66379">
        <ele>635.5686035</ele>
        <time>2014-05-07T09:51:28Z</time>
      </trkpt>
      <trkpt lat="44.3369" lon="2.6637">
        <ele>633.6459961</ele>
        <time>2014-05-07T09:51:35Z</time>
      </trkpt>
      <trkpt lat="44.33678" lon="2.66362">
        <ele>637.4914551</ele>
        <time>2014-05-07T09:51:41Z</time>
      </trkpt>
      <trkpt lat="44.33667" lon="2.66352">
        <ele>638.4528809</ele>
        <time>2014-05-07T09:51:47Z</time>
      </trkpt>
      <trkpt lat="44.33658" lon="2.66337">
        <ele>638.9335938</ele>
        <time>2014-05-07T09:51:53Z</time>
      </trkpt>
      <trkpt lat="44.33651" lon="2.66324">
        <ele>634.126709</ele>
        <time>2014-05-07T09:51:58Z</time>
      </trkpt>
      <trkpt lat="44.33645" lon="2.66308">
        <ele>629.3200684</ele>
        <time>2014-05-07T09:52:04Z</time>
      </trkpt>
      <trkpt lat="44.33637" lon="2.66292">
        <ele>625.9555664</ele>
        <time>2014-05-07T09:52:10Z</time>
      </trkpt>
      <trkpt lat="44.33631" lon="2.66278">
        <ele>625.9555664</ele>
        <time>2014-05-07T09:52:15Z</time>
      </trkpt>
      <trkpt lat="44.33627" lon="2.66262">
        <ele>627.8781738</ele>
        <time>2014-05-07T09:52:20Z</time>
      </trkpt>
      <trkpt lat="44.33622" lon="2.66241">
        <ele>624.5136719</ele>
        <time>2014-05-07T09:52:26Z</time>
      </trkpt>
      <trkpt lat="44.33619" lon="2.66216">
        <ele>626.9169922</ele>
        <time>2014-05-07T09:52:33Z</time>
      </trkpt>
      <trkpt lat="44.33618" lon="2.66195">
        <ele>629.3200684</ele>
        <time>2014-05-07T09:52:39Z</time>
      </trkpt>
      <trkpt lat="44.33617" lon="2.66173">
        <ele>635.5686035</ele>
        <time>2014-05-07T09:52:46Z</time>
      </trkpt>
      <trkpt lat="44.33616" lon="2.6616">
        <ele>640.3754883</ele>
        <time>2014-05-07T09:52:51Z</time>
      </trkpt>
      <trkpt lat="44.33615" lon="2.66143">
        <ele>637.4914551</ele>
        <time>2014-05-07T09:52:57Z</time>
      </trkpt>
      <trkpt lat="44.33614" lon="2.66138">
        <ele>637.4914551</ele>
        <time>2014-05-07T09:52:59Z</time>
      </trkpt>
      <trkpt lat="44.33612" lon="2.66122">
        <ele>638.4528809</ele>
        <time>2014-05-07T09:53:05Z</time>
      </trkpt>
      <trkpt lat="44.3361" lon="2.66107">
        <ele>637.972168</ele>
        <time>2014-05-07T09:53:11Z</time>
      </trkpt>
      <trkpt lat="44.33609" lon="2.66102">
        <ele>637.972168</ele>
        <time>2014-05-07T09:53:13Z</time>
      </trkpt>
      <trkpt lat="44.33608" lon="2.66087">
        <ele>637.4914551</ele>
        <time>2014-05-07T09:53:18Z</time>
      </trkpt>
      <trkpt lat="44.33607" lon="2.66073">
        <ele>637.972168</ele>
        <time>2014-05-07T09:53:22Z</time>
      </trkpt>
      <trkpt lat="44.33607" lon="2.66054">
        <ele>640.855957</ele>
        <time>2014-05-07T09:53:28Z</time>
      </trkpt>
      <trkpt lat="44.33604" lon="2.66032">
        <ele>639.8947754</ele>
        <time>2014-05-07T09:53:34Z</time>
      </trkpt>
      <trkpt lat="44.33601" lon="2.6601">
        <ele>639.4140625</ele>
        <time>2014-05-07T09:53:41Z</time>
      </trkpt>
      <trkpt lat="44.33594" lon="2.65991">
        <ele>641.3366699</ele>
        <time>2014-05-07T09:53:47Z</time>
      </trkpt>
      <trkpt lat="44.33588" lon="2.65975">
        <ele>640.3754883</ele>
        <time>2014-05-07T09:53:52Z</time>
      </trkpt>
      <trkpt lat="44.33579" lon="2.65957">
        <ele>641.8173828</ele>
        <time>2014-05-07T09:53:58Z</time>
      </trkpt>
      <trkpt lat="44.3357" lon="2.65941">
        <ele>643.2592773</ele>
        <time>2014-05-07T09:54:04Z</time>
      </trkpt>
      <trkpt lat="44.33563" lon="2.65928">
        <ele>644.2207031</ele>
        <time>2014-05-07T09:54:09Z</time>
      </trkpt>
      <trkpt lat="44.33555" lon="2.65912">
        <ele>646.1433105</ele>
        <time>2014-05-07T09:54:15Z</time>
      </trkpt>
      <trkpt lat="44.33545" lon="2.65894">
        <ele>648.065918</ele>
        <time>2014-05-07T09:54:22Z</time>
      </trkpt>
      <trkpt lat="44.33537" lon="2.65879">
        <ele>649.9885254</ele>
        <time>2014-05-07T09:54:28Z</time>
      </trkpt>
      <trkpt lat="44.33531" lon="2.65867">
        <ele>650.4692383</ele>
        <time>2014-05-07T09:54:33Z</time>
      </trkpt>
      <trkpt lat="44.3353" lon="2.65862">
        <ele>651.4304199</ele>
        <time>2014-05-07T09:54:35Z</time>
      </trkpt>
      <trkpt lat="44.33532" lon="2.65842">
        <ele>650.949707</ele>
        <time>2014-05-07T09:54:41Z</time>
      </trkpt>
      <trkpt lat="44.33536" lon="2.65832">
        <ele>651.4304199</ele>
        <time>2014-05-07T09:54:45Z</time>
      </trkpt>
      <trkpt lat="44.33545" lon="2.65819">
        <ele>653.3532715</ele>
        <time>2014-05-07T09:54:53Z</time>
      </trkpt>
      <trkpt lat="44.33548" lon="2.65809">
        <ele>652.8725586</ele>
        <time>2014-05-07T09:54:57Z</time>
      </trkpt>
      <trkpt lat="44.33555" lon="2.65791">
        <ele>652.3918457</ele>
        <time>2014-05-07T09:55:05Z</time>
      </trkpt>
      <trkpt lat="44.33557" lon="2.65785">
        <ele>652.8725586</ele>
        <time>2014-05-07T09:55:08Z</time>
      </trkpt>
      <trkpt lat="44.33564" lon="2.65774">
        <ele>653.3532715</ele>
        <time>2014-05-07T09:55:14Z</time>
      </trkpt>
      <trkpt lat="44.33566" lon="2.65771">
        <ele>655.2758789</ele>
        <time>2014-05-07T09:55:16Z</time>
      </trkpt>
      <trkpt lat="44.33572" lon="2.65763">
        <ele>655.2758789</ele>
        <time>2014-05-07T09:55:21Z</time>
      </trkpt>
      <trkpt lat="44.3358" lon="2.65753">
        <ele>655.7565918</ele>
        <time>2014-05-07T09:55:27Z</time>
      </trkpt>
      <trkpt lat="44.33589" lon="2.65742">
        <ele>657.1984863</ele>
        <time>2014-05-07T09:55:33Z</time>
      </trkpt>
      <trkpt lat="44.33597" lon="2.65729">
        <ele>656.7177734</ele>
        <time>2014-05-07T09:55:40Z</time>
      </trkpt>
      <trkpt lat="44.33606" lon="2.65716">
        <ele>660.5629883</ele>
        <time>2014-05-07T09:55:46Z</time>
      </trkpt>
      <trkpt lat="44.33608" lon="2.65714">
        <ele>661.5244141</ele>
        <time>2014-05-07T09:55:47Z</time>
      </trkpt>
      <trkpt lat="44.33613" lon="2.65717">
        <ele>663.4470215</ele>
        <time>2014-05-07T09:55:52Z</time>
      </trkpt>
      <trkpt lat="44.3362" lon="2.65727">
        <ele>666.8115234</ele>
        <time>2014-05-07T09:55:59Z</time>
      </trkpt>
      <trkpt lat="44.33622" lon="2.65729">
        <ele>666.8115234</ele>
        <time>2014-05-07T09:56:00Z</time>
      </trkpt>
      <trkpt lat="44.33633" lon="2.65727">
        <ele>669.2150879</ele>
        <time>2014-05-07T09:56:06Z</time>
      </trkpt>
      <trkpt lat="44.3364" lon="2.65723">
        <ele>671.1376953</ele>
        <time>2014-05-07T09:56:10Z</time>
      </trkpt>
      <trkpt lat="44.33653" lon="2.65716">
        <ele>673.5410156</ele>
        <time>2014-05-07T09:56:17Z</time>
      </trkpt>
      <trkpt lat="44.33661" lon="2.65711">
        <ele>674.5021973</ele>
        <time>2014-05-07T09:56:22Z</time>
      </trkpt>
      <trkpt lat="44.33667" lon="2.65709">
        <ele>675.9440918</ele>
        <time>2014-05-07T09:56:25Z</time>
      </trkpt>
      <trkpt lat="44.33675" lon="2.65706">
        <ele>676.9055176</ele>
        <time>2014-05-07T09:56:29Z</time>
      </trkpt>
      <trkpt lat="44.3368" lon="2.65705">
        <ele>677.3862305</ele>
        <time>2014-05-07T09:56:31Z</time>
      </trkpt>
      <trkpt lat="44.33694" lon="2.657">
        <ele>680.2700195</ele>
        <time>2014-05-07T09:56:38Z</time>
      </trkpt>
      <trkpt lat="44.33706" lon="2.65698">
        <ele>682.6733398</ele>
        <time>2014-05-07T09:56:44Z</time>
      </trkpt>
      <trkpt lat="44.3372" lon="2.65695">
        <ele>684.5961914</ele>
        <time>2014-05-07T09:56:50Z</time>
      </trkpt>
      <trkpt lat="44.33731" lon="2.65693">
        <ele>684.5961914</ele>
        <time>2014-05-07T09:56:55Z</time>
      </trkpt>
      <trkpt lat="44.33743" lon="2.6569">
        <ele>686.5187988</ele>
        <time>2014-05-07T09:57:00Z</time>
      </trkpt>
      <trkpt lat="44.33751" lon="2.6569">
        <ele>686.9992676</ele>
        <time>2014-05-07T09:57:04Z</time>
      </trkpt>
      <trkpt lat="44.3376" lon="2.65691">
        <ele>686.5187988</ele>
        <time>2014-05-07T09:57:09Z</time>
      </trkpt>
      <trkpt lat="44.33768" lon="2.65692">
        <ele>685.557373</ele>
        <time>2014-05-07T09:57:13Z</time>
      </trkpt>
      <trkpt lat="44.33783" lon="2.65694">
        <ele>686.5187988</ele>
        <time>2014-05-07T09:57:19Z</time>
      </trkpt>
      <trkpt lat="44.33788" lon="2.65694">
        <ele>685.557373</ele>
        <time>2014-05-07T09:57:21Z</time>
      </trkpt>
      <trkpt lat="44.33798" lon="2.65698">
        <ele>686.0380859</ele>
        <time>2014-05-07T09:57:25Z</time>
      </trkpt>
      <trkpt lat="44.33815" lon="2.65706">
        <ele>686.5187988</ele>
        <time>2014-05-07T09:57:32Z</time>
      </trkpt>
      <trkpt lat="44.33824" lon="2.65711">
        <ele>686.5187988</ele>
        <time>2014-05-07T09:57:37Z</time>
      </trkpt>
      <trkpt lat="44.33836" lon="2.65714">
        <ele>687.9606934</ele>
        <time>2014-05-07T09:57:43Z</time>
      </trkpt>
      <trkpt lat="44.33849" lon="2.65717">
        <ele>688.4414063</ele>
        <time>2014-05-07T09:57:48Z</time>
      </trkpt>
      <trkpt lat="44.33864" lon="2.65725">
        <ele>689.4025879</ele>
        <time>2014-05-07T09:57:55Z</time>
      </trkpt>
      <trkpt lat="44.3387" lon="2.6573">
        <ele>689.4025879</ele>
        <time>2014-05-07T09:57:59Z</time>
      </trkpt>
      <trkpt lat="44.3388" lon="2.65739">
        <ele>690.3640137</ele>
        <time>2014-05-07T09:58:05Z</time>
      </trkpt>
      <trkpt lat="44.33892" lon="2.65752">
        <ele>689.8833008</ele>
        <time>2014-05-07T09:58:11Z</time>
      </trkpt>
      <trkpt lat="44.33896" lon="2.65759">
        <ele>689.8833008</ele>
        <time>2014-05-07T09:58:14Z</time>
      </trkpt>
      <trkpt lat="44.33906" lon="2.65755">
        <ele>691.3251953</ele>
        <time>2014-05-07T09:58:19Z</time>
      </trkpt>
      <trkpt lat="44.3391" lon="2.65747">
        <ele>693.2478027</ele>
        <time>2014-05-07T09:58:23Z</time>
      </trkpt>
      <trkpt lat="44.33912" lon="2.6574">
        <ele>691.3251953</ele>
        <time>2014-05-07T09:58:28Z</time>
      </trkpt>
      <trkpt lat="44.33916" lon="2.65729">
        <ele>691.8059082</ele>
        <time>2014-05-07T09:58:34Z</time>
      </trkpt>
      <trkpt lat="44.33919" lon="2.6571">
        <ele>692.2866211</ele>
        <time>2014-05-07T09:58:39Z</time>
      </trkpt>
      <trkpt lat="44.33923" lon="2.65681">
        <ele>691.8059082</ele>
        <time>2014-05-07T09:58:47Z</time>
      </trkpt>
      <trkpt lat="44.33928" lon="2.65657">
        <ele>693.2478027</ele>
        <time>2014-05-07T09:58:54Z</time>
      </trkpt>
      <trkpt lat="44.33933" lon="2.65635">
        <ele>695.1704102</ele>
        <time>2014-05-07T09:59:01Z</time>
      </trkpt>
      <trkpt lat="44.33937" lon="2.65618">
        <ele>695.651123</ele>
        <time>2014-05-07T09:59:06Z</time>
      </trkpt>
      <trkpt lat="44.33944" lon="2.65604">
        <ele>696.6125488</ele>
        <time>2014-05-07T09:59:11Z</time>
      </trkpt>
      <trkpt lat="44.33953" lon="2.65585">
        <ele>697.5737305</ele>
        <time>2014-05-07T09:59:17Z</time>
      </trkpt>
      <trkpt lat="44.3396" lon="2.65568">
        <ele>698.0544434</ele>
        <time>2014-05-07T09:59:22Z</time>
      </trkpt>
      <trkpt lat="44.33967" lon="2.65546">
        <ele>698.5349121</ele>
        <time>2014-05-07T09:59:28Z</time>
      </trkpt>
      <trkpt lat="44.33967" lon="2.65542">
        <ele>699.015625</ele>
        <time>2014-05-07T09:59:29Z</time>
      </trkpt>
      <trkpt lat="44.33975" lon="2.65518">
        <ele>698.5349121</ele>
        <time>2014-05-07T09:59:36Z</time>
      </trkpt>
      <trkpt lat="44.33982" lon="2.65496">
        <ele>698.0544434</ele>
        <time>2014-05-07T09:59:42Z</time>
      </trkpt>
      <trkpt lat="44.33988" lon="2.65473">
        <ele>697.0930176</ele>
        <time>2014-05-07T09:59:48Z</time>
      </trkpt>
      <trkpt lat="44.33995" lon="2.65452">
        <ele>696.1318359</ele>
        <time>2014-05-07T09:59:54Z</time>
      </trkpt>
      <trkpt lat="44.34004" lon="2.65431">
        <ele>695.1704102</ele>
        <time>2014-05-07T10:00:00Z</time>
      </trkpt>
      <trkpt lat="44.34012" lon="2.65413">
        <ele>693.2478027</ele>
        <time>2014-05-07T10:00:05Z</time>
      </trkpt>
      <trkpt lat="44.34021" lon="2.65392">
        <ele>692.767334</ele>
        <time>2014-05-07T10:00:11Z</time>
      </trkpt>
      <trkpt lat="44.3403" lon="2.65371">
        <ele>692.767334</ele>
        <time>2014-05-07T10:00:17Z</time>
      </trkpt>
      <trkpt lat="44.34039" lon="2.65353">
        <ele>692.2866211</ele>
        <time>2014-05-07T10:00:22Z</time>
      </trkpt>
      <trkpt lat="44.34048" lon="2.65339">
        <ele>691.3251953</ele>
        <time>2014-05-07T10:00:27Z</time>
      </trkpt>
      <trkpt lat="44.34058" lon="2.65324">
        <ele>689.8833008</ele>
        <time>2014-05-07T10:00:32Z</time>
      </trkpt>
      <trkpt lat="44.34065" lon="2.65312">
        <ele>689.8833008</ele>
        <time>2014-05-07T10:00:36Z</time>
      </trkpt>
      <trkpt lat="44.34074" lon="2.65303">
        <ele>689.4025879</ele>
        <time>2014-05-07T10:00:40Z</time>
      </trkpt>
      <trkpt lat="44.34078" lon="2.65299">
        <ele>690.3640137</ele>
        <time>2014-05-07T10:00:42Z</time>
      </trkpt>
      <trkpt lat="44.34087" lon="2.65283">
        <ele>690.8444824</ele>
        <time>2014-05-07T10:00:47Z</time>
      </trkpt>
      <trkpt lat="44.34097" lon="2.65267">
        <ele>690.3640137</ele>
        <time>2014-05-07T10:00:53Z</time>
      </trkpt>
      <trkpt lat="44.34105" lon="2.6525">
        <ele>688.9221191</ele>
        <time>2014-05-07T10:00:58Z</time>
      </trkpt>
      <trkpt lat="44.34118" lon="2.65233">
        <ele>687.4799805</ele>
        <time>2014-05-07T10:01:04Z</time>
      </trkpt>
      <trkpt lat="44.34128" lon="2.65219">
        <ele>686.9992676</ele>
        <time>2014-05-07T10:01:09Z</time>
      </trkpt>
      <trkpt lat="44.34137" lon="2.6521">
        <ele>687.4799805</ele>
        <time>2014-05-07T10:01:13Z</time>
      </trkpt>
      <trkpt lat="44.34148" lon="2.65197">
        <ele>686.9992676</ele>
        <time>2014-05-07T10:01:18Z</time>
      </trkpt>
      <trkpt lat="44.34158" lon="2.65183">
        <ele>686.5187988</ele>
        <time>2014-05-07T10:01:23Z</time>
      </trkpt>
      <trkpt lat="44.34167" lon="2.65169">
        <ele>685.0769043</ele>
        <time>2014-05-07T10:01:28Z</time>
      </trkpt>
      <trkpt lat="44.34174" lon="2.6516">
        <ele>683.1538086</ele>
        <time>2014-05-07T10:01:32Z</time>
      </trkpt>
      <trkpt lat="44.34175" lon="2.65157">
        <ele>683.1538086</ele>
        <time>2014-05-07T10:01:33Z</time>
      </trkpt>
      <trkpt lat="44.34174" lon="2.65141">
        <ele>682.6733398</ele>
        <time>2014-05-07T10:01:37Z</time>
      </trkpt>
      <trkpt lat="44.34172" lon="2.65123">
        <ele>682.192627</ele>
        <time>2014-05-07T10:01:42Z</time>
      </trkpt>
      <trkpt lat="44.3417" lon="2.651">
        <ele>682.192627</ele>
        <time>2014-05-07T10:01:48Z</time>
      </trkpt>
      <trkpt lat="44.34171" lon="2.6508">
        <ele>678.828125</ele>
        <time>2014-05-07T10:01:53Z</time>
      </trkpt>
      <trkpt lat="44.34171" lon="2.65074">
        <ele>677.8666992</ele>
        <time>2014-05-07T10:01:56Z</time>
      </trkpt>
      <trkpt lat="44.34171" lon="2.65072">
        <ele>677.3862305</ele>
        <time>2014-05-07T10:02:06Z</time>
      </trkpt>
      <trkpt lat="44.3417" lon="2.65068">
        <ele>677.3862305</ele>
        <time>2014-05-07T10:02:10Z</time>
      </trkpt>
      <trkpt lat="44.34182" lon="2.65067">
        <ele>677.3862305</ele>
        <time>2014-05-07T10:02:15Z</time>
      </trkpt>
      <trkpt lat="44.34197" lon="2.65063">
        <ele>677.8666992</ele>
        <time>2014-05-07T10:02:20Z</time>
      </trkpt>
      <trkpt lat="44.34215" lon="2.65051">
        <ele>678.828125</ele>
        <time>2014-05-07T10:02:26Z</time>
      </trkpt>
      <trkpt lat="44.34234" lon="2.65038">
        <ele>679.3085938</ele>
        <time>2014-05-07T10:02:32Z</time>
      </trkpt>
      <trkpt lat="44.34251" lon="2.65023">
        <ele>679.3085938</ele>
        <time>2014-05-07T10:02:38Z</time>
      </trkpt>
      <trkpt lat="44.34269" lon="2.65004">
        <ele>678.3474121</ele>
        <time>2014-05-07T10:02:45Z</time>
      </trkpt>
      <trkpt lat="44.34283" lon="2.64988">
        <ele>677.3862305</ele>
        <time>2014-05-07T10:02:51Z</time>
      </trkpt>
      <trkpt lat="44.34301" lon="2.64968">
        <ele>676.4248047</ele>
        <time>2014-05-07T10:02:58Z</time>
      </trkpt>
      <trkpt lat="44.34317" lon="2.64947">
        <ele>675.9440918</ele>
        <time>2014-05-07T10:03:05Z</time>
      </trkpt>
      <trkpt lat="44.34331" lon="2.64929">
        <ele>674.9829102</ele>
        <time>2014-05-07T10:03:11Z</time>
      </trkpt>
      <trkpt lat="44.34342" lon="2.64913">
        <ele>674.5021973</ele>
        <time>2014-05-07T10:03:16Z</time>
      </trkpt>
      <trkpt lat="44.34353" lon="2.64895">
        <ele>674.0214844</ele>
        <time>2014-05-07T10:03:21Z</time>
      </trkpt>
      <trkpt lat="44.34363" lon="2.64878">
        <ele>673.5410156</ele>
        <time>2014-05-07T10:03:26Z</time>
      </trkpt>
      <trkpt lat="44.34376" lon="2.64857">
        <ele>672.5795898</ele>
        <time>2014-05-07T10:03:32Z</time>
      </trkpt>
      <trkpt lat="44.34387" lon="2.64833">
        <ele>671.6181641</ele>
        <time>2014-05-07T10:03:38Z</time>
      </trkpt>
      <trkpt lat="44.34397" lon="2.6481">
        <ele>671.6181641</ele>
        <time>2014-05-07T10:03:44Z</time>
      </trkpt>
      <trkpt lat="44.34405" lon="2.64789">
        <ele>671.6181641</ele>
        <time>2014-05-07T10:03:49Z</time>
      </trkpt>
      <trkpt lat="44.34412" lon="2.64762">
        <ele>671.6181641</ele>
        <time>2014-05-07T10:03:55Z</time>
      </trkpt>
      <trkpt lat="44.34419" lon="2.64736">
        <ele>671.1376953</ele>
        <time>2014-05-07T10:04:01Z</time>
      </trkpt>
      <trkpt lat="44.34424" lon="2.64715">
        <ele>670.6569824</ele>
        <time>2014-05-07T10:04:06Z</time>
      </trkpt>
      <trkpt lat="44.34431" lon="2.64689">
        <ele>670.1762695</ele>
        <time>2014-05-07T10:04:12Z</time>
      </trkpt>
      <trkpt lat="44.34438" lon="2.64663">
        <ele>669.2150879</ele>
        <time>2014-05-07T10:04:18Z</time>
      </trkpt>
      <trkpt lat="44.34445" lon="2.64639">
        <ele>668.734375</ele>
        <time>2014-05-07T10:04:24Z</time>
      </trkpt>
      <trkpt lat="44.34451" lon="2.64619">
        <ele>668.2536621</ele>
        <time>2014-05-07T10:04:29Z</time>
      </trkpt>
      <trkpt lat="44.34459" lon="2.64591">
        <ele>666.8115234</ele>
        <time>2014-05-07T10:04:36Z</time>
      </trkpt>
      <trkpt lat="44.34463" lon="2.64574">
        <ele>665.8503418</ele>
        <time>2014-05-07T10:04:40Z</time>
      </trkpt>
      <trkpt lat="44.34469" lon="2.64552">
        <ele>665.3696289</ele>
        <time>2014-05-07T10:04:45Z</time>
      </trkpt>
      <trkpt lat="44.34476" lon="2.64526">
        <ele>664.888916</ele>
        <time>2014-05-07T10:04:51Z</time>
      </trkpt>
      <trkpt lat="44.34481" lon="2.64503">
        <ele>664.888916</ele>
        <time>2014-05-07T10:04:56Z</time>
      </trkpt>
      <trkpt lat="44.34487" lon="2.64482">
        <ele>664.888916</ele>
        <time>2014-05-07T10:05:01Z</time>
      </trkpt>
      <trkpt lat="44.34493" lon="2.64461">
        <ele>664.4082031</ele>
        <time>2014-05-07T10:05:06Z</time>
      </trkpt>
      <trkpt lat="44.345" lon="2.64435">
        <ele>663.9274902</ele>
        <time>2014-05-07T10:05:12Z</time>
      </trkpt>
      <trkpt lat="44.34504" lon="2.64418">
        <ele>662.005127</ele>
        <time>2014-05-07T10:05:16Z</time>
      </trkpt>
      <trkpt lat="44.34511" lon="2.64393">
        <ele>662.4855957</ele>
        <time>2014-05-07T10:05:22Z</time>
      </trkpt>
      <trkpt lat="44.34519" lon="2.64363">
        <ele>662.9663086</ele>
        <time>2014-05-07T10:05:29Z</time>
      </trkpt>
      <trkpt lat="44.34527" lon="2.64339">
        <ele>663.4470215</ele>
        <time>2014-05-07T10:05:35Z</time>
      </trkpt>
      <trkpt lat="44.34535" lon="2.64318">
        <ele>664.4082031</ele>
        <time>2014-05-07T10:05:40Z</time>
      </trkpt>
      <trkpt lat="44.34545" lon="2.64294">
        <ele>664.4082031</ele>
        <time>2014-05-07T10:05:46Z</time>
      </trkpt>
      <trkpt lat="44.34557" lon="2.64272">
        <ele>663.4470215</ele>
        <time>2014-05-07T10:05:52Z</time>
      </trkpt>
      <trkpt lat="44.34563" lon="2.64257">
        <ele>663.4470215</ele>
        <time>2014-05-07T10:05:56Z</time>
      </trkpt>
      <trkpt lat="44.34563" lon="2.64239">
        <ele>663.9274902</ele>
        <time>2014-05-07T10:06:00Z</time>
      </trkpt>
      <trkpt lat="44.34555" lon="2.64212">
        <ele>663.9274902</ele>
        <time>2014-05-07T10:06:06Z</time>
      </trkpt>
      <trkpt lat="44.34548" lon="2.64179">
        <ele>662.4855957</ele>
        <time>2014-05-07T10:06:13Z</time>
      </trkpt>
      <trkpt lat="44.34542" lon="2.64148">
        <ele>661.5244141</ele>
        <time>2014-05-07T10:06:20Z</time>
      </trkpt>
      <trkpt lat="44.34535" lon="2.64117">
        <ele>661.5244141</ele>
        <time>2014-05-07T10:06:27Z</time>
      </trkpt>
      <trkpt lat="44.34527" lon="2.64091">
        <ele>660.5629883</ele>
        <time>2014-05-07T10:06:33Z</time>
      </trkpt>
      <trkpt lat="44.34517" lon="2.64063">
        <ele>660.0822754</ele>
        <time>2014-05-07T10:06:40Z</time>
      </trkpt>
      <trkpt lat="44.34511" lon="2.64037">
        <ele>658.6403809</ele>
        <time>2014-05-07T10:06:46Z</time>
      </trkpt>
      <trkpt lat="44.34504" lon="2.64011">
        <ele>657.1984863</ele>
        <time>2014-05-07T10:06:52Z</time>
      </trkpt>
      <trkpt lat="44.34498" lon="2.63989">
        <ele>656.7177734</ele>
        <time>2014-05-07T10:06:57Z</time>
      </trkpt>
      <trkpt lat="44.34492" lon="2.63962">
        <ele>655.7565918</ele>
        <time>2014-05-07T10:07:03Z</time>
      </trkpt>
      <trkpt lat="44.34487" lon="2.63939">
        <ele>655.2758789</ele>
        <time>2014-05-07T10:07:08Z</time>
      </trkpt>
      <trkpt lat="44.34483" lon="2.63915">
        <ele>654.795166</ele>
        <time>2014-05-07T10:07:13Z</time>
      </trkpt>
      <trkpt lat="44.34478" lon="2.63884">
        <ele>653.3532715</ele>
        <time>2014-05-07T10:07:20Z</time>
      </trkpt>
      <trkpt lat="44.34475" lon="2.63861">
        <ele>652.3918457</ele>
        <time>2014-05-07T10:07:25Z</time>
      </trkpt>
      <trkpt lat="44.34473" lon="2.63838">
        <ele>652.3918457</ele>
        <time>2014-05-07T10:07:30Z</time>
      </trkpt>
      <trkpt lat="44.34475" lon="2.63807">
        <ele>651.4304199</ele>
        <time>2014-05-07T10:07:37Z</time>
      </trkpt>
      <trkpt lat="44.34478" lon="2.63785">
        <ele>651.4304199</ele>
        <time>2014-05-07T10:07:42Z</time>
      </trkpt>
      <trkpt lat="44.34482" lon="2.63762">
        <ele>650.949707</ele>
        <time>2014-05-07T10:07:47Z</time>
      </trkpt>
      <trkpt lat="44.34488" lon="2.63735">
        <ele>650.949707</ele>
        <time>2014-05-07T10:07:53Z</time>
      </trkpt>
      <trkpt lat="44.34494" lon="2.6371">
        <ele>650.949707</ele>
        <time>2014-05-07T10:07:59Z</time>
      </trkpt>
      <trkpt lat="44.34498" lon="2.63688">
        <ele>650.949707</ele>
        <time>2014-05-07T10:08:04Z</time>
      </trkpt>
      <trkpt lat="44.34503" lon="2.63662">
        <ele>651.4304199</ele>
        <time>2014-05-07T10:08:10Z</time>
      </trkpt>
      <trkpt lat="44.34508" lon="2.6364">
        <ele>652.3918457</ele>
        <time>2014-05-07T10:08:15Z</time>
      </trkpt>
      <trkpt lat="44.34515" lon="2.6361">
        <ele>653.3532715</ele>
        <time>2014-05-07T10:08:22Z</time>
      </trkpt>
      <trkpt lat="44.34521" lon="2.6358">
        <ele>652.8725586</ele>
        <time>2014-05-07T10:08:29Z</time>
      </trkpt>
      <trkpt lat="44.34526" lon="2.63554">
        <ele>652.8725586</ele>
        <time>2014-05-07T10:08:35Z</time>
      </trkpt>
      <trkpt lat="44.3453" lon="2.63533">
        <ele>652.8725586</ele>
        <time>2014-05-07T10:08:40Z</time>
      </trkpt>
      <trkpt lat="44.34537" lon="2.63509">
        <ele>652.8725586</ele>
        <time>2014-05-07T10:08:46Z</time>
      </trkpt>
      <trkpt lat="44.34539" lon="2.63482">
        <ele>651.9111328</ele>
        <time>2014-05-07T10:08:52Z</time>
      </trkpt>
      <trkpt lat="44.3454" lon="2.63455">
        <ele>651.9111328</ele>
        <time>2014-05-07T10:08:58Z</time>
      </trkpt>
      <trkpt lat="44.34539" lon="2.63426">
        <ele>650.949707</ele>
        <time>2014-05-07T10:09:04Z</time>
      </trkpt>
      <trkpt lat="44.34537" lon="2.63402">
        <ele>650.4692383</ele>
        <time>2014-05-07T10:09:09Z</time>
      </trkpt>
      <trkpt lat="44.3453" lon="2.63377">
        <ele>648.5463867</ele>
        <time>2014-05-07T10:09:15Z</time>
      </trkpt>
      <trkpt lat="44.34521" lon="2.63358">
        <ele>647.1044922</ele>
        <time>2014-05-07T10:09:20Z</time>
      </trkpt>
      <trkpt lat="44.34509" lon="2.63343">
        <ele>645.1818848</ele>
        <time>2014-05-07T10:09:25Z</time>
      </trkpt>
      <trkpt lat="44.34494" lon="2.6334">
        <ele>643.7399902</ele>
        <time>2014-05-07T10:09:30Z</time>
      </trkpt>
      <trkpt lat="44.34475" lon="2.63338">
        <ele>641.3366699</ele>
        <time>2014-05-07T10:09:36Z</time>
      </trkpt>
      <trkpt lat="44.34459" lon="2.63336">
        <ele>638.9335938</ele>
        <time>2014-05-07T10:09:41Z</time>
      </trkpt>
      <trkpt lat="44.34445" lon="2.63338">
        <ele>637.0107422</ele>
        <time>2014-05-07T10:09:45Z</time>
      </trkpt>
      <trkpt lat="44.34427" lon="2.63343">
        <ele>636.5302734</ele>
        <time>2014-05-07T10:09:51Z</time>
      </trkpt>
      <trkpt lat="44.34412" lon="2.63345">
        <ele>636.0495605</ele>
        <time>2014-05-07T10:09:56Z</time>
      </trkpt>
      <trkpt lat="44.34397" lon="2.6334">
        <ele>636.5302734</ele>
        <time>2014-05-07T10:10:01Z</time>
      </trkpt>
      <trkpt lat="44.34384" lon="2.63336">
        <ele>637.972168</ele>
        <time>2014-05-07T10:10:05Z</time>
      </trkpt>
      <trkpt lat="44.34367" lon="2.6333">
        <ele>640.3754883</ele>
        <time>2014-05-07T10:10:11Z</time>
      </trkpt>
      <trkpt lat="44.34346" lon="2.63322">
        <ele>642.2980957</ele>
        <time>2014-05-07T10:10:18Z</time>
      </trkpt>
      <trkpt lat="44.34333" lon="2.63316">
        <ele>643.2592773</ele>
        <time>2014-05-07T10:10:23Z</time>
      </trkpt>
      <trkpt lat="44.3432" lon="2.63306">
        <ele>644.2207031</ele>
        <time>2014-05-07T10:10:28Z</time>
      </trkpt>
      <trkpt lat="44.34311" lon="2.63286">
        <ele>644.2207031</ele>
        <time>2014-05-07T10:10:33Z</time>
      </trkpt>
      <trkpt lat="44.34302" lon="2.63264">
        <ele>644.7011719</ele>
        <time>2014-05-07T10:10:39Z</time>
      </trkpt>
      <trkpt lat="44.34291" lon="2.63248">
        <ele>646.6240234</ele>
        <time>2014-05-07T10:10:45Z</time>
      </trkpt>
      <trkpt lat="44.34279" lon="2.63235">
        <ele>649.0270996</ele>
        <time>2014-05-07T10:10:51Z</time>
      </trkpt>
      <trkpt lat="44.3427" lon="2.63223">
        <ele>650.4692383</ele>
        <time>2014-05-07T10:10:56Z</time>
      </trkpt>
      <trkpt lat="44.3426" lon="2.63214">
        <ele>649.9885254</ele>
        <time>2014-05-07T10:11:01Z</time>
      </trkpt>
      <trkpt lat="44.34249" lon="2.63205">
        <ele>650.4692383</ele>
        <time>2014-05-07T10:11:06Z</time>
      </trkpt>
      <trkpt lat="44.34238" lon="2.63196">
        <ele>649.9885254</ele>
        <time>2014-05-07T10:11:11Z</time>
      </trkpt>
      <trkpt lat="44.34224" lon="2.63186">
        <ele>650.949707</ele>
        <time>2014-05-07T10:11:17Z</time>
      </trkpt>
      <trkpt lat="44.34212" lon="2.63178">
        <ele>651.4304199</ele>
        <time>2014-05-07T10:11:22Z</time>
      </trkpt>
      <trkpt lat="44.34198" lon="2.63171">
        <ele>651.4304199</ele>
        <time>2014-05-07T10:11:27Z</time>
      </trkpt>
      <trkpt lat="44.34182" lon="2.63165">
        <ele>652.3918457</ele>
        <time>2014-05-07T10:11:33Z</time>
      </trkpt>
      <trkpt lat="44.34168" lon="2.63161">
        <ele>653.8339844</ele>
        <time>2014-05-07T10:11:38Z</time>
      </trkpt>
      <trkpt lat="44.34155" lon="2.63156">
        <ele>652.3918457</ele>
        <time>2014-05-07T10:11:44Z</time>
      </trkpt>
      <trkpt lat="44.34142" lon="2.63153">
        <ele>651.9111328</ele>
        <time>2014-05-07T10:11:49Z</time>
      </trkpt>
      <trkpt lat="44.34127" lon="2.63144">
        <ele>653.3532715</ele>
        <time>2014-05-07T10:11:55Z</time>
      </trkpt>
      <trkpt lat="44.34116" lon="2.63135">
        <ele>654.3146973</ele>
        <time>2014-05-07T10:12:00Z</time>
      </trkpt>
      <trkpt lat="44.34104" lon="2.63126">
        <ele>655.7565918</ele>
        <time>2014-05-07T10:12:05Z</time>
      </trkpt>
      <trkpt lat="44.3409" lon="2.63116">
        <ele>657.1984863</ele>
        <time>2014-05-07T10:12:11Z</time>
      </trkpt>
      <trkpt lat="44.34079" lon="2.63108">
        <ele>657.6791992</ele>
        <time>2014-05-07T10:12:16Z</time>
      </trkpt>
      <trkpt lat="44.3407" lon="2.631">
        <ele>658.1599121</ele>
        <time>2014-05-07T10:12:20Z</time>
      </trkpt>
      <trkpt lat="44.34055" lon="2.63086">
        <ele>659.1210938</ele>
        <time>2014-05-07T10:12:27Z</time>
      </trkpt>
      <trkpt lat="44.34044" lon="2.63077">
        <ele>660.0822754</ele>
        <time>2014-05-07T10:12:32Z</time>
      </trkpt>
      <trkpt lat="44.3403" lon="2.63067">
        <ele>660.5629883</ele>
        <time>2014-05-07T10:12:38Z</time>
      </trkpt>
      <trkpt lat="44.34019" lon="2.63062">
        <ele>661.5244141</ele>
        <time>2014-05-07T10:12:42Z</time>
      </trkpt>
      <trkpt lat="44.34005" lon="2.63054">
        <ele>663.4470215</ele>
        <time>2014-05-07T10:12:48Z</time>
      </trkpt>
      <trkpt lat="44.33989" lon="2.63047">
        <ele>665.8503418</ele>
        <time>2014-05-07T10:12:54Z</time>
      </trkpt>
      <trkpt lat="44.33975" lon="2.63038">
        <ele>666.3308105</ele>
        <time>2014-05-07T10:13:00Z</time>
      </trkpt>
      <trkpt lat="44.33962" lon="2.63025">
        <ele>667.7727051</ele>
        <time>2014-05-07T10:13:06Z</time>
      </trkpt>
      <trkpt lat="44.33948" lon="2.63014">
        <ele>669.2150879</ele>
        <time>2014-05-07T10:13:12Z</time>
      </trkpt>
      <trkpt lat="44.33933" lon="2.63002">
        <ele>670.6569824</ele>
        <time>2014-05-07T10:13:18Z</time>
      </trkpt>
      <trkpt lat="44.33919" lon="2.62988">
        <ele>672.098877</ele>
        <time>2014-05-07T10:13:24Z</time>
      </trkpt>
      <trkpt lat="44.33906" lon="2.62977">
        <ele>672.098877</ele>
        <time>2014-05-07T10:13:29Z</time>
      </trkpt>
      <trkpt lat="44.33894" lon="2.62964">
        <ele>671.1376953</ele>
        <time>2014-05-07T10:13:35Z</time>
      </trkpt>
      <trkpt lat="44.33884" lon="2.62953">
        <ele>669.2150879</ele>
        <time>2014-05-07T10:13:40Z</time>
      </trkpt>
      <trkpt lat="44.33879" lon="2.62946">
        <ele>668.734375</ele>
        <time>2014-05-07T10:13:43Z</time>
      </trkpt>
      <trkpt lat="44.33871" lon="2.62954">
        <ele>666.8115234</ele>
        <time>2014-05-07T10:13:48Z</time>
      </trkpt>
      <trkpt lat="44.33865" lon="2.62977">
        <ele>667.7727051</ele>
        <time>2014-05-07T10:13:54Z</time>
      </trkpt>
      <trkpt lat="44.3386" lon="2.63001">
        <ele>668.2536621</ele>
        <time>2014-05-07T10:14:00Z</time>
      </trkpt>
      <trkpt lat="44.33855" lon="2.63023">
        <ele>668.2536621</ele>
        <time>2014-05-07T10:14:06Z</time>
      </trkpt>
      <trkpt lat="44.33851" lon="2.63042">
        <ele>668.2536621</ele>
        <time>2014-05-07T10:14:11Z</time>
      </trkpt>
      <trkpt lat="44.33847" lon="2.63061">
        <ele>669.2150879</ele>
        <time>2014-05-07T10:14:16Z</time>
      </trkpt>
      <trkpt lat="44.33841" lon="2.63088">
        <ele>670.6569824</ele>
        <time>2014-05-07T10:14:23Z</time>
      </trkpt>
      <trkpt lat="44.33837" lon="2.6311">
        <ele>671.1376953</ele>
        <time>2014-05-07T10:14:28Z</time>
      </trkpt>
      <trkpt lat="44.33827" lon="2.63127">
        <ele>670.6569824</ele>
        <time>2014-05-07T10:14:33Z</time>
      </trkpt>
      <trkpt lat="44.33815" lon="2.63129">
        <ele>669.6958008</ele>
        <time>2014-05-07T10:14:37Z</time>
      </trkpt>
      <trkpt lat="44.33801" lon="2.63128">
        <ele>668.734375</ele>
        <time>2014-05-07T10:14:41Z</time>
      </trkpt>
      <trkpt lat="44.33786" lon="2.63121">
        <ele>666.8115234</ele>
        <time>2014-05-07T10:14:46Z</time>
      </trkpt>
      <trkpt lat="44.33772" lon="2.63115">
        <ele>666.8115234</ele>
        <time>2014-05-07T10:14:51Z</time>
      </trkpt>
      <trkpt lat="44.33757" lon="2.63108">
        <ele>665.8503418</ele>
        <time>2014-05-07T10:14:56Z</time>
      </trkpt>
      <trkpt lat="44.33739" lon="2.63101">
        <ele>663.4470215</ele>
        <time>2014-05-07T10:15:02Z</time>
      </trkpt>
      <trkpt lat="44.33725" lon="2.63097">
        <ele>662.005127</ele>
        <time>2014-05-07T10:15:06Z</time>
      </trkpt>
      <trkpt lat="44.33709" lon="2.63092">
        <ele>660.5629883</ele>
        <time>2014-05-07T10:15:11Z</time>
      </trkpt>
      <trkpt lat="44.33692" lon="2.63088">
        <ele>659.1210938</ele>
        <time>2014-05-07T10:15:16Z</time>
      </trkpt>
      <trkpt lat="44.33668" lon="2.63083">
        <ele>655.7565918</ele>
        <time>2014-05-07T10:15:23Z</time>
      </trkpt>
      <trkpt lat="44.3365" lon="2.63081">
        <ele>652.3918457</ele>
        <time>2014-05-07T10:15:29Z</time>
      </trkpt>
      <trkpt lat="44.33638" lon="2.6308">
        <ele>651.4304199</ele>
        <time>2014-05-07T10:15:33Z</time>
      </trkpt>
      <trkpt lat="44.33626" lon="2.63075">
        <ele>650.4692383</ele>
        <time>2014-05-07T10:15:37Z</time>
      </trkpt>
      <trkpt lat="44.33608" lon="2.63069">
        <ele>649.0270996</ele>
        <time>2014-05-07T10:15:43Z</time>
      </trkpt>
      <trkpt lat="44.33595" lon="2.63062">
        <ele>648.5463867</ele>
        <time>2014-05-07T10:15:48Z</time>
      </trkpt>
      <trkpt lat="44.33583" lon="2.6305">
        <ele>647.1044922</ele>
        <time>2014-05-07T10:15:53Z</time>
      </trkpt>
      <trkpt lat="44.33578" lon="2.63029">
        <ele>646.1433105</ele>
        <time>2014-05-07T10:15:58Z</time>
      </trkpt>
      <trkpt lat="44.33575" lon="2.63008">
        <ele>646.1433105</ele>
        <time>2014-05-07T10:16:03Z</time>
      </trkpt>
      <trkpt lat="44.33574" lon="2.62987">
        <ele>646.6240234</ele>
        <time>2014-05-07T10:16:08Z</time>
      </trkpt>
      <trkpt lat="44.33571" lon="2.6296">
        <ele>645.6625977</ele>
        <time>2014-05-07T10:16:15Z</time>
      </trkpt>
      <trkpt lat="44.33566" lon="2.62935">
        <ele>646.6240234</ele>
        <time>2014-05-07T10:16:22Z</time>
      </trkpt>
      <trkpt lat="44.33566" lon="2.62928">
        <ele>646.1433105</ele>
        <time>2014-05-07T10:16:25Z</time>
      </trkpt>
    </trkseg>
  </trk>
</gpx>